GFSSE_925_thetae_000.txt.gz
Theta_e
337 341 338 339 340 341 340 338 338 337 337 337 337 336 335 334 332 331 330 329 330 328 325 326 326 324 330 328 330 330 331 331 330 328 328 329 330 332 332 333 335 338 335
338 342 338 338 338 339 340 339 337 336 337 338 338 339 337 334 333 331 329 328 328 326 326 327 326 324 331 335 331 329 326 328 329 325 324 325 328 331 332 333 335 337 333
338 341 341 338 338 338 339 339 338 337 335 336 337 336 334 332 332 330 329 327 326 326 327 327 333 331 336 337 333 329 328 327 327 326 324 332 333 327 330 332 332 335 332
337 340 341 339 339 339 339 340 339 338 335 334 333 332 332 332 331 330 329 329 327 327 331 333 333 332 330 334 334 332 330 330 329 328 331 333 332 329 331 330 331 331 334
335 337 340 338 339 341 341 341 340 338 335 334 333 334 335 334 332 331 329 326 322 324 326 328 330 329 329 329 328 329 329 329 330 331 334 334 332 332 328 329 329 329 329
331 334 332 333 334 335 337 337 337 337 336 333 332 332 332 331 328 324 321 321 322 323 325 326 325 325 327 330 330 327 325 324 327 331 334 334 332 332 327 329 330 332 331
328 331 330 328 329 329 328 328 329 330 329 326 325 326 326 324 323 322 321 322 321 322 322 323 324 325 326 325 324 325 326 327 331 331 332 334 333 331 328 328 329 330 329
328 331 331 325 324 323 323 322 322 322 323 323 323 323 323 323 322 321 320 318 318 318 319 321 321 323 325 326 327 327 324 324 329 332 331 332 332 329 331 330 330 330 329
327 329 331 331 328 322 322 322 322 323 323 322 323 323 323 323 323 322 320 319 318 318 318 317 317 317 320 322 324 326 327 327 330 330 330 330 329 327 328 329 329 328 329
330 330 331 332 331 332 330 322 322 321 321 322 322 323 323 324 323 322 319 320 317 315 314 314 313 313 313 316 320 322 324 326 328 328 328 327 324 326 327 327 325 325 327
331 333 333 332 332 331 329 328 324 323 323 323 327 325 327 328 328 326 321 318 317 316 315 312 311 310 310 315 315 317 320 323 325 325 326 323 322 323 325 328 328 325 325
333 334 334 334 333 331 328 330 329 329 330 331 331 331 329 329 329 325 325 319 316 316 318 316 315 313 316 317 318 318 319 321 321 322 323 321 318 320 324 324 326 326 326
334 334 334 335 334 332 328 329 327 327 328 329 332 332 331 330 328 327 326 324 324 323 322 321 321 320 320 318 317 318 318 318 317 318 319 315 316 319 320 323 325 326 327
332 334 336 335 335 334 329 328 328 327 327 327 329 332 330 328 327 327 324 323 322 322 322 321 321 321 316 314 313 314 313 312 311 313 313 306 308 312 315 316 318 321 325
332 336 337 337 335 331 333 329 329 328 326 327 327 327 328 326 325 323 321 320 319 320 320 320 319 316 311 309 310 311 310 310 311 310 310 304 304 304 305 307 311 316 319
333 336 338 337 333 328 328 329 327 325 324 324 323 322 325 325 322 319 317 316 316 316 318 318 317 313 311 309 309 310 309 309 310 309 308 308 303 304 304 305 306 309 317
330 333 337 335 327 327 326 324 322 320 319 319 319 319 320 320 318 318 316 316 316 316 318 319 318 314 312 309 309 309 309 309 308 308 307 307 307 304 304 304 305 307 308
331 333 333 330 323 323 323 322 321 320 320 319 319 318 319 319 319 318 316 316 316 316 316 316 316 315 313 310 309 309 308 308 307 307 307 306 307 307 306 303 303 305 306
328 330 331 327 319 320 322 322 321 321 319 316 316 315 316 316 316 316 315 315 316 316 315 315 315 314 313 311 309 309 309 308 307 307 307 307 306 306 306 305 301 302 304
326 329 329 322 320 322 322 320 317 316 315 314 313 313 313 313 313 314 314 315 316 316 315 314 315 314 313 311 310 308 308 309 308 307 307 306 305 307 306 307 307 307 303
327 327 326 323 318 317 315 314 314 314 313 313 313 312 313 312 312 312 312 313 313 314 314 315 315 315 315 313 311 310 309 309 309 308 307 307 306 306 307 307 305 304 304
322 322 318 315 314 313 313 313 312 312 312 312 312 311 311 308 308 308 309 310 310 311 311 313 314 314 315 314 313 311 313 310 310 309 308 307 306 306 307 307 304 302 302
316 316 315 314 313 312 312 311 312 312 311 311 310 309 307 307 306 306 307 308 308 308 308 309 310 311 312 313 313 312 313 313 312 309 308 307 306 306 306 304 301 300 300
316 314 313 312 312 310 310 310 310 310 309 309 308 307 306 305 305 305 305 306 306 306 306 306 306 307 308 310 310 311 311 311 314 312 309 307 306 306 305 303 301 301 300
314 313 313 312 311 310 309 309 309 309 308 308 307 305 304 303 304 304 304 304 305 305 305 305 306 306 307 308 308 309 309 309 308 309 311 308 305 304 302 301 301 301 301
314 313 312 311 310 310 309 307 308 309 308 307 305 304 303 303 303 303 303 303 304 303 303 303 303 303 303 303 303 302 303 301 303 305 307 307 308 303 301 301 300 300 300

GFSSE_925_thetae_003.txt.gz
Theta_e
341 342 338 340 341 340 340 339 339 338 338 337 336 335 334 333 331 330 329 329 328 327 326 325 326 325 325 328 328 329 330 331 331 328 326 325 326 332 332 331 335 341 336
342 343 338 339 340 340 339 338 338 338 338 338 338 338 336 334 332 330 328 327 326 326 326 328 333 329 326 334 330 329 328 328 329 328 324 323 325 326 329 331 335 338 334
341 341 341 339 339 339 339 338 338 338 338 338 338 336 334 333 332 331 329 328 327 327 328 328 333 332 335 338 336 331 329 327 328 327 324 329 335 330 326 329 331 336 332
341 341 343 338 339 339 340 339 338 337 335 335 334 334 334 333 332 330 329 328 325 325 330 334 336 333 331 333 333 333 330 329 329 328 330 331 334 333 325 328 330 332 332
338 340 339 340 340 340 341 341 339 337 334 334 334 334 336 335 334 331 326 321 321 325 328 329 328 329 330 329 329 328 327 328 329 330 332 334 333 333 327 326 328 328 328
334 338 336 340 341 342 342 342 341 339 338 335 333 332 331 330 327 323 321 321 322 323 324 324 325 325 324 324 325 329 326 324 324 330 332 334 332 332 326 331 329 333 333
329 331 337 334 334 333 334 334 334 333 332 329 326 327 326 324 323 321 320 317 315 317 318 321 322 323 324 325 325 325 324 326 327 330 330 332 334 332 329 327 326 329 329
328 330 330 324 325 326 327 326 326 326 326 325 324 324 325 324 323 321 319 316 314 315 316 317 317 317 318 320 323 325 327 325 327 330 331 331 330 331 329 328 328 324 322
327 330 330 330 329 322 322 322 323 323 323 324 324 323 323 322 322 320 317 316 313 312 313 313 312 311 312 314 317 320 323 325 326 327 329 329 329 327 327 328 329 328 326
326 330 332 331 330 332 332 322 322 321 321 322 322 322 322 328 326 324 323 320 315 315 314 313 311 310 309 309 312 316 320 323 327 325 327 327 325 325 326 326 326 328 329
328 331 332 332 330 330 328 325 325 324 324 326 329 329 330 330 328 327 326 322 316 316 317 318 316 313 313 317 317 316 316 323 323 324 326 325 323 324 326 326 327 328 327
332 331 334 334 332 330 325 327 326 326 329 330 330 330 329 329 328 326 327 326 325 325 323 322 321 321 320 319 318 319 319 319 319 321 322 321 321 319 323 323 324 326 326
331 330 333 337 333 329 326 327 327 326 326 328 330 330 328 328 328 327 326 326 326 325 323 322 323 322 321 318 317 316 317 317 316 316 318 316 313 318 320 320 321 322 326
330 329 334 337 332 330 328 327 327 326 326 326 327 328 327 326 326 325 323 322 320 320 321 321 321 321 319 314 312 313 313 312 310 312 314 311 307 311 314 317 319 320 321
328 329 332 335 330 328 329 329 329 328 327 326 326 325 325 324 324 322 320 319 317 317 318 319 318 318 316 312 310 312 311 311 311 311 311 310 304 304 305 307 310 314 317
327 330 332 334 331 326 326 329 329 326 324 323 322 321 322 323 322 320 318 317 317 317 317 317 318 318 315 312 311 311 312 310 310 311 310 310 307 303 304 305 305 308 312
329 329 333 334 329 325 326 326 323 320 320 320 320 320 320 320 320 320 319 318 317 317 317 317 318 318 317 315 312 311 311 311 310 310 310 309 308 304 303 304 305 305 306
328 329 332 332 326 323 324 322 321 321 320 321 320 319 320 320 320 320 318 318 317 318 318 317 317 317 317 316 314 312 311 311 310 310 310 309 308 309 306 302 303 303 304
327 328 330 331 323 322 323 322 322 321 320 318 317 317 317 317 317 317 317 317 317 318 318 318 317 317 317 316 316 314 312 311 311 310 310 309 309 308 309 308 303 302 302
326 326 328 329 321 321 323 322 319 318 318 317 317 316 316 316 317 317 317 317 317 317 317 317 319 318 318 317 316 315 315 312 311 311 311 309 309 309 308 309 305 303 303
328 326 326 325 323 321 320 318 316 316 316 316 316 316 316 315 314 313 313 313 314 314 315 315 316 316 317 316 318 318 317 314 313 311 312 311 310 309 308 309 309 308 306
327 327 325 322 318 317 316 316 315 315 315 315 315 313 313 312 312 311 311 311 310 311 311 312 313 315 315 315 316 317 318 316 315 314 312 312 311 310 309 309 309 308 307
322 321 319 318 316 315 314 314 314 314 313 313 313 312 312 311 310 309 308 308 309 309 309 310 310 310 312 312 312 314 316 316 316 313 315 313 312 311 309 309 309 307 305
319 317 316 315 314 313 313 313 313 312 312 312 312 311 310 308 307 306 307 307 307 307 307 307 306 308 308 309 309 309 310 312 315 315 313 313 311 310 310 309 308 305 303
317 317 316 315 313 313 312 311 312 312 313 312 311 309 307 306 306 305 305 305 305 305 305 306 306 306 305 306 306 307 307 307 308 308 311 312 311 310 308 308 307 304 304
317 316 315 314 313 313 312 312 313 312 311 309 308 307 306 305 304 304 303 304 304 304 304 304 304 304 303 302 302 301 301 301 301 301 303 306 308 308 308 306 303 303 304

GFSSE_925_thetae_006.txt.gz
Theta_e
343 340 340 341 340 340 339 339 338 338 337 336 335 334 333 333 332 329 328 327 327 327 326 326 325 325 326 326 333 329 328 330 330 329 327 323 322 327 329 330 336 337 334
343 339 339 340 340 339 338 338 338 338 338 337 337 336 335 333 332 330 328 328 327 327 327 328 328 328 330 333 330 331 329 328 328 329 327 323 330 324 325 325 333 335 331
342 340 339 339 339 339 338 338 337 338 338 338 337 336 334 333 332 331 329 327 325 323 328 334 335 330 328 331 332 332 332 329 327 326 326 325 331 333 325 326 328 333 332
343 343 341 338 338 339 339 338 337 336 335 334 334 334 333 333 332 331 328 321 320 323 327 326 327 331 329 329 329 328 330 330 329 328 327 330 334 332 329 326 328 328 329
344 341 337 338 339 340 341 339 338 334 333 333 334 335 334 334 331 326 321 321 321 324 324 325 324 324 324 324 325 326 326 327 328 328 328 331 331 329 324 326 326 328 326
341 336 338 340 341 342 341 341 340 338 336 333 331 330 329 327 324 322 320 318 316 314 316 318 321 322 322 323 324 324 323 325 325 324 327 330 330 328 326 327 331 333 334
335 332 334 334 334 334 333 332 333 332 329 326 324 324 323 323 322 320 318 313 311 312 313 314 315 314 314 315 317 319 323 324 323 325 329 330 329 324 326 327 327 330 331
333 330 326 325 324 323 324 325 325 324 324 323 323 322 323 322 321 320 317 315 312 311 311 311 311 310 310 310 311 313 314 316 319 327 330 330 328 328 328 328 327 326 327
329 329 329 323 320 320 321 322 322 322 322 321 321 321 320 322 323 321 318 313 312 312 313 313 312 310 309 308 308 309 311 313 320 327 327 328 328 328 326 327 327 328 326
330 331 331 331 332 333 323 320 320 320 320 320 323 324 327 329 328 326 324 321 317 313 316 317 317 314 313 313 317 317 315 316 326 323 325 324 325 325 324 325 326 327 328
330 331 330 330 330 332 329 323 326 321 326 330 330 329 330 330 329 328 325 325 324 324 323 322 321 321 319 320 319 318 318 321 323 322 325 324 324 323 322 324 325 326 327
330 331 333 331 330 326 327 328 327 328 329 330 330 329 330 328 328 327 328 327 326 326 323 324 322 322 322 321 318 318 319 319 318 316 319 320 319 316 319 321 322 323 325
331 331 336 333 330 329 325 328 328 328 327 329 331 330 329 327 327 326 325 326 323 323 325 322 323 322 322 320 316 316 316 316 316 317 316 317 316 310 313 318 320 321 322
330 330 336 334 330 329 329 328 327 327 325 326 326 328 326 325 325 323 322 320 319 318 318 320 320 320 319 318 314 312 312 313 312 310 312 314 313 306 311 316 318 319 320
330 330 333 333 329 330 325 329 329 327 327 323 326 325 324 324 323 321 320 318 317 317 317 317 317 318 318 316 313 311 311 312 311 310 311 312 311 309 305 308 313 313 317
329 331 333 333 328 326 328 329 329 326 324 323 322 320 322 322 322 320 319 319 318 318 317 317 317 318 319 318 316 313 312 311 311 311 311 312 311 310 306 305 309 312 311
327 329 336 330 328 325 326 327 326 321 320 321 320 320 320 320 320 320 320 319 319 318 318 317 318 318 317 318 317 316 314 312 312 311 310 311 311 309 308 304 304 310 311
329 330 331 333 327 324 325 323 322 322 321 321 321 319 320 320 319 319 319 318 318 318 318 319 318 318 319 318 317 317 316 314 312 312 311 310 310 309 308 307 303 304 304
327 329 333 329 326 323 324 323 322 321 321 319 318 318 317 317 317 317 317 317 317 317 318 319 319 319 320 319 319 318 316 316 314 312 312 311 310 309 310 309 307 304 303
326 327 331 329 323 323 323 323 320 319 318 318 317 317 317 316 316 314 314 314 314 316 315 316 317 315 315 315 317 317 317 316 316 315 313 312 311 310 309 309 309 305 302
327 326 326 324 323 322 322 319 317 316 316 316 316 314 313 313 313 312 311 311 310 311 312 311 311 311 312 313 314 316 314 314 316 317 315 314 312 311 310 309 309 308 305
326 325 324 322 319 317 317 316 315 315 315 314 314 313 313 312 311 310 309 309 310 309 309 309 310 310 309 309 312 312 311 311 312 312 313 314 314 312 311 310 309 309 308
321 320 318 317 315 314 315 314 314 314 313 313 313 313 312 312 311 308 307 307 307 307 307 307 308 308 309 307 307 309 309 309 309 309 311 311 311 312 313 312 310 309 310
318 317 316 315 314 313 313 313 313 313 313 314 314 313 311 309 307 306 305 305 305 305 305 306 306 306 306 307 306 306 304 303 305 306 308 308 308 310 311 312 311 310 310
318 317 316 315 314 314 313 312 313 314 313 312 310 310 308 307 305 304 304 303 304 303 304 305 304 304 305 304 303 301 301 299 300 300 302 300 301 303 305 309 308 309 306
317 316 315 314 314 314 314 314 312 309 309 309 309 308 305 304 303 303 302 302 303 303 302 304 303 303 302 301 300 300 299 299 298 297 298 297 298 299 301 301 305 304 304

GFSSE_925_thetae_009.txt.gz
Theta_e
341 341 340 340 339 339 338 338 338 336 335 334 333 333 334 333 331 329 328 327 327 327 326 326 326 326 328 335 332 331 329 327 329 331 329 328 329 326 329 331 337 336 334
340 341 340 339 338 338 338 337 338 337 336 336 336 336 334 333 331 330 329 328 325 322 319 320 322 325 326 328 329 329 330 329 328 327 327 325 329 330 328 329 335 331 334
339 340 340 339 338 337 337 337 338 338 338 337 336 335 333 332 331 329 325 320 319 318 320 322 324 327 327 327 327 326 326 329 329 328 327 328 330 332 328 327 330 332 332
339 338 339 338 338 338 338 337 336 335 334 334 333 333 333 332 330 324 320 318 316 316 316 318 321 322 323 323 323 323 325 326 327 328 328 329 330 330 328 328 328 328 331
337 337 337 338 339 339 338 336 334 333 333 333 335 331 329 327 323 320 317 313 312 312 313 315 316 318 319 319 319 320 321 322 324 324 328 329 329 328 325 325 328 328 330
337 336 338 339 340 340 339 338 337 336 333 330 328 325 323 322 320 318 315 311 311 311 312 312 312 311 311 311 311 312 314 319 322 324 328 329 328 327 321 322 325 327 330
337 337 338 339 337 335 334 333 331 328 325 323 321 321 321 320 319 318 315 312 310 310 310 310 310 309 309 309 308 308 309 310 313 324 328 329 327 324 321 324 326 329 329
329 331 330 328 327 326 325 324 323 322 321 320 320 319 319 319 318 317 312 310 309 310 311 311 310 309 309 308 308 310 308 310 316 326 329 328 327 327 326 328 327 327 325
323 321 322 320 319 319 320 321 320 319 318 318 319 319 323 325 323 322 323 321 318 313 319 317 318 316 313 312 317 317 317 312 325 326 327 326 327 327 327 326 327 328 328
329 329 326 330 327 321 314 317 317 318 319 321 323 326 329 328 327 326 324 325 324 324 322 321 321 321 319 320 319 318 318 318 322 323 325 325 324 324 324 325 326 326 326
331 330 331 331 332 324 324 320 323 329 329 330 328 330 330 329 327 327 326 327 325 324 323 322 322 322 322 321 320 317 317 318 320 319 319 324 323 323 322 322 324 325 325
331 331 330 329 331 328 327 326 327 328 329 329 328 330 329 328 327 327 327 327 323 323 323 320 321 321 322 321 319 313 315 316 316 316 316 318 319 317 315 312 320 322 324
331 332 331 329 327 328 327 327 327 329 330 329 330 327 328 327 327 324 323 320 319 319 320 318 320 320 320 319 318 314 311 310 312 314 311 316 315 315 314 306 315 321 322
331 334 332 328 328 326 324 328 327 328 328 330 327 328 326 325 324 322 320 318 318 317 317 318 319 317 318 318 316 314 312 311 311 310 310 310 312 313 310 306 308 313 318
332 335 333 324 321 327 329 328 328 327 327 324 326 325 320 324 322 320 319 318 318 318 317 317 317 317 317 318 317 316 313 313 312 311 310 310 311 311 311 310 305 307 311
332 336 332 329 327 324 328 329 327 326 322 324 323 321 318 319 321 320 319 319 318 319 319 318 317 317 318 318 318 318 317 314 313 312 311 310 310 311 311 310 308 305 308
330 334 330 328 329 327 329 327 328 323 320 321 320 320 320 319 320 319 319 319 317 317 318 317 317 318 318 317 318 318 318 317 316 313 312 311 310 310 310 309 309 307 305
332 333 327 323 326 325 327 324 321 321 320 321 320 320 320 319 319 317 316 315 316 316 316 316 317 318 318 318 317 317 317 317 316 315 313 312 311 310 310 309 309 308 307
331 333 329 327 326 325 324 322 322 321 319 319 318 317 316 316 316 314 312 311 312 312 312 313 313 311 311 310 311 312 314 315 316 315 315 315 313 311 310 310 309 309 308
328 330 327 329 326 324 322 322 322 320 317 316 315 314 314 313 313 312 311 311 310 309 310 310 309 309 309 310 310 310 312 312 314 312 313 312 314 314 312 310 309 309 308
330 329 328 326 323 322 322 317 315 315 315 314 313 313 313 313 312 312 311 309 309 309 307 307 307 305 307 308 308 308 308 308 309 309 309 311 311 312 313 312 310 309 309
322 319 316 316 315 315 315 314 314 315 314 314 314 313 313 312 312 309 307 306 306 306 305 305 304 306 307 306 307 307 305 307 307 307 307 307 308 307 309 310 311 309 309
316 315 315 314 314 314 314 314 313 313 313 313 313 313 310 309 307 305 304 304 303 305 304 303 303 305 305 305 306 305 303 304 301 304 303 305 301 303 303 302 308 310 309
316 315 314 314 314 313 313 313 312 313 314 313 311 309 309 305 304 303 303 302 302 302 303 303 303 305 304 304 304 303 301 299 300 299 299 298 300 297 297 298 301 305 308
316 316 315 314 314 314 313 313 312 312 309 309 310 306 305 304 302 302 302 301 301 302 302 302 303 302 302 302 301 300 300 299 298 297 296 296 296 296 296 297 297 299 305
316 316 315 315 315 314 314 313 311 310 309 307 306 305 304 302 302 301 301 301 302 302 301 300 300 301 301 300 300 299 298 298 297 296 296 295 295 295 294 294 297 298 300

GFSSE_925_thetae_012.txt.gz
Theta_e
342 340 339 340 340 339 338 336 335 334 334 333 334 334 333 331 330 329 328 326 324 326 335 333 330 331 331 329 328 328 329 328 328 329 328 324 327 327 325 327 335 335 334
341 340 339 339 338 338 337 337 336 335 335 336 335 333 331 330 329 327 324 319 317 317 321 322 331 332 327 327 326 325 325 328 328 327 326 325 328 330 327 327 330 332 334
340 339 338 338 337 337 337 337 337 337 337 335 334 332 331 329 326 320 318 314 311 312 315 318 320 321 322 322 323 324 325 326 328 327 327 327 329 330 329 327 325 328 332
340 339 338 337 337 337 337 337 336 335 334 333 332 331 327 323 320 317 314 309 309 311 312 313 314 315 316 317 318 320 321 323 324 325 326 328 329 329 329 326 325 326 329
339 338 338 338 337 336 335 334 333 332 333 331 326 324 322 320 318 316 311 309 310 310 311 311 311 310 310 310 310 311 314 320 323 325 327 328 328 327 325 325 324 326 329
338 338 338 338 337 336 335 333 333 333 330 326 322 321 320 319 317 315 312 309 309 309 310 310 309 309 309 309 308 307 309 311 319 325 327 328 328 324 326 322 325 327 330
338 338 339 339 337 337 336 335 331 328 324 320 320 320 319 317 316 315 309 308 308 309 310 310 310 309 309 308 309 310 309 311 316 326 328 328 327 326 324 320 325 324 327
338 340 339 336 333 330 328 326 323 321 319 319 319 318 321 319 321 315 320 319 314 314 319 317 318 317 314 312 316 317 317 314 324 326 327 327 327 327 327 325 328 326 326
334 331 328 325 323 321 321 319 319 318 318 318 318 322 326 326 324 323 324 323 323 322 321 320 321 320 318 318 317 317 317 318 322 322 325 325 325 325 325 326 326 326 327
323 321 320 319 316 314 316 317 316 317 319 319 327 328 327 326 325 326 325 325 324 323 322 321 321 321 320 319 318 313 316 318 320 319 318 324 324 324 323 323 325 326 326
322 323 326 326 319 316 314 316 320 327 326 327 329 329 328 327 326 326 326 326 324 323 323 321 320 321 321 319 318 315 311 313 316 316 316 317 321 322 318 316 317 324 325
328 328 330 329 325 324 320 327 327 326 328 327 329 329 328 327 328 327 326 324 322 321 320 319 319 320 320 319 318 316 313 311 309 313 315 312 318 318 316 314 309 315 321
330 330 330 329 328 327 326 327 327 328 328 327 329 327 327 327 327 324 322 319 318 317 317 318 319 318 316 317 318 317 315 314 313 309 311 312 311 312 313 312 309 308 315
331 330 329 327 328 327 327 327 327 328 329 330 328 328 326 325 323 321 320 317 318 317 317 317 317 316 316 317 317 318 317 315 314 313 312 310 309 309 310 311 310 309 306
330 330 328 328 327 326 326 327 327 327 328 330 328 325 321 323 321 320 319 319 318 319 318 319 318 317 317 318 318 318 318 318 316 314 313 312 311 310 309 309 310 310 308
332 331 329 327 328 329 328 327 327 326 323 326 324 323 318 317 320 319 319 319 317 317 317 316 317 317 316 318 318 318 318 318 317 314 312 312 311 310 310 310 310 309 308
333 332 327 324 326 324 328 328 326 323 323 322 321 320 320 319 320 319 317 315 313 313 314 314 315 316 315 313 311 310 311 311 313 315 315 315 313 311 310 310 310 310 308
334 332 329 325 327 328 329 327 327 320 320 320 320 320 320 320 318 316 312 311 311 311 311 311 311 311 310 309 309 309 310 310 312 311 311 314 314 313 311 311 310 310 309
334 330 327 324 327 326 327 324 321 320 319 317 318 317 316 316 315 314 313 313 311 310 309 309 308 307 306 305 306 306 307 307 308 310 309 310 310 311 312 312 311 310 310
328 326 324 326 324 325 323 322 320 317 316 314 314 314 313 312 312 312 311 310 309 309 308 307 306 306 304 304 304 303 303 302 302 308 308 307 307 308 310 310 310 309 309
325 325 325 327 326 322 317 318 315 315 314 313 312 312 313 313 311 311 308 307 306 306 305 304 304 303 303 303 305 304 304 303 307 305 305 304 304 302 304 306 305 310 310
321 324 319 317 318 315 316 315 315 314 313 313 313 312 310 307 306 306 304 303 303 303 303 303 303 304 304 304 305 305 302 303 303 303 303 302 302 299 298 297 298 301 307
315 314 313 314 314 314 313 313 313 313 313 313 312 310 308 306 304 303 302 302 301 301 302 302 302 302 304 304 304 304 301 301 299 301 300 300 299 298 296 296 296 297 298
314 314 314 314 314 314 313 314 314 313 313 310 309 308 305 304 302 302 301 301 300 301 302 302 302 302 302 302 302 302 301 300 300 299 299 298 297 296 295 295 294 296 298
315 314 314 314 313 313 313 313 313 312 309 309 307 305 304 302 301 301 300 300 300 300 300 299 299 300 300 300 300 300 299 299 298 296 296 295 295 295 294 294 294 296 298
315 315 314 315 313 313 313 313 311 309 308 306 304 303 302 301 301 301 300 298 297 297 297 297 297 297 297 296 297 297 296 297 296 296 295 295 294 294 294 294 294 294 297

GFSSE_925_thetae_015.txt.gz
Theta_e
341 341 340 340 338 337 335 334 333 333 333 334 333 332 330 329 328 325 322 320 322 329 333 333 332 324 324 324 325 325 327 327 327 328 328 324 327 328 326 328 333 332 333
340 340 340 339 338 337 336 335 334 334 335 334 332 331 329 327 322 318 316 315 322 330 329 325 325 323 323 324 324 324 325 327 327 326 326 327 327 330 329 326 328 332 333
339 339 339 338 337 337 336 335 335 336 335 333 331 329 325 320 318 314 310 309 311 317 320 316 316 317 318 319 320 320 322 324 326 327 326 328 328 330 330 328 326 327 332
339 338 338 337 337 337 337 336 336 336 333 331 329 324 320 318 315 312 308 309 309 310 310 310 310 310 311 311 311 313 319 321 323 324 326 327 326 326 327 327 324 326 328
338 337 337 336 337 337 336 336 334 332 331 328 324 320 318 316 315 312 308 308 309 309 309 309 309 309 309 309 308 309 311 314 321 324 327 328 328 327 325 327 325 325 326
338 338 337 337 336 335 334 332 331 332 327 322 319 318 317 316 314 311 308 308 309 309 310 311 309 309 308 308 312 311 310 312 316 323 326 327 327 325 323 323 322 324 327
339 338 337 336 335 334 332 333 331 326 322 319 318 317 315 315 312 310 312 310 311 318 318 318 318 316 313 316 316 317 316 317 323 327 327 327 327 327 327 323 324 325 326
338 339 338 336 335 335 333 329 324 321 319 317 316 318 319 317 318 321 322 321 321 320 320 320 319 318 317 317 314 316 317 319 322 322 325 325 326 326 326 326 327 326 327
338 338 337 334 330 327 324 322 320 318 316 316 318 324 325 322 324 324 324 323 321 321 319 319 319 318 318 317 316 311 313 318 319 318 318 320 324 323 322 322 322 324 325
337 332 326 323 321 320 319 319 317 316 317 319 324 326 325 325 325 325 325 324 323 322 321 319 320 319 318 318 317 315 312 309 311 315 316 315 319 322 323 319 315 316 323
329 321 319 316 315 315 316 315 316 318 319 326 327 327 326 326 326 326 325 325 323 321 321 321 320 319 318 317 317 316 315 314 312 309 310 314 314 319 323 319 315 310 313
324 321 323 318 316 314 315 318 324 324 327 328 329 328 327 327 327 326 324 323 321 319 318 318 319 319 317 316 317 317 317 316 316 315 313 310 311 311 312 314 313 310 307
323 324 325 321 321 319 324 325 326 328 327 328 328 327 327 326 326 324 321 318 318 317 317 317 317 317 316 316 317 317 317 317 317 316 316 314 313 311 309 310 312 311 312
325 328 328 326 324 323 325 326 327 327 328 329 327 326 325 325 323 321 318 318 318 318 318 318 318 317 317 317 318 317 317 317 317 316 315 314 314 313 312 311 315 316 314
328 328 329 328 326 326 325 327 327 327 329 329 328 326 324 323 322 319 318 318 318 317 317 316 315 315 315 314 316 317 316 315 316 317 316 315 313 313 312 311 311 312 316
329 330 329 329 327 327 327 327 327 327 327 329 327 325 320 322 320 319 318 318 315 313 312 312 311 312 314 313 313 312 311 310 310 312 313 313 314 314 313 311 311 311 311
330 330 329 329 327 326 327 327 326 326 324 326 326 322 320 320 320 319 316 312 311 311 311 311 310 310 310 309 308 308 307 308 310 310 311 311 312 312 312 312 312 310 310
330 329 328 327 327 327 327 326 324 322 323 323 321 319 320 319 317 313 312 312 311 311 310 309 308 307 306 305 305 303 302 302 302 302 303 307 308 309 310 310 311 312 311
331 329 327 326 325 327 325 323 320 318 318 318 318 316 314 314 313 312 311 311 310 309 308 306 305 304 304 304 303 302 301 300 301 302 307 306 306 306 307 307 307 309 311
328 327 325 326 325 325 324 320 316 316 314 314 313 312 312 312 312 311 310 308 307 306 305 304 303 303 302 303 302 302 301 300 301 305 303 303 303 303 302 301 301 301 302
326 325 326 326 324 320 316 315 314 313 313 312 312 312 312 309 308 307 306 304 303 302 302 301 301 301 301 302 303 302 302 302 302 302 302 301 301 300 299 298 298 297 298
324 321 319 322 318 316 318 318 314 313 312 313 312 310 308 307 306 304 303 302 302 301 300 301 302 302 302 302 303 302 300 302 301 302 300 300 299 298 297 297 296 295 295
315 314 314 314 314 313 313 313 313 313 313 313 310 308 305 303 303 303 302 301 300 300 300 300 300 300 300 300 301 302 300 299 298 300 299 299 297 296 296 295 294 294 294
313 313 313 313 313 313 313 313 313 313 313 311 308 303 303 302 301 301 300 300 300 299 299 298 298 298 299 299 299 300 299 299 299 298 297 297 296 295 295 294 294 294 295
314 313 313 313 313 313 312 312 312 311 308 307 304 303 302 301 301 303 304 301 299 297 296 295 295 296 296 296 296 296 296 296 296 296 296 294 295 295 295 294 294 294 294
312 312 312 313 312 312 312 311 310 307 305 304 303 304 304 304 305 303 301 297 295 293 292 293 293 293 293 292 293 294 294 294 294 294 295 294 294 294 294 294 293 293 293

GFSSE_925_thetae_021.txt.gz
Theta_e
342 341 337 333 331 331 331 332 333 332 331 330 329 328 326 322 319 318 317 319 323 329 329 325 324 322 321 321 322 323 323 324 325 326 325 326 331 334 327 327 331 333 331
340 340 337 334 332 332 332 332 334 333 331 329 326 322 318 315 311 311 319 321 328 328 327 320 312 310 311 313 315 318 320 322 324 325 326 327 329 332 331 327 326 329 330
340 340 338 335 333 333 333 333 334 332 330 325 321 317 314 310 310 312 315 322 325 325 321 317 310 308 308 307 308 308 310 316 321 324 326 329 329 330 332 327 325 326 330
340 340 338 335 334 334 333 335 334 331 327 322 318 315 312 309 309 310 312 313 315 316 313 309 308 310 313 313 313 311 311 312 318 324 329 330 328 327 331 326 324 326 327
340 339 337 336 335 334 334 335 332 329 324 319 316 314 311 309 309 310 310 313 316 318 317 313 314 314 313 314 315 315 318 320 325 327 328 328 328 330 330 325 327 325 327
339 338 337 336 335 335 336 335 330 327 321 317 316 314 311 308 308 309 317 318 318 317 315 316 314 313 311 311 313 317 321 321 323 326 326 324 328 329 329 325 325 325 325
338 337 337 336 335 336 336 331 328 324 319 317 315 314 309 310 312 318 318 317 317 317 317 316 316 316 315 313 311 311 312 314 319 320 321 320 325 327 328 320 319 320 323
338 337 337 336 336 335 331 330 326 321 317 317 315 313 315 318 318 320 319 318 318 318 317 317 316 316 316 316 315 314 314 312 311 313 316 316 315 319 327 319 316 313 311
337 337 337 337 335 331 330 330 324 319 317 317 317 316 320 322 321 320 321 320 319 318 318 317 316 315 315 316 316 315 316 315 315 314 313 314 312 312 320 322 314 312 310
337 338 336 334 333 332 332 328 322 318 317 321 321 320 322 323 324 322 321 320 320 318 317 317 316 316 315 315 316 316 316 316 316 315 314 313 312 314 320 315 312 311 310
336 336 338 334 333 332 329 325 320 317 318 323 323 323 324 324 324 324 322 320 318 318 317 317 317 316 316 315 315 316 316 315 315 316 316 315 313 313 315 316 314 314 313
335 337 337 334 332 327 323 320 319 319 320 324 325 325 325 325 325 324 322 319 318 317 317 317 317 317 316 314 313 313 314 315 316 316 317 317 316 315 314 317 317 317 317
335 335 332 329 325 322 321 319 319 319 324 326 327 327 326 326 326 325 320 317 317 317 317 317 317 315 313 312 312 312 313 314 314 314 315 316 316 316 315 316 316 317 317
332 331 326 323 321 320 319 319 320 324 326 327 327 327 327 326 324 321 317 317 317 316 315 314 313 311 311 310 310 310 310 310 311 311 311 311 311 312 314 314 315 316 317
328 325 323 321 320 319 320 322 324 326 326 327 328 327 325 323 320 318 318 317 315 312 311 311 310 310 309 308 308 307 305 304 303 305 306 306 307 309 311 312 313 313 313
324 324 324 322 321 321 323 324 325 325 326 325 327 327 325 322 319 318 316 312 311 311 311 310 309 308 307 306 305 304 303 304 302 301 303 304 301 302 306 309 309 310 310
325 325 325 325 323 323 325 325 325 319 319 320 324 323 321 320 318 314 313 312 312 312 310 308 307 306 305 305 305 304 303 303 302 299 300 300 303 304 305 305 304 304 305
327 327 326 326 325 325 325 325 325 321 320 321 321 320 319 316 314 313 312 311 309 307 305 305 304 304 304 303 303 303 303 302 302 303 305 304 303 303 302 302 302 301 301
327 327 325 325 325 322 322 320 323 322 318 316 315 314 314 313 312 312 311 308 305 304 303 302 302 301 302 302 302 302 302 300 301 303 304 302 301 300 300 300 299 298 298
326 325 326 324 324 324 323 324 319 315 313 312 314 312 311 311 309 308 306 304 303 302 301 302 302 302 302 302 300 301 300 299 302 303 302 301 300 300 299 298 298 297 296
324 324 325 326 325 325 321 317 313 312 313 313 310 310 309 307 305 305 303 302 302 304 303 301 301 301 300 300 298 298 298 301 302 301 300 299 299 299 298 298 297 297 296
326 325 325 325 324 320 314 314 315 314 312 310 308 308 306 305 304 303 303 304 304 302 300 299 298 299 299 299 297 297 299 298 300 299 298 298 297 297 297 297 296 296 296
323 324 323 317 314 313 314 315 313 311 311 309 306 305 304 304 304 303 302 303 301 299 300 298 298 297 296 296 296 297 298 298 296 295 296 296 296 296 296 296 295 295 295
320 321 316 314 314 312 311 311 311 311 311 307 306 305 304 304 303 302 302 302 300 298 296 296 295 294 294 293 293 295 294 295 295 295 294 294 293 293 294 293 293 294 294
311 311 311 311 311 311 311 310 309 307 306 305 304 304 303 302 301 301 301 301 299 296 293 291 292 293 293 292 292 292 292 292 292 294 293 292 291 291 292 291 291 291 293
310 311 311 310 308 308 308 307 304 301 302 303 303 303 302 302 301 301 301 300 297 293 292 292 290 290 292 292 291 291 291 291 291 291 292 291 291 290 289 290 290 290 290

GFSSE_925_thetae_024.txt.gz
Theta_e
342 339 332 330 331 331 331 331 330 329 329 329 329 328 325 320 318 316 317 321 324 329 329 326 319 317 316 316 317 318 321 323 324 325 327 328 334 335 328 326 331 333 332
342 339 332 331 331 331 332 332 332 331 330 329 326 320 316 314 312 316 319 321 326 325 322 314 310 308 308 308 308 309 313 319 323 325 328 331 330 334 332 326 325 330 332
342 340 336 332 332 332 332 333 333 331 329 324 319 315 311 311 312 316 318 319 322 322 321 314 310 311 312 313 311 310 311 316 323 328 329 329 331 332 330 324 325 326 327
342 340 338 332 332 332 333 334 332 330 325 319 315 311 310 311 312 314 315 317 318 319 317 313 314 314 314 314 316 318 319 323 324 329 329 329 330 330 329 329 324 325 327
342 341 339 333 333 333 334 334 332 326 321 317 314 311 310 311 311 312 316 318 318 317 315 313 311 310 311 313 317 321 321 323 325 326 327 327 328 329 329 323 328 327 326
342 341 338 334 334 334 335 334 330 324 320 317 315 311 310 310 311 318 318 318 316 316 315 315 315 313 311 311 311 310 311 317 320 321 323 326 327 330 328 317 316 320 325
339 340 338 335 334 334 335 333 328 322 319 318 316 312 309 310 318 318 317 317 316 316 316 316 316 316 315 315 314 314 312 312 314 315 317 320 323 328 328 322 315 312 314
341 340 339 335 335 334 336 331 326 321 319 317 315 311 314 316 319 318 317 318 317 317 316 316 316 316 316 316 316 315 315 314 315 314 315 316 313 323 324 323 315 312 309
341 340 338 337 334 334 333 330 324 319 318 317 314 318 319 319 320 320 319 319 319 318 317 316 316 315 315 316 316 315 315 315 317 316 315 315 313 320 322 321 314 311 312
340 340 339 338 337 336 335 329 322 320 319 319 317 320 322 322 321 321 321 321 320 319 318 317 316 316 315 314 314 313 314 317 317 317 317 316 314 314 320 320 315 314 313
339 338 338 336 336 335 333 331 323 319 320 322 321 321 324 327 327 326 321 320 318 318 317 317 316 316 316 316 315 314 316 316 317 316 317 316 316 316 316 316 316 316 316
338 337 335 337 335 334 330 329 326 324 326 329 329 328 329 329 328 326 323 318 317 317 317 317 317 316 317 317 316 316 315 316 315 315 316 315 315 315 320 320 318 317 319
337 335 334 336 333 329 327 325 324 325 329 330 330 330 331 330 330 328 324 321 321 319 320 320 319 317 317 316 315 315 314 313 313 313 315 311 311 311 313 320 321 321 319
336 333 332 330 329 327 324 323 325 328 330 330 331 332 330 329 329 328 321 321 321 320 320 318 317 316 315 314 313 312 311 311 310 310 311 309 306 307 309 313 318 318 318
330 329 328 327 325 325 325 327 329 329 329 330 330 329 328 327 326 323 322 320 319 318 317 316 316 315 313 312 311 310 309 309 308 308 307 307 305 301 302 306 309 312 313
326 328 327 326 325 326 327 328 328 325 320 321 321 322 325 323 324 322 320 318 317 316 316 315 314 312 311 311 310 309 309 308 308 307 307 307 307 305 304 304 304 305 306
325 328 329 327 326 327 328 326 321 320 319 320 320 320 322 322 320 319 317 317 316 314 313 312 311 310 309 309 308 308 307 308 307 307 307 307 307 307 304 303 302 301 302
327 330 329 327 326 328 327 322 319 319 321 321 321 321 320 316 314 316 315 314 312 310 310 309 309 308 308 308 307 307 306 307 306 306 306 308 307 306 305 303 301 299 299
330 330 329 328 327 322 321 322 321 321 322 318 319 316 312 312 311 310 311 310 309 308 308 307 308 308 308 307 307 305 304 304 303 301 304 306 305 304 303 302 300 299 299
331 330 329 328 324 324 321 318 321 318 315 314 313 312 311 311 311 310 309 308 307 308 308 308 307 307 305 305 303 301 301 300 300 302 304 303 302 302 301 301 300 299 298
330 329 329 326 327 325 324 322 318 317 315 312 312 310 310 309 308 308 307 308 308 307 306 305 304 303 302 302 302 300 300 300 302 303 302 301 301 300 300 299 299 298 298
328 328 328 328 328 326 322 319 318 318 316 312 310 309 308 308 307 307 306 306 305 303 304 304 303 302 301 300 300 299 301 300 299 301 298 299 298 298 298 297 297 297 297
329 329 329 328 326 319 319 319 318 316 313 312 311 310 308 307 306 305 304 303 302 301 301 302 301 300 299 298 297 297 300 300 297 296 297 296 297 296 295 295 295 295 295
329 328 323 320 318 318 316 315 316 316 316 312 310 308 307 305 304 303 303 303 302 301 301 300 298 298 297 297 296 296 295 295 297 297 295 295 294 294 294 293 294 293 293
324 321 318 316 315 315 315 314 313 312 310 308 307 306 305 304 304 304 303 303 303 302 300 298 297 297 296 296 295 294 294 294 293 294 295 294 293 293 293 292 291 291 291
317 316 315 314 313 312 311 310 309 307 305 304 304 304 303 302 303 303 303 302 302 301 299 298 298 297 296 294 293 293 293 293 293 292 293 292 292 291 291 291 290 291 290

GFSSE_925_thetae_027.txt.gz
Theta_e
339 335 329 328 330 330 327 326 326 327 328 330 330 328 324 321 321 320 324 327 329 328 325 322 315 310 309 308 309 312 318 322 325 327 330 330 335 335 327 326 331 334 330
339 335 330 330 329 328 328 329 329 330 330 329 324 319 318 316 318 319 318 318 320 323 317 311 309 311 312 311 312 312 315 321 324 326 331 331 328 333 327 324 325 330 332
340 336 333 331 331 331 331 331 331 331 328 322 318 315 312 315 315 315 314 315 322 322 321 323 321 315 314 316 317 317 319 322 328 328 328 333 331 329 332 327 325 325 330
340 336 336 332 332 332 333 333 331 328 323 318 314 312 311 313 313 313 315 319 321 323 324 322 315 312 315 318 320 320 323 325 326 327 326 327 329 327 327 329 328 325 329
339 337 337 332 332 333 334 333 330 325 320 316 313 311 311 313 313 317 319 321 323 324 322 316 311 310 311 311 311 313 320 321 323 325 326 325 326 329 326 316 323 326 325
340 339 336 332 332 334 334 332 328 322 319 317 314 314 316 314 319 319 319 320 321 319 316 315 314 314 314 314 313 312 313 314 317 319 321 325 326 329 327 317 314 311 320
338 339 334 333 333 334 334 331 326 321 318 317 315 315 313 318 318 317 317 317 317 316 316 316 316 315 315 314 314 313 313 316 316 316 318 319 323 325 325 321 312 310 308
337 337 337 334 334 334 333 329 324 320 319 318 313 312 316 318 317 317 317 317 317 317 317 316 316 316 316 315 314 313 315 317 319 318 317 318 318 323 323 322 313 310 310
331 336 336 335 334 333 331 329 323 320 318 315 313 316 318 319 318 318 318 318 318 317 317 316 315 315 314 313 312 313 317 317 319 319 319 318 314 321 322 321 317 315 314
332 337 337 336 336 336 334 326 321 319 317 315 319 320 320 320 320 320 322 319 319 318 318 317 316 315 315 316 316 316 317 317 317 318 320 317 316 316 320 321 321 317 317
337 338 336 334 335 335 333 324 321 318 319 319 321 323 326 327 327 327 323 319 318 317 317 317 316 315 317 318 317 316 317 317 316 316 319 316 314 318 322 322 318 319 322
338 338 335 333 333 332 330 327 324 324 327 328 328 328 329 329 329 326 322 317 316 316 317 317 317 318 319 318 318 317 316 316 315 315 316 314 313 314 320 322 322 321 321
337 336 335 335 333 329 327 324 323 326 328 330 331 331 330 329 329 328 326 323 323 320 323 321 321 319 319 318 317 316 315 314 314 313 313 311 310 307 317 320 320 319 316
336 334 333 331 329 327 324 323 325 328 329 331 332 332 331 329 330 327 324 322 322 321 321 320 319 319 318 316 315 314 313 312 312 312 311 310 308 306 305 314 315 315 315
331 330 329 328 326 325 324 326 329 329 330 331 331 331 329 328 327 325 324 322 321 320 320 320 319 318 316 315 314 313 312 312 311 311 310 309 308 307 306 305 310 311 311
329 328 327 325 324 326 328 329 329 328 326 326 326 326 322 321 323 324 322 320 320 320 320 318 317 314 313 312 312 311 311 310 310 310 310 309 309 307 307 305 304 305 307
328 328 328 327 329 330 329 327 325 324 321 323 323 321 322 322 321 320 319 319 319 315 313 313 312 311 312 311 311 310 310 309 308 308 308 307 308 309 307 304 303 302 303
329 329 329 328 330 330 327 320 319 319 320 321 322 321 319 319 319 317 318 316 312 312 312 312 311 311 311 311 310 310 308 305 304 305 304 303 307 308 306 304 302 301 301
330 332 330 329 330 327 323 322 319 321 321 322 320 318 316 316 314 314 314 313 312 312 311 311 311 311 310 309 307 305 304 302 303 302 303 303 306 305 304 303 302 301 300
330 332 331 329 327 324 324 321 322 321 320 317 316 315 315 315 314 314 313 312 312 311 311 311 310 308 306 305 303 303 303 302 301 302 305 305 304 303 303 302 301 300 300
333 331 331 329 327 327 326 324 323 321 319 318 316 315 314 313 312 312 312 311 310 309 308 308 306 304 303 302 302 302 301 300 301 301 302 303 301 301 300 300 299 299 299
332 331 331 329 329 328 327 325 323 321 318 316 314 314 313 312 311 310 310 309 307 306 304 303 304 303 302 301 300 300 301 299 300 300 299 299 299 298 299 298 297 297 297
330 330 330 330 330 327 323 321 321 320 317 315 314 314 312 310 309 308 307 306 304 304 303 302 302 302 301 300 300 299 300 299 298 297 297 297 297 297 297 296 296 295 295
330 330 330 328 325 322 320 319 318 318 317 316 315 312 311 309 307 305 304 304 304 303 303 302 301 300 300 299 299 298 298 297 297 297 295 295 295 295 294 294 294 294 293
330 328 326 323 321 320 318 318 318 317 315 312 310 308 306 306 305 305 304 304 304 303 302 301 300 300 300 299 298 297 295 295 295 295 296 294 294 293 293 293 293 293 292
327 323 321 319 318 317 317 316 314 312 308 307 306 305 305 304 303 302 301 301 300 300 301 300 300 300 299 298 297 295 295 294 294 294 294 293 294 293 292 292 292 292 291

GFSSE_925_thetae_030.txt.gz
Theta_e
336 332 336 339 339 338 333 328 327 327 329 330 329 323 321 320 321 323 323 323 324 324 323 323 323 320 311 310 310 314 321 323 325 331 330 330 331 325 324 324 331 329 329
335 331 333 338 338 332 328 327 328 330 330 325 320 318 317 318 319 319 319 318 322 324 325 324 321 319 316 316 316 316 321 325 326 330 331 331 332 324 326 323 324 327 329
336 332 329 330 329 328 329 330 331 329 324 319 317 316 316 317 316 315 316 318 323 325 324 322 315 315 318 318 319 321 324 328 328 329 330 330 326 324 331 328 326 329 331
336 335 330 329 329 331 332 332 330 324 319 315 311 312 315 315 313 316 319 320 321 322 320 315 311 311 310 311 315 321 322 324 325 326 327 328 328 328 323 322 326 325 329
335 336 333 331 332 333 333 331 326 320 317 314 311 311 312 314 318 320 321 321 322 324 322 314 312 313 312 311 311 314 315 316 320 326 325 326 327 328 326 316 312 315 324
336 336 332 332 333 334 333 329 323 319 316 313 311 311 313 319 319 319 319 319 321 318 315 314 313 313 313 313 312 313 316 317 317 321 321 315 323 325 324 316 311 310 312
338 334 332 332 333 333 332 326 321 319 316 312 310 310 318 317 316 316 315 316 316 315 315 315 315 315 314 313 313 316 317 319 320 319 318 312 319 323 322 317 311 309 310
337 334 333 333 333 333 330 324 320 318 315 311 310 316 318 316 316 316 316 316 316 316 315 315 314 313 313 316 316 317 317 317 318 320 318 314 315 321 323 322 316 314 312
332 334 333 333 333 333 328 323 319 317 314 309 314 318 317 316 316 316 316 316 316 316 316 316 315 314 316 317 316 317 317 317 318 319 319 315 314 316 323 323 322 319 317
332 330 331 333 334 331 326 321 319 316 313 317 318 319 319 318 318 321 324 317 317 317 316 316 315 314 317 317 317 317 317 316 316 317 318 315 314 313 323 323 322 319 322
329 329 333 331 332 327 323 319 317 316 315 321 321 323 325 327 325 328 319 317 316 316 316 316 316 317 319 319 318 317 316 315 315 315 316 314 313 311 320 322 320 322 321
326 332 330 333 334 329 323 321 318 319 324 324 323 328 329 329 326 325 320 316 317 318 320 320 321 320 319 318 318 316 315 314 313 313 313 312 310 309 312 319 321 319 318
333 333 334 332 331 328 326 324 325 328 329 329 329 329 329 329 330 329 328 323 323 322 324 321 321 320 319 318 316 315 314 313 312 312 312 311 310 308 307 312 316 317 316
335 334 333 331 328 326 324 323 324 330 329 329 328 331 328 329 329 325 324 323 322 321 321 320 320 319 317 316 315 314 313 312 311 311 312 310 310 309 307 307 311 312 312
334 334 331 328 327 323 324 327 330 329 327 329 331 327 329 328 326 326 324 323 321 320 320 319 318 317 315 314 312 311 311 311 310 310 310 310 309 309 307 308 309 309 309
330 330 328 327 324 326 329 329 329 328 329 327 325 323 324 323 322 324 322 319 319 320 319 316 314 312 311 312 312 311 311 310 308 306 306 308 307 307 308 306 305 305 305
329 328 326 325 326 329 328 327 325 320 320 322 322 321 321 323 322 320 319 319 319 316 312 312 312 311 312 312 311 311 309 308 305 303 304 304 304 307 307 306 303 302 303
328 328 326 328 330 328 327 324 321 320 324 323 322 321 322 321 320 318 318 318 315 313 312 312 312 312 311 311 309 307 305 304 303 303 303 303 302 305 307 305 303 301 302
329 329 329 330 330 328 320 320 321 319 320 320 321 318 316 316 315 315 315 314 312 312 312 312 311 310 308 306 304 303 303 303 303 301 301 304 306 305 303 303 301 301 301
332 330 330 331 330 326 322 322 322 320 320 320 318 316 316 316 315 314 313 312 312 312 310 309 308 307 305 303 303 303 302 301 300 301 302 303 302 301 301 300 300 299 299
334 331 330 330 328 325 325 326 323 321 319 318 317 316 315 314 313 312 312 311 310 308 307 304 303 304 304 303 302 301 301 300 299 300 298 298 298 299 299 299 297 297 297
333 331 330 329 327 328 328 326 324 321 320 318 316 315 314 313 312 311 310 308 307 305 304 304 303 303 303 302 301 301 300 299 300 298 297 297 297 297 297 296 296 296 296
333 332 330 329 328 328 328 325 323 321 317 316 315 314 312 311 310 308 306 305 305 305 304 304 303 302 301 300 300 300 299 298 297 297 296 296 295 295 294 294 295 294 294
332 331 330 330 330 329 327 323 321 320 317 316 316 313 311 310 308 306 306 305 305 305 304 303 303 302 300 301 300 299 298 297 296 295 296 295 294 294 294 294 294 293 293
330 331 331 331 327 324 321 321 320 317 316 313 311 309 307 307 306 305 304 302 301 300 300 301 301 301 300 300 299 298 298 296 296 295 293 294 294 293 293 293 292 292 292
331 331 329 327 322 321 319 319 318 315 312 309 307 307 306 305 303 301 300 299 298 298 299 299 300 301 300 299 298 298 297 296 295 295 293 293 293 293 292 292 291 291 291

GFSSE_925_thetae_033.txt.gz
Theta_e
340 342 342 340 337 336 329 328 329 329 329 323 317 316 317 318 317 317 318 319 322 325 323 320 314 313 311 311 317 323 325 329 331 331 329 333 334 332 324 324 326 329 328
338 341 341 338 337 331 328 329 330 329 321 317 315 316 316 316 315 315 315 319 325 325 324 320 315 315 315 316 319 326 327 328 329 331 328 323 328 330 329 326 329 330 330
334 339 340 338 333 328 330 331 329 321 317 316 317 315 314 315 315 315 317 316 318 322 321 314 310 311 315 320 322 319 316 317 324 329 329 327 323 325 320 321 325 330 329
327 336 338 334 328 330 332 330 323 318 314 314 314 313 314 316 318 317 316 317 320 322 320 316 312 311 312 314 314 316 319 321 327 328 327 324 319 327 322 313 312 322 325
335 336 333 329 330 332 331 325 320 315 313 312 312 311 321 320 318 317 318 319 322 324 320 313 313 312 312 313 315 317 320 325 326 322 313 310 312 323 322 315 311 310 316
334 330 330 331 332 332 327 321 317 314 313 312 311 315 322 319 317 316 315 315 315 313 313 313 312 314 315 315 316 318 318 320 320 316 312 313 316 320 317 313 311 311 311
334 332 333 333 333 330 324 318 315 313 312 310 312 317 315 315 314 314 314 314 314 314 314 313 313 316 316 316 317 317 317 318 318 315 314 314 316 322 321 316 314 313 313
334 333 333 333 332 331 322 318 315 312 310 309 316 315 314 314 314 314 314 315 314 314 314 313 315 317 317 316 316 317 316 317 319 318 315 314 314 316 321 322 318 318 316
332 333 333 331 332 327 322 318 314 311 309 312 317 314 314 314 314 314 314 315 315 315 314 314 314 317 317 317 317 317 316 314 319 317 315 314 316 318 312 321 323 320 321
332 330 329 326 331 325 320 316 314 311 311 317 316 316 315 315 316 317 315 314 314 315 315 314 315 316 319 318 317 315 316 314 314 316 314 312 313 319 316 311 320 322 323
329 328 328 330 329 323 319 318 313 311 319 318 318 320 321 323 325 320 314 314 314 315 316 318 319 319 319 318 316 316 315 314 312 312 312 311 310 315 317 310 311 318 319
324 323 328 328 327 322 318 315 313 319 320 321 327 327 327 327 327 323 317 316 321 319 321 321 320 319 318 317 315 314 314 313 312 311 311 311 310 311 314 311 311 314 312
324 321 327 329 324 318 316 317 319 323 323 324 328 330 330 328 326 324 325 321 321 321 322 321 320 319 317 315 314 313 312 311 311 310 311 310 310 309 310 315 314 314 312
327 328 329 331 325 322 317 324 328 327 328 329 331 330 328 329 326 325 324 324 320 320 320 319 318 318 317 314 312 311 311 311 310 309 306 307 308 307 310 312 312 311 310
329 330 332 330 325 322 323 325 327 330 330 329 330 330 328 328 326 325 322 321 320 320 320 318 316 313 312 312 312 311 310 310 308 306 304 304 305 305 310 311 310 308 307
333 332 329 329 324 325 327 329 329 328 329 329 325 321 322 325 321 323 322 320 319 318 316 314 312 311 312 311 311 311 309 308 306 305 303 303 303 303 307 307 306 306 305
332 329 328 325 325 329 329 328 328 328 327 324 319 320 322 323 322 321 319 319 318 314 313 312 312 312 312 311 309 308 306 304 303 303 302 301 302 303 306 305 304 303 303
329 327 326 325 329 329 328 327 324 321 319 320 321 321 322 321 320 319 318 317 313 312 312 312 312 311 310 308 305 303 302 303 302 301 301 302 303 305 307 303 302 303 302
327 325 324 326 329 328 326 324 320 321 320 320 320 320 320 318 317 316 315 312 312 312 311 310 309 307 306 304 303 302 302 301 300 299 299 299 298 300 302 303 299 298 298
326 325 328 330 329 327 324 320 321 321 320 320 318 316 316 315 315 314 312 312 312 311 309 307 304 304 303 303 302 301 300 299 299 298 297 297 297 298 297 297 297 296 296
326 327 331 330 327 322 321 323 323 320 319 317 316 316 315 314 313 313 311 309 308 307 304 304 303 302 303 302 301 299 300 300 299 298 297 296 296 295 295 294 295 295 296
329 330 331 330 328 323 323 325 324 320 318 317 316 315 313 312 312 311 311 309 306 304 304 304 303 303 302 301 300 300 297 298 298 297 296 296 295 294 294 293 293 294 294
329 330 330 330 328 327 324 326 323 320 318 316 315 313 312 311 310 308 305 305 305 305 304 303 303 302 301 301 300 299 296 296 296 296 295 295 295 294 293 293 293 292 292
330 330 330 328 327 326 326 327 323 319 315 315 314 313 312 311 308 306 306 305 305 303 301 300 301 301 301 300 300 299 298 297 294 293 295 294 293 293 293 293 292 292 291
331 330 329 329 328 327 327 325 321 317 316 316 314 312 310 308 307 305 304 302 301 299 298 298 298 299 302 300 299 298 298 297 297 293 291 292 294 293 293 292 292 291 290
331 330 330 329 329 328 327 324 320 316 312 311 308 307 307 304 302 301 300 299 298 297 297 297 298 299 300 300 299 298 298 297 295 294 291 292 292 293 292 292 291 291 290

GFSSE_925_thetae_036.txt.gz
Theta_e
343 342 338 337 336 331 328 330 331 327 318 314 311 311 310 310 313 318 321 324 326 326 326 324 323 322 322 325 325 327 330 330 329 324 325 330 329 330 330 329 330 330 332
343 341 338 337 334 329 329 331 328 319 315 312 312 311 312 312 315 319 322 323 325 324 321 317 317 320 318 315 317 317 321 329 330 327 322 323 325 324 320 325 329 330 331
342 341 338 337 331 328 331 329 321 316 312 312 312 312 313 315 316 316 318 318 318 320 314 312 314 315 314 318 320 319 324 327 330 327 315 312 313 314 313 312 321 329 329
342 340 338 334 328 329 331 324 320 324 320 312 313 314 317 317 314 313 314 315 316 316 313 312 312 313 316 317 322 324 327 328 327 316 313 314 317 319 310 309 310 311 323
341 339 336 329 328 331 327 323 317 318 315 314 317 322 322 319 314 313 313 313 314 314 313 314 315 316 316 316 318 325 324 321 313 314 314 313 318 323 320 316 312 310 309
339 337 331 328 331 330 322 316 312 315 314 314 318 323 325 323 313 312 312 313 313 313 315 316 316 316 316 317 316 318 319 317 314 316 314 315 319 323 321 315 315 316 315
338 332 330 331 331 324 319 315 313 312 312 315 316 317 315 314 313 312 313 313 313 313 316 317 316 316 317 317 315 315 319 317 317 315 314 315 319 323 321 318 318 317 318
334 332 332 332 327 320 318 316 311 310 311 316 314 314 313 313 313 313 313 313 313 313 314 317 317 317 317 317 316 314 315 319 316 314 315 319 320 322 322 319 322 323 323
332 333 332 329 325 322 316 312 310 309 313 315 313 313 312 313 313 313 313 314 314 313 313 314 318 318 317 317 316 315 314 316 316 313 312 315 319 321 320 317 319 321 322
327 325 325 327 326 322 317 314 310 310 316 313 313 313 313 313 313 313 313 314 314 314 315 316 318 318 318 317 317 316 314 313 312 312 311 310 313 318 318 316 314 315 319
328 325 322 321 324 321 320 315 310 315 316 315 315 315 317 319 316 314 314 314 315 317 319 318 319 319 317 316 315 314 313 312 311 311 311 310 310 314 316 314 314 312 312
327 325 321 321 327 324 320 314 313 317 316 318 320 321 325 325 320 315 315 316 317 320 319 319 319 318 316 315 313 312 311 311 311 310 310 310 310 312 315 314 313 311 308
324 325 326 329 326 321 317 313 318 318 323 324 325 326 326 326 326 320 317 319 319 322 321 321 319 316 314 313 312 311 311 310 309 307 306 307 307 310 313 315 314 313 310
323 325 325 329 325 319 315 313 320 320 322 325 328 330 329 327 326 325 324 321 322 321 319 317 316 314 312 312 311 310 310 309 307 306 305 303 304 305 312 313 312 311 308
322 325 328 328 324 318 316 317 322 323 326 330 330 328 329 326 324 322 322 320 319 317 316 314 312 312 311 311 311 310 308 307 305 304 303 302 302 303 310 312 310 308 307
326 325 329 328 326 320 320 323 326 329 330 330 329 328 327 326 324 322 320 319 318 317 315 313 312 311 311 311 310 308 305 303 302 302 302 301 301 304 308 309 307 306 305
327 327 330 331 326 323 324 325 329 330 330 324 320 323 322 324 321 320 318 317 316 313 312 311 311 311 311 309 308 304 302 302 302 300 301 301 303 307 308 305 304 305 304
330 331 331 330 325 325 325 328 328 327 328 320 319 320 320 321 321 319 318 315 313 312 312 312 311 310 308 305 303 302 301 301 299 299 298 298 300 306 304 303 302 302 302
331 330 328 327 327 329 329 327 326 324 319 319 320 321 321 320 318 318 314 312 312 311 310 309 307 305 304 303 302 301 301 300 298 298 297 297 298 301 299 296 296 296 297
330 328 325 328 329 327 325 322 320 320 319 320 320 320 319 316 315 313 312 312 311 311 309 306 303 302 302 302 302 300 299 299 298 297 296 296 295 295 295 294 294 294 295
328 326 325 328 327 326 324 321 320 320 320 319 316 315 315 315 315 312 312 311 310 309 306 303 303 302 302 301 300 299 299 299 298 297 296 295 295 295 294 293 293 293 293
325 325 325 327 327 326 324 321 321 320 319 316 316 315 314 313 313 311 311 310 307 304 304 303 302 302 301 301 300 298 295 297 298 297 296 295 295 294 294 293 293 292 292
326 326 325 327 327 325 322 322 323 320 317 316 316 314 312 312 311 310 308 306 305 305 304 303 302 302 301 300 300 299 296 295 295 296 296 294 294 294 293 292 292 292 291
328 327 328 328 327 323 322 326 323 319 317 315 314 313 312 311 310 307 305 305 305 303 301 299 299 299 300 300 300 299 299 298 294 292 294 295 294 294 293 293 292 292 291
328 329 329 329 329 327 323 325 323 319 318 316 314 313 312 310 308 306 305 304 302 299 297 297 297 297 299 300 299 299 298 297 297 293 292 292 293 293 293 293 292 292 291
328 328 329 329 328 327 326 325 325 321 318 315 313 312 311 309 306 304 301 300 299 297 296 296 296 296 298 299 299 298 298 297 296 295 290 291 291 294 293 292 292 291 290

GFSSE_925_thetae_039.txt.gz
Theta_e
343 341 337 334 330 326 327 329 325 317 314 312 312 310 309 310 310 313 318 324 327 327 326 327 327 323 321 326 328 329 329 326 321 321 326 326 325 327 330 330 329 329 331
343 340 337 334 329 327 329 328 319 313 312 315 310 310 312 315 318 319 321 323 323 324 326 324 320 320 319 318 321 328 329 325 314 315 316 322 323 322 321 318 328 330 330
344 340 337 333 327 327 329 323 315 315 319 317 312 313 319 325 320 318 315 318 322 324 324 323 323 320 321 319 320 325 329 324 314 315 314 314 318 320 319 319 319 325 329
343 339 336 333 329 330 327 318 315 324 325 317 319 322 319 322 315 312 313 315 319 322 323 322 317 320 325 324 327 327 325 315 315 315 315 317 321 322 317 313 315 318 319
341 339 336 330 328 329 321 316 320 317 315 313 319 322 320 322 313 313 313 315 317 319 322 322 316 316 318 322 323 320 313 316 316 316 318 321 323 324 323 321 317 315 316
340 338 333 329 330 325 318 315 313 313 313 317 320 318 317 321 313 313 313 315 315 316 316 317 316 315 315 318 319 315 315 316 314 315 317 321 323 324 324 324 324 324 323
339 337 331 331 329 322 315 313 312 314 315 321 322 317 316 316 313 313 313 316 317 316 316 316 316 316 315 314 316 317 318 316 314 314 315 318 322 322 323 324 323 323 323
338 334 330 331 325 317 314 314 311 312 318 321 318 314 314 313 313 313 312 314 317 317 317 317 317 316 316 316 314 314 317 314 313 311 312 318 319 320 321 321 318 321 322
331 333 332 330 322 316 315 311 314 317 316 316 314 313 313 313 313 313 313 313 313 315 319 319 318 317 317 317 316 315 313 312 312 311 311 313 318 319 318 318 316 316 318
328 326 323 320 319 317 316 318 313 315 315 314 313 313 313 313 314 314 314 314 314 316 317 319 318 318 317 315 314 314 313 312 311 310 310 310 314 317 317 316 309 308 312
323 323 323 321 319 319 316 311 311 316 314 313 314 313 313 314 314 314 314 315 316 317 318 319 318 317 315 314 313 313 312 311 310 310 310 310 313 314 316 317 313 311 311
323 322 324 322 322 321 318 312 315 318 315 314 314 315 317 316 315 315 315 316 317 318 318 319 318 316 314 313 311 311 310 310 309 308 306 308 311 311 316 316 315 313 312
324 324 324 322 323 320 319 313 314 318 316 316 318 322 323 321 317 316 317 318 320 320 320 319 316 314 312 311 311 310 309 307 306 305 304 304 305 309 312 315 314 312 310
324 324 320 323 326 323 319 313 316 319 318 320 322 324 326 326 323 319 319 321 321 321 318 315 314 312 311 311 310 309 307 306 305 304 303 303 302 307 309 314 312 310 308
325 322 321 327 328 324 320 314 318 319 322 326 329 329 328 326 326 325 321 322 320 317 316 313 312 311 311 310 309 308 306 304 303 302 302 301 301 303 309 312 310 308 307
324 324 326 329 327 323 320 316 320 321 328 330 329 329 327 325 323 324 320 318 316 315 313 312 311 311 310 309 307 304 302 302 301 301 300 299 301 305 311 309 307 307 305
323 324 326 328 328 323 318 317 321 324 330 329 328 327 326 324 322 320 318 316 314 313 312 311 311 310 310 307 303 301 301 300 300 299 300 303 305 309 306 305 305 305 304
324 325 327 328 326 322 319 320 325 329 329 327 327 326 325 323 321 319 317 314 312 312 311 311 310 308 305 302 301 301 301 299 298 297 297 299 306 305 303 301 300 299 299
326 326 328 329 328 325 322 324 328 329 326 319 320 320 321 322 319 317 315 313 312 311 310 309 307 304 302 302 302 301 300 299 297 296 296 297 301 302 299 296 296 296 297
327 327 329 330 329 325 325 327 326 326 323 319 319 321 321 319 317 315 313 311 311 310 310 307 303 302 302 302 301 300 299 298 297 297 296 296 295 295 295 294 294 294 295
329 330 330 329 327 326 326 324 324 322 320 319 320 320 319 317 314 312 312 311 311 310 306 303 303 301 301 300 300 300 299 297 297 297 296 295 295 294 293 293 293 293 293
330 330 328 327 326 327 327 325 323 320 319 319 318 317 315 315 313 312 311 310 309 305 304 303 302 301 301 300 300 297 294 297 297 297 295 296 294 294 293 293 292 292 291
327 328 327 326 327 327 326 322 320 319 319 316 315 314 313 314 313 312 311 308 304 304 304 302 301 301 300 300 300 299 295 294 295 297 296 295 294 295 294 292 292 292 291
327 327 326 326 327 326 325 322 321 320 317 316 316 315 313 312 311 309 307 304 305 304 302 299 298 298 298 299 299 299 298 297 294 293 295 294 296 295 293 293 292 292 291
325 326 326 325 325 326 325 322 322 321 318 317 316 314 312 310 309 307 305 305 303 299 297 296 296 296 297 299 300 299 298 297 296 293 292 293 295 294 294 293 293 292 291
325 326 326 325 325 325 325 322 324 321 319 316 314 312 310 308 307 305 304 301 299 297 296 295 295 295 296 298 298 298 297 297 296 295 290 291 291 293 294 294 292 291 289

GFSSE_925_thetae_042.txt.gz
Theta_e
342 339 336 330 328 328 328 327 325 320 317 315 318 318 323 324 321 323 324 326 327 329 329 327 327 329 330 330 328 320 315 317 322 324 324 324 324 325 328 329 328 329 331
341 338 334 331 328 327 325 319 315 315 316 319 326 323 318 318 322 324 324 324 327 326 326 321 319 322 327 328 328 317 314 314 315 316 318 321 322 322 321 321 326 329 330
341 338 335 329 327 327 322 315 313 312 316 323 325 319 318 321 321 320 324 325 324 325 325 324 322 319 320 326 327 316 314 314 315 316 317 320 323 323 322 322 320 322 327
341 338 333 330 329 327 318 314 312 311 312 314 315 325 321 320 321 323 324 323 323 323 326 328 321 320 325 326 324 315 316 317 318 319 321 322 324 324 324 323 322 321 320
340 337 334 333 329 324 315 312 311 310 309 311 316 325 317 319 321 321 322 324 321 322 321 321 324 325 324 322 313 316 315 315 316 316 321 323 324 324 324 324 324 323 323
339 337 334 332 328 320 313 310 311 311 315 320 321 322 321 322 322 321 322 323 318 318 315 316 317 318 318 315 316 315 314 314 313 314 317 321 323 324 323 323 324 324 324
338 337 334 330 326 318 314 313 312 315 319 322 321 322 321 319 318 318 318 321 317 316 315 315 315 316 317 317 317 315 314 312 312 314 317 319 321 322 321 321 322 322 322
338 337 333 330 325 325 322 312 316 320 324 324 321 320 317 315 316 316 316 316 316 316 316 316 316 316 315 315 315 314 312 312 311 311 312 318 319 319 319 318 318 319 320
335 335 333 330 324 322 318 316 320 323 322 319 315 315 314 313 313 315 317 317 317 317 317 317 317 317 316 315 314 313 312 311 310 310 311 316 318 318 317 316 316 317 317
327 329 326 321 314 317 319 322 324 322 320 313 314 313 313 313 313 313 313 314 317 318 318 318 317 316 315 314 313 313 312 311 310 310 310 313 315 317 317 316 315 315 315
326 321 319 319 321 320 320 321 324 322 315 314 313 313 313 314 314 314 315 315 316 318 318 317 316 315 314 313 312 311 311 310 310 309 308 310 313 314 317 316 314 314 313
320 317 315 317 317 315 315 313 315 318 314 313 313 314 314 314 315 315 315 316 317 318 318 317 315 313 312 311 311 310 310 308 307 306 306 305 308 311 316 316 313 312 311
322 320 319 321 322 320 316 316 318 315 314 314 314 314 315 315 315 315 316 317 318 318 318 316 313 312 312 311 309 308 307 307 306 305 305 304 304 308 313 315 312 311 310
323 323 322 322 321 326 320 313 317 315 316 315 316 321 320 318 316 316 317 318 320 319 316 314 314 312 311 310 309 307 306 305 304 303 302 302 302 306 309 314 311 309 308
322 324 322 321 324 322 320 313 318 316 317 318 322 324 325 324 321 318 320 320 319 316 316 314 312 311 310 309 308 306 304 302 301 301 300 299 301 303 309 312 310 308 307
324 323 321 323 326 323 321 314 317 318 319 323 325 327 327 325 325 324 321 318 316 315 313 312 311 310 309 308 305 301 301 300 300 300 298 300 304 308 311 308 307 307 306
324 322 321 322 328 325 322 316 318 319 324 328 328 328 327 326 323 323 319 316 314 314 313 311 310 310 308 304 301 300 300 299 299 299 300 305 308 309 306 306 306 305 305
323 321 321 326 328 326 322 317 319 321 328 328 327 326 326 324 321 319 317 315 314 313 312 311 310 307 303 301 301 300 300 299 298 298 299 306 306 304 303 302 301 300 299
323 324 325 326 328 326 323 318 319 323 328 327 326 326 325 322 320 318 316 315 313 312 310 309 306 303 301 300 300 300 300 298 296 296 296 297 300 301 300 298 296 295 295
322 323 325 327 328 326 323 320 322 327 326 323 322 321 322 322 320 317 316 314 312 310 308 305 303 302 300 300 300 300 299 297 296 296 296 295 296 295 295 294 294 293 294
324 325 325 327 328 327 324 323 326 327 324 320 320 320 320 320 318 316 314 311 309 309 306 303 302 301 300 300 300 299 298 296 297 296 295 296 296 294 293 293 293 293 292
325 325 326 327 328 329 325 324 325 325 323 320 319 319 319 318 316 313 312 310 309 307 304 303 302 301 300 300 299 297 294 296 297 297 296 296 296 293 294 293 293 292 292
328 327 327 328 329 328 325 325 324 322 320 319 318 318 317 315 313 312 311 309 306 304 304 303 301 300 299 299 299 298 295 295 294 296 296 296 294 294 296 295 292 292 291
328 328 328 328 328 327 325 325 323 322 319 318 318 317 315 314 312 310 308 307 304 304 301 298 297 297 296 297 298 299 298 297 295 294 296 296 296 296 295 293 293 292 291
328 328 327 327 327 326 325 325 323 322 320 319 318 315 313 313 310 309 307 305 304 300 297 297 295 295 295 297 299 299 298 297 296 293 292 294 296 296 295 295 294 292 291
327 327 326 326 326 325 325 324 323 321 319 318 315 314 312 310 309 307 305 303 299 298 298 298 295 294 294 296 297 298 298 297 296 295 291 292 291 294 294 292 293 291 290

GFSSE_925_thetae_045.txt.gz
Theta_e
341 340 333 328 327 328 333 335 332 328 327 323 317 313 314 318 320 321 322 326 329 332 335 335 335 334 328 317 313 312 313 316 321 323 324 323 323 325 329 330 330 331 331
340 339 336 333 328 327 327 326 326 323 317 314 312 311 316 322 324 322 324 326 326 329 330 332 334 332 320 313 314 313 314 314 316 318 323 324 324 323 322 322 328 330 329
340 339 337 336 333 327 323 319 315 313 312 312 310 317 324 324 323 323 325 325 327 326 322 324 326 329 325 314 315 316 316 317 317 318 322 321 323 325 324 323 322 323 325
339 339 337 335 334 332 324 320 317 319 318 322 324 324 323 324 324 323 323 324 326 325 323 323 324 327 324 315 316 316 317 318 318 322 322 322 323 325 325 325 324 323 322
339 338 337 335 333 325 317 316 322 323 322 323 324 321 323 324 324 321 322 323 327 330 330 327 325 325 317 316 315 315 316 315 317 321 321 322 322 323 324 325 325 325 324
338 338 334 333 327 315 315 318 316 321 325 324 323 322 323 324 323 322 320 320 320 324 325 325 323 318 315 316 315 314 313 313 318 319 320 321 321 322 321 322 323 323 323
338 335 334 330 323 321 312 310 311 318 323 324 322 324 326 326 325 319 318 317 316 317 318 319 317 315 317 315 314 312 312 312 317 317 318 319 320 320 319 319 320 321 320
338 335 334 327 328 329 323 315 319 320 318 323 322 324 323 323 320 317 316 315 315 315 315 315 316 316 316 314 312 312 311 311 315 316 317 317 319 319 317 317 317 318 318
336 336 331 329 324 321 325 319 320 315 322 322 318 318 318 317 316 316 316 316 316 316 316 315 316 315 314 313 312 312 311 310 312 313 314 316 318 318 317 316 316 316 316
332 328 331 323 318 317 324 324 319 320 321 321 316 316 316 316 316 316 317 317 317 317 317 316 315 314 314 313 312 312 311 310 311 311 313 313 315 317 316 315 314 315 314
322 320 320 318 315 318 323 327 323 321 321 316 315 313 313 314 315 317 317 318 318 318 316 316 315 314 314 312 311 311 310 309 309 310 312 308 311 317 317 315 313 313 313
318 317 316 315 314 315 322 322 321 315 317 314 313 313 313 314 315 315 316 317 318 317 316 315 314 313 312 311 310 310 309 308 307 308 309 305 307 312 317 314 312 312 311
319 318 319 316 316 316 316 314 314 320 315 313 313 313 314 315 315 316 316 317 318 317 315 314 313 312 311 310 309 309 308 307 306 305 304 304 303 307 316 314 312 311 310
317 318 315 313 314 319 319 318 320 316 314 314 314 315 315 315 315 315 317 318 318 317 315 313 312 311 310 309 308 307 306 303 302 302 301 301 301 306 313 313 311 309 309
319 319 319 322 321 319 320 321 319 316 315 315 315 315 316 316 316 317 317 319 319 316 315 313 311 311 310 308 307 305 302 300 300 299 300 299 300 304 312 312 310 309 307
321 321 321 322 320 321 318 316 318 316 316 317 320 323 324 322 318 317 320 319 317 315 313 312 312 310 308 307 305 301 300 299 299 299 305 307 303 307 312 310 309 307 307
323 323 322 323 324 324 322 315 319 317 318 320 322 324 325 325 325 324 320 317 315 313 313 312 311 309 308 303 301 300 299 299 299 298 304 306 308 310 307 307 307 306 306
324 323 322 324 325 326 323 316 317 318 320 325 327 327 326 325 324 323 319 316 314 313 312 311 310 307 303 301 300 300 299 299 298 298 301 305 306 303 304 304 303 301 300
324 323 323 324 326 327 323 319 316 319 323 327 327 326 326 324 322 320 317 315 313 312 311 309 307 303 302 302 301 300 299 298 298 298 299 301 301 300 299 298 295 295 294
324 323 323 322 326 328 323 320 317 320 324 327 327 325 324 323 320 318 315 315 313 312 309 307 304 301 301 301 300 300 299 297 297 297 296 296 296 296 295 294 295 295 293
324 324 324 324 326 327 325 321 321 323 325 327 326 325 324 323 321 317 316 314 312 310 308 305 302 301 301 299 300 301 299 297 297 297 296 296 296 295 294 294 294 294 294
324 324 324 325 326 327 325 321 321 323 325 325 322 320 320 320 319 318 316 313 310 308 305 303 302 302 300 299 301 300 300 299 298 298 296 296 296 294 294 295 295 294 293
326 324 325 325 326 327 326 323 322 323 325 323 320 319 319 319 318 316 313 311 308 307 304 303 302 300 300 300 299 300 300 300 299 298 297 296 296 295 295 296 295 293 292
327 326 324 325 325 326 327 324 322 323 323 321 320 318 318 316 315 313 311 309 307 304 304 302 298 297 298 299 299 299 299 299 300 299 298 297 297 296 296 295 294 293 292
328 326 325 325 325 326 327 326 323 323 323 320 319 317 316 315 313 311 310 308 306 304 302 299 296 295 295 295 298 299 299 299 298 298 298 297 295 295 294 294 295 293 292
329 327 327 326 326 325 326 326 323 322 321 320 318 316 314 313 312 310 309 307 304 302 299 301 301 298 295 296 297 298 298 298 297 297 297 295 295 293 293 293 294 293 290

GFSSE_925_thetae_048.txt.gz
Theta_e
342 338 336 341 342 342 340 337 337 335 332 329 328 325 321 319 318 321 327 331 334 335 336 332 325 327 326 324 320 318 319 321 321 321 324 325 324 327 329 330 330 332 331
342 337 334 340 341 341 339 337 335 331 329 327 322 319 316 316 319 325 331 334 334 335 336 333 326 327 324 318 314 314 315 317 321 323 323 325 325 324 323 324 327 329 329
342 337 335 337 341 340 337 335 330 328 324 322 320 320 318 319 324 327 328 330 332 335 335 334 328 326 318 315 316 316 316 319 321 321 322 322 323 326 325 324 324 324 325
341 338 334 332 333 333 332 329 327 324 323 324 321 318 319 322 325 325 325 326 329 332 334 334 329 319 316 316 316 316 316 320 321 321 321 322 322 325 326 326 325 325 324
341 338 336 333 331 328 326 323 322 323 326 325 324 323 323 324 323 323 326 325 328 331 333 333 324 316 316 315 315 314 316 319 320 321 321 322 321 322 324 325 326 325 323
339 338 336 334 330 323 320 320 323 326 326 325 323 324 325 323 322 325 328 330 330 330 333 327 315 316 315 314 313 313 316 318 318 319 321 321 320 321 321 323 323 322 322
339 338 335 334 331 327 326 327 327 324 323 321 323 324 324 320 321 322 325 328 329 327 323 317 316 316 315 313 312 312 313 316 317 317 319 320 319 319 318 319 319 319 319
338 336 335 329 330 330 330 330 325 323 322 323 325 325 321 320 319 319 319 320 322 320 317 316 316 315 313 312 312 311 312 314 315 316 318 318 319 318 317 317 317 317 317
336 335 330 330 330 326 324 328 328 325 326 325 324 321 320 319 317 315 315 316 317 317 316 316 315 314 313 312 311 311 309 311 313 314 315 316 319 318 316 315 316 316 316
335 330 329 329 324 324 323 324 327 326 326 325 320 319 319 317 316 315 315 315 315 315 315 315 314 313 312 312 311 310 311 311 312 313 312 312 318 318 316 315 315 315 314
326 325 324 319 315 316 318 323 326 323 322 319 319 318 318 320 320 320 320 316 316 316 315 315 314 314 313 312 311 310 311 312 311 311 311 310 315 318 316 314 314 314 313
320 319 319 317 314 315 320 322 327 327 322 319 317 318 321 322 322 321 320 317 316 316 316 314 314 313 315 314 311 310 311 310 309 308 309 306 309 318 316 314 313 312 312
318 317 317 319 319 317 319 320 327 325 321 315 320 322 323 323 321 321 321 320 318 317 315 314 314 316 314 313 312 311 310 308 307 306 306 303 303 311 316 313 312 311 310
318 315 314 314 316 317 318 318 316 313 312 317 322 323 323 322 322 322 322 322 320 319 318 317 316 314 313 312 311 309 308 306 304 304 304 299 301 306 317 313 311 310 309
319 317 317 318 318 317 317 317 316 321 321 321 322 322 321 321 321 321 322 321 320 319 318 316 314 313 312 310 309 307 305 304 304 304 306 300 300 305 316 313 311 310 308
317 315 314 318 317 316 317 316 321 321 321 321 320 322 324 322 322 322 322 321 320 319 317 316 314 313 312 310 308 305 304 303 304 305 306 308 302 306 313 311 310 309 308
319 320 320 318 318 316 318 323 323 321 319 320 322 326 326 325 323 323 321 320 319 318 316 314 313 312 311 308 306 304 303 303 303 304 305 306 308 310 310 308 308 307 306
322 322 323 323 322 323 323 320 321 320 322 323 326 328 329 328 327 324 321 320 318 316 315 314 313 312 310 307 305 304 303 302 302 303 305 304 304 305 306 306 305 304 302
323 323 324 325 325 326 325 321 322 322 324 327 329 328 328 327 324 323 321 319 317 316 315 313 313 311 308 306 305 304 303 302 302 301 303 303 302 301 300 300 299 296 295
324 324 325 325 327 329 326 323 320 323 324 327 328 327 327 324 322 321 320 318 317 316 314 312 311 308 307 306 303 303 304 302 301 301 301 300 299 299 299 298 298 298 296
325 325 325 327 328 329 327 323 320 322 324 328 328 327 326 323 321 320 319 318 316 314 314 312 309 307 306 306 306 306 305 302 301 301 300 300 299 299 298 297 297 297 297
325 325 325 326 327 329 328 324 321 320 323 325 326 327 325 323 321 321 319 317 315 315 312 310 308 308 307 305 306 305 308 305 302 301 301 300 300 299 297 297 297 297 297
326 327 326 325 327 329 328 326 323 322 325 325 325 324 322 321 320 319 317 315 313 313 312 310 309 308 308 305 303 305 307 309 305 303 302 301 300 299 298 298 298 297 296
328 326 326 327 327 329 330 327 324 322 324 325 326 325 322 320 318 317 315 313 312 312 311 309 308 306 305 307 304 303 302 302 305 305 302 300 300 299 299 298 297 296 296
329 329 327 326 327 328 329 329 327 323 323 326 327 325 322 319 317 315 313 312 310 310 310 308 305 305 306 306 303 303 302 303 302 301 301 300 299 298 297 296 295 296 296
331 330 330 328 328 328 328 329 329 327 325 326 326 324 322 318 316 313 312 311 310 310 309 306 305 306 304 302 300 301 302 302 301 301 301 300 299 297 296 295 296 296 295

GFSSE_925_thetae_051.txt.gz
Theta_e
342 339 341 344 344 341 340 339 338 335 333 329 325 325 325 326 328 328 332 332 334 331 330 330 329 327 326 325 320 318 321 322 320 318 324 326 327 328 329 330 331 332 331
341 339 341 343 343 341 340 338 336 335 331 326 325 325 323 324 326 328 333 334 333 330 329 329 327 325 324 318 314 318 321 322 325 324 323 326 326 325 325 324 327 328 329
340 339 341 342 342 341 340 337 336 334 328 326 323 320 320 324 328 332 334 335 334 331 329 328 327 325 318 315 314 318 321 321 322 322 322 323 325 327 326 326 326 325 325
338 338 341 342 342 340 339 337 334 329 326 321 317 318 322 328 331 333 333 335 334 332 328 327 327 318 316 314 316 320 321 321 322 323 323 322 323 329 328 326 326 327 325
338 337 339 341 340 339 337 334 330 327 321 316 318 321 327 327 328 329 331 333 333 333 329 327 319 316 314 314 316 318 319 320 321 321 322 321 320 323 325 324 324 323 323
338 335 336 339 339 336 333 330 328 322 318 320 323 326 324 326 326 327 329 332 333 332 329 323 316 314 313 313 314 317 317 318 320 321 321 319 319 320 320 320 321 321 321
339 337 336 336 334 332 329 328 325 321 321 323 328 325 324 326 328 330 333 332 332 331 318 316 315 313 313 312 311 314 315 316 318 320 320 319 319 319 319 319 319 319 318
339 338 335 333 332 330 330 329 326 324 326 329 327 324 324 326 329 333 332 330 328 320 316 316 315 313 312 311 310 312 314 315 317 319 320 319 319 318 317 317 317 317 317
338 335 334 331 328 327 328 328 328 328 328 329 326 323 323 323 326 329 328 325 320 316 316 315 313 312 312 311 310 309 312 314 316 315 316 318 318 317 316 316 316 316 316
335 333 329 325 327 328 329 328 328 328 329 326 324 321 320 319 319 320 320 319 316 316 316 314 313 313 312 311 310 312 313 313 314 314 312 317 319 317 316 315 315 315 314
329 330 328 326 324 323 324 324 323 325 325 322 322 319 319 319 318 320 320 316 316 316 315 314 314 314 312 311 310 311 313 313 312 313 311 313 319 318 315 314 314 314 313
321 323 324 322 321 322 320 318 322 326 325 324 321 320 321 320 324 321 316 316 316 316 315 314 315 316 316 315 313 313 312 311 310 309 307 305 315 318 315 314 313 312 311
320 319 321 321 319 319 318 318 318 324 324 321 320 322 321 323 323 321 317 317 316 315 316 315 316 318 318 317 315 313 311 309 308 308 305 301 306 317 316 314 313 311 310
316 318 316 316 316 315 315 314 317 323 322 321 322 323 324 323 322 322 322 322 320 320 318 319 320 318 317 315 313 312 309 307 307 307 308 298 301 312 316 314 312 310 309
316 317 316 316 320 318 320 319 320 320 317 314 323 324 324 322 323 323 324 323 322 322 321 321 319 318 316 314 312 310 308 307 306 307 311 304 300 308 317 314 312 310 309
317 316 316 317 316 317 317 315 318 317 318 321 323 323 322 323 323 323 324 323 323 322 322 320 319 318 316 314 311 308 307 306 306 307 308 308 300 309 316 313 311 310 309
317 316 316 316 316 316 313 313 314 315 321 323 321 322 324 323 324 323 324 324 323 323 321 320 319 317 316 312 309 307 306 306 306 306 307 310 309 305 312 310 309 308 307
318 318 318 317 317 315 316 316 318 322 321 320 320 324 325 325 325 325 324 324 323 322 320 319 318 317 316 312 309 308 307 306 305 306 307 306 306 308 305 307 307 306 305
319 318 319 318 317 317 320 321 322 320 319 318 321 325 327 328 329 327 326 324 323 321 320 319 318 317 314 311 309 308 308 307 305 303 306 306 304 303 303 302 299 298 300
323 324 323 322 320 323 323 321 321 322 321 321 325 327 328 329 329 328 326 324 323 321 320 319 318 316 313 311 307 307 309 307 305 304 304 303 302 302 301 301 300 300 298
325 325 325 325 325 325 325 323 319 322 323 323 325 328 328 328 327 326 325 324 322 321 320 318 317 314 311 310 310 310 310 308 306 305 304 304 303 302 302 300 300 299 299
325 325 326 325 326 327 326 324 321 319 321 322 324 327 327 327 326 325 324 323 322 321 319 318 316 313 312 311 311 311 314 311 307 305 305 304 303 303 302 300 299 300 300
326 326 327 327 328 328 328 326 323 321 321 323 324 327 327 327 327 325 324 323 322 319 318 317 315 314 313 310 309 311 313 313 310 307 305 305 303 303 302 301 300 300 299
326 326 327 327 327 327 327 327 325 323 321 322 324 325 327 326 325 323 323 322 320 318 317 316 315 314 312 311 309 309 308 307 308 309 306 305 304 303 302 301 300 299 298
327 327 327 327 326 326 328 328 328 325 323 324 325 326 327 326 324 323 322 320 318 317 315 314 313 313 311 310 311 308 305 306 306 306 307 305 303 302 301 300 299 298 298
329 329 328 327 327 327 328 329 329 327 325 323 326 328 327 326 325 323 320 318 317 315 314 314 312 311 310 310 307 304 306 307 307 306 305 304 303 302 300 299 298 298 298

GFSSE_925_thetae_054.txt.gz
Theta_e
341 342 343 343 342 339 336 334 333 331 329 327 325 324 324 325 330 333 335 332 330 332 331 329 327 327 325 324 323 323 323 322 321 320 326 327 328 328 327 329 329 330 331
340 344 343 343 342 339 338 336 334 332 328 325 324 324 324 325 331 333 333 328 330 330 328 327 326 324 320 320 321 322 324 325 325 324 325 327 326 327 326 325 327 329 330
337 342 343 343 342 339 339 337 334 332 326 324 324 324 323 326 332 334 330 329 330 329 329 328 326 320 315 319 321 321 322 323 325 325 325 328 327 327 327 327 325 325 325
340 342 343 343 341 340 339 338 334 330 325 324 322 321 321 331 334 333 331 328 329 329 329 327 324 314 316 320 320 320 321 322 323 322 321 323 326 326 326 326 326 325 324
340 342 340 340 341 340 339 336 333 328 325 322 319 320 325 333 335 334 333 328 328 329 328 325 314 313 315 318 319 320 321 321 321 320 320 320 321 322 322 323 322 322 322
339 340 337 340 340 339 338 335 331 327 322 320 321 326 330 333 334 334 333 331 327 328 325 315 313 313 312 316 317 316 317 321 321 320 319 319 320 320 320 320 320 319 320
337 339 339 339 339 338 336 332 328 323 321 322 325 328 330 330 331 332 332 332 324 321 316 314 313 311 310 312 316 315 317 321 321 319 319 319 319 319 318 318 318 318 317
337 338 338 338 337 335 333 330 327 323 324 325 328 329 329 328 329 331 331 331 319 316 315 313 312 311 309 309 314 315 316 317 320 320 319 318 318 318 317 317 317 316 316
336 337 336 334 333 332 330 329 330 328 329 329 329 328 329 331 331 330 331 327 316 316 315 312 312 311 310 309 312 314 314 316 315 316 318 318 318 317 316 316 315 315 314
335 334 332 329 328 328 326 326 328 328 329 329 326 328 331 332 331 330 328 319 316 316 314 313 313 313 311 311 313 313 314 314 313 312 315 318 318 316 316 315 314 313 313
332 332 329 327 325 323 321 320 324 326 329 326 324 324 327 329 328 325 320 316 316 315 314 314 315 314 313 311 312 313 313 311 312 311 309 318 318 316 315 314 314 313 312
326 328 327 325 323 321 319 315 318 324 327 323 320 318 319 323 323 322 316 316 316 314 315 316 316 316 315 315 313 313 311 310 310 309 303 315 319 317 315 314 313 312 311
322 324 325 324 322 320 319 320 320 319 323 320 321 321 321 324 320 316 316 316 315 315 315 316 316 318 318 317 314 312 310 308 308 308 305 303 318 317 316 314 313 311 311
319 320 321 321 323 322 318 313 313 316 320 321 322 321 322 323 318 316 316 316 316 317 316 317 318 319 317 316 313 311 308 308 307 308 309 300 309 318 316 314 312 310 309
318 319 320 320 320 320 320 320 318 318 320 320 322 321 324 322 321 319 321 320 320 320 319 319 320 318 316 314 312 310 308 307 307 311 310 304 301 314 316 315 312 310 309
317 317 318 316 316 315 315 315 316 319 321 321 322 323 324 321 323 322 323 323 322 322 322 321 320 318 317 315 311 308 307 307 307 308 311 309 299 308 316 315 313 311 310
317 316 318 317 318 317 314 317 318 318 317 318 317 323 321 323 323 324 324 323 323 322 322 321 319 319 317 314 310 308 307 307 306 307 309 311 308 305 315 312 311 309 308
317 318 318 318 317 318 317 316 315 318 316 319 319 319 322 323 323 323 323 325 324 323 322 321 319 318 317 314 310 308 307 306 306 306 308 308 310 307 305 307 308 307 307
318 318 318 317 315 315 315 313 314 315 316 320 320 322 322 322 324 323 325 324 324 323 322 320 319 318 317 314 311 309 308 307 306 306 307 307 306 305 307 305 301 300 299
319 318 318 316 316 314 314 316 318 315 318 318 316 320 324 325 326 326 326 325 324 323 321 320 319 319 317 314 311 309 310 309 307 305 305 305 304 303 302 302 301 300 300
320 321 319 319 318 318 320 320 320 323 323 320 320 322 326 325 326 325 326 326 324 323 321 320 319 318 315 312 311 309 310 310 308 306 305 305 304 302 302 302 301 300 299
321 321 321 320 317 318 322 323 321 321 323 321 321 326 326 326 327 328 326 325 324 323 322 320 318 317 314 311 311 312 311 311 308 307 305 305 304 303 303 302 300 300 300
326 326 325 324 322 322 324 325 324 321 322 323 323 325 324 327 326 327 326 325 324 323 322 320 318 316 314 313 311 311 312 312 308 307 306 305 304 303 303 303 301 301 301
328 327 327 327 327 326 326 327 326 323 321 322 322 325 326 327 327 327 326 325 323 322 321 320 318 316 315 313 311 310 309 308 306 308 306 305 305 304 303 303 302 301 300
328 327 327 327 327 326 327 328 328 325 322 321 323 324 327 328 327 327 325 324 323 322 320 319 317 316 315 314 312 310 309 307 306 307 305 306 305 304 303 303 302 299 298
327 328 328 328 328 328 330 329 329 327 325 324 324 325 327 328 327 326 325 323 323 321 319 318 316 315 314 312 311 309 307 307 307 308 305 305 305 304 302 300 299 298 298

GFSSE_925_thetae_057.txt.gz
Theta_e
340 341 343 342 341 336 333 331 328 327 327 327 325 324 325 327 331 332 329 329 330 329 329 327 326 327 328 328 327 325 322 320 321 326 327 327 327 329 330 330 330 330 330
338 340 341 341 339 339 335 332 329 327 326 324 323 324 328 332 332 329 328 329 329 328 327 326 326 327 327 325 325 326 327 327 325 324 327 327 328 326 326 327 326 327 327
329 329 334 340 339 339 335 333 329 327 325 323 322 326 331 332 330 327 328 328 328 328 326 325 326 325 321 322 322 323 325 325 327 326 326 325 325 327 327 325 323 324 325
328 330 331 340 339 339 336 333 329 326 324 323 321 326 332 332 327 327 327 326 327 327 325 323 319 320 321 320 320 321 322 323 321 321 322 323 323 323 324 323 323 324 323
337 341 341 341 340 339 337 334 330 326 325 321 321 329 333 331 325 325 326 326 327 326 324 319 317 319 320 320 319 321 320 320 320 319 319 320 321 321 321 321 321 322 322
340 341 341 341 339 338 337 334 328 326 323 320 324 332 333 332 327 325 325 325 326 324 318 312 314 318 318 316 315 321 321 320 313 312 318 320 320 320 319 319 319 319 320
342 341 340 338 333 330 336 334 329 325 320 321 328 333 334 333 330 325 323 321 317 314 313 311 310 315 316 315 316 321 320 320 318 312 317 318 319 318 318 318 317 317 318
340 339 338 336 334 336 336 333 328 326 324 325 329 333 333 333 332 329 321 318 315 313 311 310 309 311 314 315 315 317 320 320 318 315 316 318 318 318 317 317 316 316 316
338 337 337 337 337 335 333 329 326 328 330 329 329 331 332 332 331 331 319 316 315 313 311 311 309 308 312 314 314 314 318 318 317 314 315 317 317 317 317 316 315 315 315
337 337 336 335 333 331 328 327 326 328 330 328 329 329 330 331 331 330 318 316 314 312 313 313 311 310 313 313 314 312 314 314 313 307 316 317 317 316 316 315 314 314 313
334 333 333 331 328 325 323 322 322 328 329 328 330 330 330 330 329 330 317 316 314 313 314 314 313 311 312 313 313 311 311 312 310 306 312 317 317 316 315 314 313 313 312
331 330 329 328 326 324 321 318 324 325 327 327 329 328 328 327 326 321 316 315 314 315 316 315 314 314 314 313 312 311 309 310 308 306 308 317 317 316 315 313 312 312 311
328 328 326 325 323 322 321 321 318 319 324 323 325 325 324 322 322 317 316 315 314 315 316 316 316 318 317 313 312 310 308 308 308 306 304 313 318 316 315 313 312 311 309
322 324 324 323 321 318 319 318 319 318 321 321 322 323 322 320 317 316 316 315 315 315 316 317 318 317 316 315 310 309 307 307 308 308 308 304 317 316 315 313 312 311 309
321 321 322 321 319 319 319 320 319 323 321 322 321 322 320 318 316 316 316 316 315 317 318 317 319 318 316 312 310 308 307 307 308 310 308 301 311 317 316 314 312 310 309
320 320 322 321 319 320 319 318 318 321 321 320 319 322 320 316 317 316 318 317 318 319 319 319 319 318 316 314 311 308 307 307 307 308 309 305 301 310 316 315 313 311 310
318 318 319 319 317 316 316 316 318 318 316 319 320 318 323 322 322 320 322 322 321 321 321 321 319 318 317 314 311 309 306 307 306 307 309 309 308 305 314 315 313 311 310
317 317 318 318 315 315 316 316 316 315 315 315 318 321 322 321 323 324 325 324 323 323 322 321 319 318 316 314 311 308 307 306 306 306 308 309 308 307 311 313 311 309 307
317 317 318 317 315 316 315 315 317 319 319 319 317 317 320 321 323 323 323 323 324 324 323 321 319 319 317 315 312 308 307 307 306 306 307 307 307 306 307 307 307 302 300
318 317 317 318 316 315 318 318 317 317 317 314 315 317 320 320 322 323 322 324 324 323 322 321 320 319 318 316 311 310 308 308 307 306 305 306 306 304 304 303 301 301 300
318 318 318 317 317 317 316 315 315 315 315 317 317 317 321 319 320 323 324 324 325 323 323 321 320 319 318 315 314 309 309 309 308 307 305 305 305 303 302 302 302 301 300
318 318 317 316 314 314 313 315 316 316 316 316 316 317 317 320 324 325 325 325 325 324 323 321 320 319 318 316 311 310 310 310 309 308 305 305 305 304 303 302 302 301 300
319 319 315 316 315 314 314 316 317 318 319 318 321 320 322 324 325 324 324 325 325 325 323 322 320 320 318 315 312 311 309 308 307 308 308 306 305 304 303 303 303 301 300
319 320 318 319 318 316 319 321 320 321 320 322 322 320 319 325 325 326 324 325 325 325 323 323 321 320 318 315 313 311 311 309 306 306 308 307 305 304 304 303 303 302 301
320 320 320 320 318 317 318 321 322 324 320 320 321 322 321 323 324 326 325 326 326 325 323 322 321 320 318 315 313 311 310 309 307 306 305 306 305 305 304 304 303 302 302
324 323 323 322 321 318 319 321 324 326 323 321 320 322 322 326 325 326 326 326 326 325 324 322 321 320 318 316 315 312 310 307 306 307 305 304 304 305 305 304 303 302 302

GFSSE_925_thetae_060.txt.gz
Theta_e
344 342 339 336 338 331 329 328 327 324 323 322 325 332 332 331 329 328 328 328 329 328 328 330 330 330 329 328 328 327 325 326 327 326 327 328 331 330 330 328 328 330 330
340 340 340 337 338 333 329 327 327 326 324 324 325 328 330 329 325 324 323 327 327 328 330 331 331 330 330 329 327 325 324 324 325 328 328 326 326 326 327 326 326 327 329
339 339 335 334 335 338 331 329 328 326 325 324 325 328 329 324 324 324 326 325 326 328 329 330 329 329 329 328 329 327 326 326 325 324 324 325 325 324 325 325 323 325 325
333 340 333 332 336 337 331 329 330 328 328 331 330 330 326 323 322 324 324 324 325 327 329 329 328 323 322 324 324 324 322 322 321 322 322 322 323 323 323 323 323 323 323
328 329 328 327 325 332 334 332 328 325 329 332 331 329 324 321 322 321 322 321 322 325 328 327 320 316 316 322 322 321 320 315 312 316 319 320 321 321 321 321 322 322 321
330 333 329 327 336 337 334 332 330 326 331 331 332 328 324 323 322 321 319 318 321 324 325 319 317 314 317 320 319 317 310 307 311 317 319 320 320 320 319 320 320 320 319
337 340 338 336 337 335 334 332 333 324 330 331 333 328 325 322 322 320 318 317 316 315 317 318 316 314 320 320 320 318 316 311 309 315 318 319 319 319 318 318 318 318 317
337 338 338 337 337 334 332 332 331 328 330 332 333 329 325 323 323 320 317 314 311 310 311 316 314 313 319 321 320 319 317 311 311 315 317 318 318 318 317 317 317 316 316
338 337 336 334 332 331 331 328 325 329 329 332 333 332 327 323 322 319 315 313 310 309 309 312 313 313 312 317 320 319 317 312 309 315 317 318 318 317 316 316 315 315 314
336 336 336 335 334 333 329 327 321 323 328 331 332 331 330 325 321 317 314 312 311 310 309 309 313 313 312 312 317 317 315 310 310 313 315 317 317 316 315 314 314 314 313
336 335 335 334 331 328 326 324 322 324 328 331 331 331 331 329 320 316 314 312 313 313 311 311 312 313 312 311 312 313 312 309 308 311 316 317 317 316 314 314 313 313 312
331 332 333 329 326 326 326 323 323 318 326 329 329 330 330 330 320 316 314 313 314 314 312 311 312 312 312 311 310 311 309 307 307 308 315 316 317 316 314 313 313 312 312
330 329 328 326 323 324 325 325 324 326 328 328 327 328 329 329 318 316 314 314 315 315 314 314 316 316 313 311 309 308 308 307 307 308 312 316 316 316 314 313 312 311 312
327 325 325 323 323 323 326 329 328 327 329 328 328 327 326 324 316 316 315 314 316 316 316 316 318 316 314 311 309 307 307 307 307 307 309 315 316 316 315 313 312 310 311
323 324 324 324 322 324 328 325 326 326 326 327 327 325 322 319 316 316 316 315 316 316 317 318 318 317 315 310 308 307 307 307 309 308 305 308 315 316 315 314 312 310 309
321 322 321 321 321 321 318 317 324 321 322 324 323 321 319 315 315 316 316 316 316 316 317 319 318 317 316 312 309 307 306 307 307 309 308 303 310 315 316 315 313 311 309
319 320 322 320 319 318 319 318 321 322 322 322 322 319 317 315 315 316 316 317 317 318 318 318 319 318 316 314 311 308 307 306 307 307 309 304 305 314 315 315 314 313 311
319 319 319 319 318 317 316 316 319 322 320 322 322 320 316 319 318 317 319 320 319 320 320 319 319 318 317 315 313 309 306 306 306 307 308 307 306 307 308 312 313 311 310
318 318 318 318 318 317 315 319 320 321 319 319 319 322 320 321 322 322 322 323 323 322 322 321 319 318 317 315 313 310 307 306 306 306 307 308 308 308 308 312 312 310 305
318 318 317 317 317 316 316 316 316 316 316 315 316 319 322 321 322 323 323 323 324 324 322 322 320 318 318 317 314 312 307 306 306 306 306 307 307 307 306 307 307 304 301
318 318 317 315 315 316 315 316 316 318 316 315 315 315 319 319 320 323 322 322 323 324 323 322 320 319 319 318 316 309 308 307 307 307 306 306 306 306 305 304 303 302 301
317 317 316 316 316 316 316 316 316 318 317 318 318 318 319 320 321 319 319 322 323 325 324 322 321 320 319 318 313 310 309 309 308 308 306 305 305 305 303 302 302 302 302
317 317 316 317 316 316 316 316 316 316 316 315 316 316 315 313 316 319 320 322 324 324 324 323 322 321 319 318 314 313 307 308 308 309 308 305 305 304 303 302 302 302 302
317 317 317 316 317 315 317 315 315 316 316 315 315 315 315 314 319 319 321 324 324 324 324 324 323 321 320 318 314 311 311 310 306 307 307 307 306 305 304 303 302 302 302
317 317 316 316 315 315 315 314 315 316 316 316 316 316 314 317 318 321 324 325 324 324 324 325 324 322 320 319 317 313 311 309 308 307 306 307 309 308 305 303 303 302 302
318 318 315 315 316 314 314 314 316 317 317 318 318 319 321 322 320 318 323 325 325 324 325 325 324 323 322 319 318 315 314 310 307 307 307 306 304 305 305 305 305 303 303

GFSSE_925_thetae_063.txt.gz
Theta_e
341 338 339 337 336 337 337 328 324 328 335 334 331 329 331 330 331 333 333 332 330 330 331 331 330 329 329 331 331 328 326 326 327 329 328 329 330 330 330 330 329 331 331
343 338 331 333 334 334 336 338 330 324 325 328 328 330 328 328 328 330 329 328 330 331 331 331 330 330 328 328 328 327 327 327 326 325 326 327 327 327 327 327 328 329 329
342 340 331 329 328 327 329 336 334 333 332 335 334 332 329 329 329 327 327 329 330 331 331 331 331 331 330 329 326 324 324 325 325 324 322 324 325 325 324 324 324 326 328
341 339 333 329 329 329 329 330 335 335 333 334 333 331 330 329 327 325 326 330 330 330 330 329 329 329 329 327 324 323 323 322 323 323 322 323 323 324 324 324 324 323 322
340 339 335 331 329 328 326 329 335 333 329 333 331 331 330 329 325 324 328 330 330 330 328 325 325 324 324 324 321 319 317 318 319 320 320 321 321 322 323 322 322 321 319
334 339 334 333 328 326 330 331 330 331 332 332 331 330 330 328 323 323 327 329 329 328 324 319 320 323 324 321 316 312 312 314 317 318 319 319 320 320 320 319 319 318 316
331 332 332 333 330 330 332 332 330 331 329 331 330 330 329 325 322 322 326 328 327 324 318 316 319 320 319 314 311 309 309 313 316 318 319 319 319 319 319 318 317 317 316
332 332 333 331 326 330 335 328 326 326 331 330 330 330 329 325 321 322 322 322 321 316 313 318 320 320 319 318 314 309 309 311 315 317 318 318 318 318 318 317 315 315 315
335 335 334 331 335 334 329 326 324 323 329 329 329 329 326 321 319 316 314 315 316 314 313 315 321 320 319 319 316 312 310 311 314 317 318 318 318 317 317 316 315 314 314
327 330 335 333 333 331 329 325 322 320 327 329 328 327 325 321 316 312 310 309 311 312 312 312 313 318 320 318 315 311 310 310 312 316 317 317 317 317 316 316 314 314 313
332 330 334 332 331 330 326 323 320 321 327 329 325 323 323 319 314 311 310 309 308 311 312 312 312 313 317 317 314 311 309 309 312 315 316 317 317 316 315 315 314 313 312
334 333 332 330 328 327 325 323 319 319 325 325 327 323 321 317 313 311 312 311 310 312 312 312 312 311 312 312 312 309 308 308 310 314 316 316 316 315 314 313 313 312 311
329 330 329 329 327 326 324 322 319 319 320 321 323 326 320 317 314 312 313 313 311 311 312 312 313 311 310 310 310 308 307 308 310 313 315 316 317 315 314 312 312 312 311
327 326 326 327 328 326 324 321 323 327 327 327 325 327 321 317 314 313 314 315 313 314 315 317 314 312 311 309 308 307 307 307 308 310 314 316 316 316 315 313 312 312 311
325 325 325 325 325 325 328 327 328 329 329 330 328 328 325 316 315 314 315 316 315 315 317 318 316 314 311 309 307 307 306 306 307 308 311 315 316 316 315 314 312 311 310
324 324 323 323 324 324 323 323 329 329 329 329 328 328 325 316 315 314 315 316 316 317 318 318 318 316 312 309 308 307 306 307 308 307 307 311 316 315 315 314 313 311 309
322 323 322 323 324 324 325 327 327 323 322 328 327 327 323 316 316 315 315 316 316 317 317 318 318 317 315 311 308 307 306 307 307 308 307 305 309 315 315 315 314 313 311
321 321 321 321 323 324 323 320 316 322 326 326 325 324 319 316 316 316 317 317 317 316 316 318 318 317 315 314 311 308 307 306 307 307 307 307 306 311 315 315 314 314 312
320 320 320 320 321 320 317 321 322 322 323 323 322 320 317 316 316 315 316 317 317 318 318 318 319 318 317 315 314 310 307 306 307 307 307 307 307 307 311 314 314 312 310
319 319 319 319 319 318 318 320 320 321 322 322 320 317 316 317 316 316 319 321 321 319 319 320 320 319 318 317 315 311 308 307 306 306 306 307 308 307 308 309 311 312 310
319 319 319 318 317 317 316 317 320 320 320 319 322 320 321 322 322 322 323 323 324 323 323 323 321 320 317 316 314 311 310 307 306 306 306 306 307 307 307 307 307 307 307
318 318 317 317 317 316 317 318 318 318 316 316 317 318 317 321 321 322 323 323 322 323 323 323 322 320 318 317 316 309 306 308 307 306 306 305 306 306 306 305 305 304 303
318 317 316 316 316 316 316 316 316 317 316 316 315 315 316 317 319 320 319 322 322 322 322 323 322 319 319 318 317 315 307 308 307 308 307 306 305 306 305 305 304 303 302
316 316 316 316 315 315 315 316 316 315 316 316 315 315 315 317 318 316 318 320 321 321 323 323 323 322 320 319 315 314 312 310 308 309 307 308 306 304 304 304 303 302 302
316 316 316 316 316 315 315 315 315 315 316 316 316 316 317 317 317 316 314 317 318 318 322 324 324 323 322 319 317 314 310 309 311 307 310 306 307 306 306 305 304 303 302
316 316 316 316 315 316 315 315 315 315 315 315 315 315 315 315 315 315 314 315 320 321 323 324 324 324 323 321 319 318 316 312 309 307 306 307 308 309 309 309 307 303 303

GFSSE_925_thetae_066.txt.gz
Theta_e
340 340 338 337 338 337 340 340 340 337 335 336 334 333 335 335 335 335 335 335 334 334 334 333 334 333 331 331 331 328 329 329 329 329 329 331 330 331 331 330 330 331 331
341 341 338 338 336 330 336 339 339 338 333 336 336 335 335 335 335 335 334 332 331 331 330 330 330 331 331 330 326 324 325 326 326 326 327 327 328 330 330 329 329 329 329
341 339 337 335 334 331 329 336 337 338 333 336 335 335 334 334 333 332 332 331 331 331 330 329 328 328 328 328 327 327 324 323 323 324 324 323 325 325 326 327 327 326 326
341 336 334 332 330 330 329 325 328 336 336 334 333 331 332 331 331 332 332 331 330 330 329 329 330 328 327 324 325 325 324 322 322 322 322 323 323 326 324 323 323 322 321
340 335 333 329 328 328 328 328 326 328 332 327 328 332 331 331 331 332 331 330 330 332 332 332 331 328 323 322 321 322 322 322 321 321 322 322 322 323 322 321 320 318 319
340 336 331 328 328 326 326 328 328 328 330 332 330 331 330 331 332 331 329 329 328 328 330 330 330 323 321 318 318 317 316 317 318 319 320 320 321 321 320 318 318 318 317
340 339 331 329 329 328 328 327 329 327 328 331 329 330 329 330 331 330 329 327 324 323 328 328 325 320 312 309 311 313 315 317 318 318 319 320 320 319 318 317 317 315 316
334 338 336 331 330 328 327 329 330 329 332 331 327 329 328 329 330 330 328 324 317 317 323 323 321 313 311 309 311 313 315 317 317 317 318 319 319 318 317 316 316 315 315
331 335 334 333 332 330 330 331 330 326 329 330 328 327 327 328 329 329 326 316 315 318 320 319 317 316 311 310 310 311 313 315 316 317 318 318 319 318 317 316 315 314 313
335 334 333 332 331 331 331 330 326 322 319 325 328 328 326 326 326 325 318 313 316 320 320 319 318 317 314 311 310 310 312 315 316 317 317 318 318 317 316 315 315 314 312
329 331 332 331 328 328 327 326 326 326 324 327 327 326 323 321 320 319 315 312 313 316 320 320 319 318 314 311 309 309 310 313 315 317 317 317 317 317 316 315 314 313 312
332 331 331 325 329 328 328 327 323 327 323 321 322 324 319 317 312 311 312 312 312 312 313 318 319 318 314 311 309 309 310 312 314 316 316 316 317 316 315 314 313 312 312
330 331 330 329 328 327 325 322 320 321 323 325 322 321 318 314 310 309 310 312 312 312 312 314 316 314 312 310 309 308 309 310 313 315 316 316 316 316 315 314 313 312 311
329 330 329 328 326 324 321 320 322 323 323 323 322 321 317 312 311 310 310 311 312 313 312 311 311 310 310 309 308 308 308 310 312 314 316 316 316 316 314 314 313 312 311
326 327 327 326 325 323 321 320 320 322 323 324 321 320 317 312 312 312 311 311 312 314 313 312 310 310 309 308 307 307 308 309 311 314 315 316 316 316 315 314 314 313 311
325 326 325 327 326 324 322 321 321 323 323 322 321 322 317 313 313 314 312 312 314 316 316 314 315 313 309 308 307 306 306 308 310 312 314 316 315 316 316 315 313 312 311
324 325 324 325 325 326 324 323 325 323 323 324 324 325 318 314 313 315 315 314 315 317 317 317 315 313 310 307 307 306 306 307 307 308 310 312 315 314 314 315 314 313 311
322 323 324 324 325 326 327 326 325 326 325 325 326 324 317 315 314 315 315 316 316 317 318 318 317 315 312 310 309 307 307 307 307 307 307 307 310 313 314 315 314 314 312
321 322 322 322 324 323 322 320 323 326 325 321 324 324 320 316 315 315 316 315 316 316 317 318 318 318 316 313 312 309 308 306 307 307 307 307 307 308 311 314 315 314 313
319 320 321 321 322 322 321 320 323 318 317 320 324 324 322 316 316 315 315 315 317 317 317 317 318 318 317 316 313 311 309 307 306 306 307 307 307 307 307 311 314 314 313
319 319 320 320 320 319 319 320 320 321 321 323 323 322 321 316 316 316 316 316 317 317 319 319 319 319 318 317 315 312 311 308 307 307 306 306 306 307 307 308 310 312 312
319 319 319 319 319 319 318 320 320 318 320 322 319 319 319 317 316 316 317 320 321 322 321 321 321 321 319 317 314 310 308 310 311 309 307 306 306 306 307 307 309 310 309
318 318 318 318 318 318 318 317 318 319 319 319 320 320 321 321 320 320 320 321 322 322 323 323 323 322 320 318 316 316 308 309 307 309 309 307 306 305 306 307 307 307 307
316 318 318 317 317 317 316 316 317 319 319 318 317 317 318 319 319 319 320 320 320 322 321 322 322 322 321 318 315 315 314 311 308 310 309 308 307 306 305 306 306 305 305
315 317 316 317 316 316 316 316 317 317 318 317 316 315 316 316 316 317 317 316 316 319 319 319 321 322 322 320 318 317 313 310 309 311 311 308 307 308 307 306 306 305 305
315 316 315 315 316 316 316 315 316 316 317 316 316 316 315 315 315 315 316 316 316 315 316 318 319 321 323 322 320 318 317 313 309 309 308 309 310 309 309 308 304 307 310

GFSSE_925_thetae_069.txt.gz
Theta_e
341 342 338 332 334 333 342 340 338 337 334 333 333 329 326 334 333 334 334 335 335 335 336 336 336 334 334 334 333 332 330 330 329 330 332 332 332 332 331 331 331 333 331
341 340 336 337 337 338 340 340 339 336 333 333 332 327 332 334 334 335 335 335 335 335 335 334 333 331 332 332 329 328 328 327 327 328 330 331 331 331 330 329 329 330 330
340 340 339 336 336 337 342 341 338 335 334 332 327 331 333 335 335 335 334 334 333 333 333 333 331 330 329 329 326 326 326 325 325 326 326 327 330 329 328 327 326 326 326
340 340 337 336 336 339 340 340 338 337 334 330 333 334 335 335 334 333 332 331 330 329 330 329 329 329 328 326 324 323 323 323 322 323 324 325 326 326 325 324 322 323 322
340 338 336 335 330 337 338 337 339 339 338 333 334 335 334 334 333 332 331 330 329 328 328 328 327 327 327 325 323 320 323 322 323 323 325 324 323 323 321 320 321 319 319
338 335 335 333 331 331 337 336 336 337 335 334 333 333 332 332 331 331 329 329 329 329 329 329 327 323 322 322 320 321 321 321 322 322 322 321 321 319 319 320 318 318 317
337 334 332 332 331 328 331 334 336 335 332 330 330 328 331 331 330 329 330 331 331 332 330 327 323 318 318 317 316 317 318 318 319 320 320 320 320 320 319 318 317 317 316
335 335 331 330 329 329 328 328 327 330 331 331 331 329 330 329 329 329 329 328 329 329 328 321 314 310 310 312 314 314 316 317 319 319 320 320 319 318 318 317 316 316 315
334 333 332 331 330 329 329 329 328 327 332 331 329 330 328 328 329 328 326 324 328 328 324 316 309 309 310 312 314 315 315 318 318 319 319 319 318 318 317 316 316 315 314
332 333 332 331 330 330 329 329 328 328 331 329 329 329 329 329 329 327 321 320 326 324 320 313 310 310 310 312 314 315 315 316 318 318 318 318 318 318 317 316 315 314 314
328 329 331 332 331 330 330 331 330 328 325 325 327 328 329 330 328 324 319 318 322 320 316 314 312 311 310 311 313 314 315 317 317 318 318 318 318 317 317 316 314 314 313
331 332 330 327 328 330 329 328 325 322 323 321 325 327 328 328 326 316 316 320 320 319 318 316 313 311 314 316 315 315 316 317 317 317 318 318 318 317 316 315 314 313 313
331 331 329 327 326 327 326 325 324 322 317 319 323 326 326 325 320 314 315 321 321 320 321 319 315 316 315 316 313 315 316 317 317 317 317 317 318 317 316 314 314 313 312
329 330 329 327 327 327 326 326 327 323 324 324 322 323 321 320 316 313 313 315 319 323 323 319 316 311 310 308 309 310 315 316 317 317 316 317 317 317 316 315 313 312 312
327 330 328 327 328 327 326 325 325 322 321 320 325 321 316 312 313 313 312 312 313 316 317 317 314 312 309 309 308 308 310 315 317 317 317 316 316 316 316 316 314 313 311
326 327 327 325 326 326 324 323 323 323 322 324 324 318 312 309 309 312 312 312 312 313 312 312 311 311 310 308 308 308 309 312 315 317 317 316 316 316 315 316 315 314 312
324 326 326 325 324 323 321 321 322 323 324 323 324 319 311 310 309 312 312 313 314 311 311 311 310 309 308 307 307 307 308 309 310 314 316 317 316 316 316 315 314 314 312
323 324 325 325 325 323 321 320 322 323 323 324 322 322 313 312 311 310 311 313 316 314 314 313 311 310 308 307 307 306 306 307 308 309 312 315 316 316 315 315 314 314 312
321 322 324 325 324 324 323 322 321 323 323 324 322 320 320 313 313 312 311 314 317 317 316 316 316 314 310 308 309 307 307 307 307 307 307 309 311 314 315 315 314 314 313
320 321 323 323 324 324 324 323 324 322 323 322 321 321 322 315 314 314 314 314 316 318 317 317 318 315 314 311 308 308 308 308 306 307 306 306 306 308 311 315 316 315 314
319 320 321 322 323 324 323 322 324 323 324 323 320 322 322 317 314 315 315 315 316 316 317 318 318 317 317 315 313 311 310 309 307 306 306 306 307 306 306 307 314 315 315
318 319 319 321 321 322 321 319 319 320 321 321 319 322 321 317 315 314 315 315 315 315 317 318 317 318 318 317 316 314 318 315 312 310 307 307 306 306 306 307 307 309 311
318 317 319 319 320 320 320 319 319 319 318 319 318 320 320 319 317 316 315 315 316 317 317 318 319 319 320 318 316 319 317 321 315 311 311 310 307 306 306 306 307 307 308
318 317 319 319 319 319 319 319 319 319 317 318 319 320 319 319 317 316 316 317 318 320 320 319 319 322 322 320 316 316 317 315 320 320 312 310 309 308 308 306 306 306 307
317 317 319 319 319 318 318 318 318 319 319 319 318 317 316 317 317 317 317 317 319 318 320 320 320 321 321 321 319 317 315 313 313 316 321 314 310 311 311 311 310 306 306
317 316 318 317 317 318 317 317 318 319 320 318 317 317 317 319 319 319 317 317 318 317 318 318 319 320 320 321 320 318 317 317 314 311 313 314 313 313 314 313 310 311 306

GFSSE_925_thetae_072.txt.gz
Theta_e
343 344 338 339 342 339 338 336 335 332 333 336 339 333 327 329 335 333 331 334 335 336 337 337 337 337 336 336 334 333 332 332 332 333 333 334 334 334 333 332 333 333 332
343 344 337 338 344 346 343 339 335 335 337 340 337 332 331 333 334 333 334 336 335 336 337 336 336 335 335 333 331 330 330 330 331 331 331 333 332 332 331 330 331 331 329
342 343 341 338 342 343 343 340 336 335 339 337 332 328 332 334 334 335 335 335 334 335 336 335 334 333 332 329 328 328 328 329 329 330 330 331 331 330 329 328 327 327 327
342 341 341 337 337 342 343 340 338 338 337 335 329 332 335 335 335 335 335 334 333 334 334 333 332 331 330 327 326 326 326 326 325 327 328 328 328 327 326 325 325 325 324
342 340 339 336 333 335 341 341 340 339 338 335 331 335 335 336 335 335 334 333 332 333 333 330 329 330 327 326 325 324 323 323 324 325 324 324 324 324 324 322 322 322 322
340 340 337 333 331 325 336 340 340 339 337 335 335 335 335 334 334 332 331 329 329 329 330 329 330 327 323 322 323 322 323 324 324 323 323 322 321 322 321 320 320 320 319
338 337 327 333 330 329 331 338 339 338 336 335 336 335 334 333 332 330 328 327 328 328 329 328 328 325 321 320 322 322 322 322 322 321 321 321 321 320 320 319 318 318 317
337 337 338 334 331 333 333 339 338 338 336 335 334 333 333 332 331 329 329 330 328 328 327 325 322 321 320 320 320 320 319 320 320 321 321 320 320 320 319 318 318 317 316
335 335 337 335 334 332 334 333 332 337 335 334 333 331 333 330 329 329 331 331 330 327 321 318 319 317 315 317 317 317 319 320 320 320 320 319 320 319 318 318 317 316 316
334 335 333 334 334 333 332 330 331 333 333 333 331 331 329 329 329 330 330 329 329 324 314 310 311 312 313 314 315 317 318 319 320 320 319 319 319 319 318 317 316 315 315
332 333 333 333 333 334 332 330 328 329 330 328 328 328 329 330 329 328 328 328 328 319 310 310 311 312 314 315 315 315 318 319 319 319 319 319 319 319 317 316 316 315 315
333 334 334 333 333 330 329 329 329 329 330 327 325 325 328 329 328 325 328 327 325 316 310 311 310 312 316 317 316 317 318 319 319 319 318 319 319 318 317 316 315 314 314
333 333 332 328 327 325 329 329 328 330 329 326 325 325 327 328 325 325 327 327 324 317 317 316 315 317 317 317 317 317 319 319 319 319 318 318 319 318 316 315 315 314 313
330 331 330 329 326 327 325 323 323 323 325 323 321 323 327 325 324 325 326 325 323 322 320 318 318 318 318 317 317 318 319 318 319 318 318 317 318 318 316 315 314 313 312
331 330 330 328 326 326 325 324 323 322 321 322 324 324 326 323 321 322 324 325 324 324 322 320 319 318 316 316 317 318 318 319 319 318 317 317 317 317 317 316 314 313 312
329 328 329 327 327 326 326 326 325 321 319 320 324 324 324 322 319 318 320 323 324 324 323 320 317 316 315 315 316 316 317 318 319 319 318 317 316 317 318 317 315 314 312
326 326 327 327 326 326 326 326 324 323 323 322 323 323 322 320 318 318 317 318 319 320 319 318 317 315 314 314 315 315 316 317 318 319 319 318 316 316 316 317 316 315 313
325 325 326 325 325 323 324 324 323 323 322 320 322 321 319 317 315 315 317 317 317 318 316 316 315 314 313 313 313 313 314 315 316 317 318 318 318 317 316 315 315 315 314
325 327 325 325 324 323 323 323 323 321 322 324 322 318 316 315 313 316 317 317 318 316 315 316 315 314 313 312 312 311 310 311 313 314 316 317 318 317 317 316 315 314 313
324 324 324 324 324 323 323 322 322 322 322 323 323 317 313 316 312 316 317 319 319 318 318 317 317 316 315 314 313 312 312 312 312 311 311 313 315 316 317 317 316 315 314
322 323 324 323 324 323 323 322 322 323 322 323 321 321 315 317 317 317 316 319 320 319 320 320 320 319 317 316 315 315 314 314 313 313 312 311 311 311 314 316 316 317 316
322 322 323 322 323 323 322 323 323 322 324 323 322 318 319 320 318 319 317 318 320 321 322 321 321 320 321 318 319 321 323 319 316 315 314 313 313 312 311 312 314 315 315
321 322 323 322 322 323 324 325 323 322 322 322 322 319 318 321 318 318 314 314 316 319 321 321 321 322 322 320 320 322 324 325 323 320 317 315 313 312 312 310 309 309 313
323 321 322 321 323 321 322 321 322 323 321 322 321 321 321 322 318 316 315 315 316 316 320 321 320 322 323 323 320 320 322 322 323 323 318 317 315 313 310 309 310 310 310
323 321 321 322 323 321 320 322 321 322 319 319 320 319 318 320 318 317 315 315 315 315 316 318 319 321 323 321 322 322 320 320 320 321 324 321 315 312 310 309 308 309 308
323 322 321 322 322 322 322 321 320 320 320 319 319 319 319 319 319 317 316 316 316 316 319 318 319 319 319 321 320 322 323 323 322 321 323 322 321 318 313 314 314 311 309

GFSSE_925_thetae_075.txt.gz
Theta_e
343 348 339 338 344 343 341 339 335 333 333 335 335 333 335 337 334 334 333 333 335 336 337 338 338 338 337 337 334 333 333 333 334 334 334 335 335 335 334 333 333 334 333
343 348 338 337 343 346 343 342 341 335 333 335 335 334 335 336 335 332 333 335 336 338 338 337 337 337 336 334 333 332 333 332 332 333 333 335 334 333 332 331 331 331 330
344 346 342 338 342 343 343 341 341 340 336 335 335 334 334 334 333 335 336 336 337 337 337 336 336 336 335 331 330 330 330 330 331 332 331 332 332 331 329 328 328 329 328
343 344 343 339 339 342 342 341 341 340 339 337 334 332 334 334 334 336 336 336 335 336 336 336 335 334 331 329 330 329 329 330 329 328 330 329 329 329 328 327 327 326 326
345 343 342 339 337 337 337 332 339 340 340 336 332 332 334 334 336 336 335 334 334 335 335 335 333 331 328 327 327 327 326 327 328 327 326 328 327 326 326 325 324 324 323
344 342 339 337 334 332 328 326 335 339 339 337 333 333 334 335 336 334 334 333 333 333 333 332 329 328 326 326 326 324 324 325 326 324 324 324 325 324 323 322 321 321 321
343 342 340 336 329 328 328 326 324 338 338 335 335 336 336 335 335 334 332 332 332 331 330 328 327 326 325 324 321 324 325 324 324 322 322 322 322 322 321 320 320 319 319
341 342 337 333 331 329 326 327 324 337 336 334 336 336 335 334 334 332 330 329 329 329 328 327 325 322 322 321 321 322 322 322 322 321 322 321 321 321 320 319 318 318 318
338 340 340 339 333 330 328 328 329 336 335 335 336 335 334 333 331 328 327 328 328 326 326 326 323 318 320 320 321 320 320 321 322 321 320 320 320 320 319 318 318 317 317
338 337 338 338 337 336 333 332 332 333 335 333 334 334 334 331 329 328 329 329 327 325 323 320 318 319 319 320 317 319 320 321 321 320 321 320 320 319 318 317 317 317 316
337 335 335 338 337 336 335 333 331 331 333 332 332 331 328 330 330 331 332 329 325 317 318 316 315 316 316 316 318 319 320 321 321 320 320 319 320 319 318 317 317 316 316
336 337 336 336 336 334 334 330 329 330 332 333 329 327 327 326 330 331 331 330 320 312 312 312 312 313 316 316 318 319 321 321 321 320 320 319 319 318 317 317 316 316 315
335 335 336 336 336 335 333 331 329 329 330 331 328 323 323 324 328 328 330 328 318 312 318 316 314 318 318 316 319 320 320 321 320 319 319 319 319 318 317 316 315 315 314
335 335 335 333 331 329 326 326 328 328 329 328 324 321 325 325 327 328 327 326 319 318 318 317 318 319 319 318 320 320 320 320 320 319 318 319 318 318 317 316 315 314 313
334 333 334 333 330 329 325 325 326 327 328 326 324 322 324 325 326 326 327 325 320 321 320 317 320 320 319 319 319 320 320 320 320 319 318 317 318 318 317 316 315 314 313
332 333 331 333 329 328 325 324 323 325 325 325 324 323 324 325 325 326 326 325 323 323 321 320 320 319 318 318 319 320 320 321 320 319 319 318 317 317 317 317 316 315 313
330 330 330 330 329 326 327 325 324 322 322 323 321 321 320 323 324 325 325 325 324 324 322 321 319 318 317 317 318 319 319 320 321 320 319 318 317 317 317 316 316 315 314
329 329 328 327 328 327 326 326 324 323 321 324 322 322 322 322 321 324 325 325 325 324 323 320 318 317 317 317 317 318 318 319 319 320 320 319 318 317 317 317 317 316 314
328 328 328 327 325 325 326 325 324 322 321 322 323 323 323 322 321 320 320 321 322 322 320 319 317 316 316 316 316 316 316 317 318 319 319 320 319 318 318 315 316 316 315
327 328 327 326 324 324 325 325 324 323 323 321 323 322 321 322 320 318 318 319 319 319 318 318 318 318 317 316 314 314 314 314 315 316 317 318 319 319 319 319 316 315 314
327 326 327 325 325 324 324 324 323 324 321 320 321 321 319 319 319 319 319 320 319 317 317 319 319 319 318 317 316 316 316 316 316 315 314 315 317 318 318 318 319 318 316
326 325 326 326 326 324 323 324 324 322 322 322 322 321 316 319 319 318 319 321 320 319 320 321 321 321 320 318 318 319 321 318 317 317 317 315 314 314 315 317 318 318 318
326 325 326 325 324 324 325 325 324 323 322 322 323 322 316 316 318 317 318 320 321 322 322 322 323 323 323 321 321 322 325 325 323 320 318 317 316 316 315 314 314 316 316
326 325 324 325 324 324 324 324 323 323 323 322 322 322 321 317 317 319 321 321 321 322 323 324 324 324 322 321 321 322 323 324 323 325 321 320 319 317 316 316 314 312 313
327 325 325 324 325 324 325 324 323 323 322 323 322 321 320 319 320 319 320 318 317 319 321 322 323 323 323 320 319 322 322 323 323 322 322 322 320 319 317 316 313 311 312
328 325 325 324 325 325 324 325 325 325 323 323 322 321 319 318 318 320 319 317 315 316 316 318 319 318 319 321 319 321 320 322 322 323 324 323 322 320 317 314 313 313 316

GFSSE_925_thetae_078.txt.gz
Theta_e
348 344 339 338 345 341 342 341 342 337 334 333 332 329 330 332 334 333 332 331 333 335 338 338 337 338 335 335 333 333 333 334 334 335 335 336 336 336 334 333 333 333 333
348 345 338 335 344 343 341 341 341 337 335 335 332 329 333 333 333 332 331 334 334 337 339 338 337 337 336 333 332 332 332 332 333 333 334 334 334 334 332 331 330 331 331
347 348 339 336 340 345 343 340 340 340 339 337 333 333 334 334 333 333 334 335 337 337 338 337 337 336 335 332 332 331 331 331 332 332 331 331 332 332 331 328 328 327 327
343 345 344 336 338 342 344 339 339 339 339 339 334 334 333 333 332 335 336 336 336 336 337 337 335 335 332 330 330 330 330 331 330 329 329 329 330 329 328 326 326 326 326
344 345 344 339 338 341 340 334 336 337 339 339 335 335 333 332 333 336 336 336 336 336 337 336 334 331 329 328 328 328 328 328 328 327 326 326 326 327 327 326 325 324 324
343 344 343 340 335 337 337 335 328 327 331 336 336 335 333 333 335 335 334 335 335 335 335 333 331 328 328 327 327 328 328 328 326 327 326 325 324 326 324 323 323 322 322
342 343 342 339 337 334 335 335 331 327 329 334 335 335 334 334 335 334 334 333 334 334 332 331 328 327 327 326 324 325 325 325 323 323 324 323 322 323 322 321 321 320 320
341 342 343 340 335 332 329 330 326 325 325 329 334 335 335 336 334 334 332 333 332 331 330 327 326 326 325 321 324 324 323 322 322 322 322 321 321 321 320 320 319 319 318
340 340 341 338 334 331 330 329 328 326 325 330 333 336 335 335 334 332 332 331 330 328 326 325 325 325 319 322 323 321 321 322 322 321 321 321 321 320 319 319 319 318 318
338 336 340 341 339 334 330 329 328 329 325 325 332 335 335 334 333 331 330 329 328 327 325 320 319 320 318 322 321 321 322 322 321 320 320 320 320 320 319 319 318 318 317
336 337 337 339 338 336 335 332 332 328 324 332 332 332 333 332 330 329 329 327 326 325 323 320 318 317 319 320 320 321 322 321 322 320 319 320 320 319 319 318 317 316 316
337 336 335 336 337 335 335 333 332 330 331 327 332 331 332 329 327 328 328 326 322 321 317 318 316 316 314 319 320 321 321 321 321 320 318 320 320 319 318 317 316 316 316
336 337 337 335 335 334 333 332 330 331 331 328 332 330 330 328 326 328 328 324 321 314 315 313 313 314 314 319 319 321 321 321 320 320 318 319 319 318 317 317 316 315 314
336 335 335 335 334 334 333 332 331 328 331 331 329 329 326 325 327 328 326 318 315 311 313 311 314 318 315 318 320 321 321 320 320 319 319 318 318 318 317 316 316 315 313
336 334 334 333 331 329 326 325 329 330 331 329 327 326 324 324 326 326 325 316 315 313 313 312 319 319 317 317 321 320 320 320 319 318 319 318 317 318 317 316 315 314 314
334 334 333 333 330 328 325 326 328 327 328 326 325 324 323 323 326 321 325 317 321 317 313 319 321 320 320 320 320 321 321 320 319 318 318 318 317 317 317 317 316 315 314
332 333 332 333 330 329 326 325 325 326 326 325 322 324 323 325 323 325 325 320 322 319 317 320 320 320 319 319 320 320 321 320 319 319 317 317 317 317 316 317 316 315 314
331 331 331 330 331 328 327 324 324 325 325 324 324 324 325 324 323 325 324 323 324 321 320 321 320 318 319 319 320 320 320 321 321 319 318 318 317 317 317 316 315 316 315
330 329 330 328 327 328 327 325 324 324 324 323 323 323 322 322 323 323 324 325 325 322 322 320 319 318 318 318 318 319 319 320 320 320 319 318 317 316 316 317 316 316 315
330 329 328 326 326 327 326 325 324 322 322 322 321 317 317 322 317 318 323 324 325 324 322 319 319 318 317 317 317 317 317 318 319 319 320 319 318 318 317 316 315 316 315
329 329 328 326 325 325 325 324 323 322 323 323 322 322 321 321 321 322 321 321 321 321 319 318 317 316 316 316 315 315 314 314 316 317 318 318 319 320 319 318 317 315 314
328 329 327 327 325 324 324 324 324 323 323 323 322 320 320 321 321 320 320 319 320 320 318 318 320 319 318 317 318 317 318 317 316 315 314 315 318 319 319 318 319 318 318
328 327 327 326 326 324 325 325 324 323 322 322 322 320 321 321 322 320 320 320 319 318 319 319 320 320 320 318 317 320 322 321 319 318 317 317 315 314 316 317 318 319 319
328 327 327 325 326 324 324 325 324 323 323 322 321 321 320 319 320 320 320 322 320 320 321 320 321 322 322 320 318 320 322 323 321 321 320 318 318 316 315 315 315 315 317
329 328 326 326 324 325 324 325 325 324 323 322 323 322 321 318 319 318 318 320 320 322 321 322 323 323 323 322 321 320 320 321 321 321 320 321 320 318 319 317 316 316 314
329 327 326 325 326 324 325 324 324 324 323 323 322 322 322 320 316 319 321 320 321 322 323 323 323 323 322 321 320 319 320 321 321 321 320 321 321 321 320 318 317 316 315

GFSSE_925_thetae_081.txt.gz
Theta_e
345 342 340 342 339 340 341 341 338 336 335 334 333 333 336 336 336 336 336 335 335 335 339 340 339 339 338 334 334 335 335 335 335 335 336 336 336 335 333 333 333 333 332
346 341 338 343 341 339 341 341 341 336 335 333 333 332 333 335 335 333 332 328 329 335 338 338 339 339 336 332 332 333 334 334 334 335 335 335 335 334 332 332 331 331 330
348 344 338 341 344 340 340 340 339 340 336 334 331 330 332 331 330 328 329 330 333 335 338 337 337 338 334 332 332 332 333 333 333 332 332 331 332 332 330 329 329 329 328
346 345 341 337 344 344 340 340 339 337 337 335 332 332 332 330 328 330 332 336 336 336 336 336 335 337 331 331 331 331 331 331 330 330 330 330 331 331 329 328 327 326 326
345 345 344 336 340 344 343 341 340 338 338 338 335 332 332 330 330 332 335 336 336 336 337 336 335 332 330 329 330 330 329 329 328 327 327 327 327 328 327 325 325 324 324
342 344 344 339 337 339 339 339 339 336 336 333 336 334 332 331 335 335 335 335 336 337 336 335 331 329 327 329 330 329 328 326 326 325 325 325 325 326 325 324 323 323 322
342 342 343 341 337 339 336 333 332 334 330 325 327 335 335 334 336 335 335 335 336 335 333 331 328 326 328 328 328 329 325 326 325 324 324 323 323 324 323 322 321 321 320
342 343 342 340 337 335 336 334 331 327 328 327 326 329 334 335 335 334 334 334 335 333 331 328 327 326 327 328 327 324 323 324 324 323 322 321 322 321 321 321 320 320 319
340 341 341 340 337 334 332 330 328 325 325 326 325 326 333 335 334 332 333 334 333 331 329 327 326 326 325 324 323 321 322 322 321 320 321 320 321 320 320 319 319 319 319
336 336 340 339 337 334 332 330 327 327 325 325 327 329 335 334 334 333 333 333 331 328 327 326 326 323 323 324 321 321 322 321 320 319 320 320 320 320 319 319 319 318 318
335 334 336 340 339 335 332 329 327 328 325 326 326 327 333 334 333 333 332 330 327 324 325 325 324 318 323 321 321 321 320 320 319 318 319 319 321 320 319 319 318 318 317
336 335 334 337 337 336 335 331 329 329 326 326 326 331 332 333 333 332 330 328 326 321 320 320 318 321 321 320 321 321 320 320 320 318 319 319 320 319 319 318 317 317 317
336 336 335 335 335 334 334 333 332 327 325 324 326 331 331 332 331 329 328 327 325 322 316 318 317 320 319 320 321 321 321 320 319 317 318 319 319 319 318 318 317 316 316
335 336 336 336 335 334 333 331 331 329 326 326 329 331 331 330 329 328 326 324 321 319 316 315 314 314 320 320 321 321 320 320 318 317 318 319 319 319 318 317 317 316 315
335 335 334 334 333 333 332 332 330 329 329 326 330 330 329 327 326 326 325 319 317 314 312 311 311 315 319 320 320 321 320 320 318 317 317 317 318 318 318 318 317 315 314
335 334 334 332 331 329 327 326 329 330 330 328 330 330 327 325 327 326 322 316 314 311 310 315 314 316 318 319 320 320 320 319 318 316 317 317 317 318 318 317 317 316 314
334 333 334 331 329 328 324 325 325 328 328 328 328 328 326 326 327 325 318 314 311 309 316 320 319 317 317 320 320 321 320 319 318 315 317 316 317 317 317 317 316 316 315
333 332 332 331 329 328 324 325 325 327 326 326 326 325 325 326 327 326 316 318 313 309 318 320 320 320 319 319 320 321 320 319 319 317 316 316 317 317 317 316 316 316 315
332 331 330 331 329 327 324 324 324 325 325 325 325 324 323 325 324 325 318 321 317 314 318 321 320 319 319 319 320 320 321 319 319 319 316 315 316 316 316 316 316 316 315
330 329 329 327 329 328 325 323 324 324 324 324 324 323 323 323 323 324 320 322 320 318 317 320 319 318 319 319 319 319 320 321 320 319 319 317 315 315 316 316 316 315 315
329 328 327 325 326 326 326 324 323 323 323 323 324 324 324 323 324 324 323 322 324 321 321 319 318 318 318 319 318 318 318 319 320 320 319 319 318 317 316 315 315 315 316
329 328 327 324 324 325 325 324 322 322 323 323 323 323 322 322 323 323 324 322 323 323 322 319 319 318 317 317 316 315 314 314 316 318 318 319 319 318 318 318 317 317 315
328 328 327 324 323 323 325 324 323 322 323 323 321 320 319 321 317 316 319 318 322 323 319 318 318 317 316 316 316 316 318 317 316 315 315 315 317 319 319 319 319 319 318
327 328 326 326 324 323 324 324 323 323 323 323 322 319 319 320 317 320 320 321 321 321 319 318 317 317 317 317 317 317 320 321 318 319 317 316 316 314 316 317 318 318 318
326 327 326 325 325 324 325 324 324 323 323 322 322 320 321 321 321 321 320 320 319 319 318 318 319 319 319 318 317 318 320 321 321 318 319 320 317 318 317 315 314 315 315
326 326 326 325 324 324 324 324 324 323 323 322 322 321 319 319 320 321 320 320 319 319 320 318 319 320 320 319 319 317 319 320 320 320 317 317 319 319 319 319 318 317 315

GFSSE_925_thetae_087.txt.gz
Theta_e
342 342 339 339 339 338 337 337 337 336 337 340 341 340 339 337 338 338 336 335 338 337 336 335 334 335 337 341 338 338 337 336 336 336 336 337 337 338 336 335 334 335 335
338 341 339 338 337 337 337 337 337 335 337 338 341 342 341 339 338 338 335 337 338 339 341 336 335 337 340 338 336 335 334 334 334 334 334 335 335 335 334 332 333 333 333
341 341 340 340 340 335 336 337 337 335 336 339 342 342 341 339 338 337 336 338 338 340 341 339 338 339 339 336 335 334 334 334 333 334 334 333 334 334 332 331 331 331 332
342 341 340 340 342 339 337 336 340 337 334 336 338 340 339 338 336 335 335 338 338 339 339 338 337 338 336 335 335 334 334 333 333 332 332 333 333 332 332 331 331 331 329
343 341 340 340 341 340 339 338 339 339 335 336 336 337 336 335 335 334 336 338 338 337 336 337 336 336 335 334 334 333 333 332 331 330 330 330 330 331 329 328 327 326 325
343 341 340 341 340 340 340 340 339 339 338 338 337 335 334 334 334 335 336 336 336 334 334 334 335 334 333 333 333 333 331 330 330 329 328 328 328 329 326 325 324 324 323
343 342 340 339 341 340 340 339 339 337 337 334 331 331 330 329 329 330 331 332 334 335 335 334 334 333 332 332 331 330 330 328 327 327 326 325 325 325 325 323 323 322 321
342 342 340 339 340 342 341 340 339 337 335 331 329 328 329 327 325 326 329 331 333 333 335 333 333 331 331 330 329 328 327 326 326 325 324 323 323 324 322 322 321 321 320
342 342 340 339 340 341 341 341 339 338 334 332 331 330 329 325 326 326 329 331 333 333 332 333 331 329 327 328 327 327 326 325 325 323 323 322 322 323 322 321 320 320 319
341 341 339 338 338 337 336 335 338 334 333 332 330 330 327 327 326 325 328 330 332 333 332 332 330 327 325 326 325 325 324 324 323 322 321 321 322 322 321 319 319 319 319
340 340 339 337 335 336 335 331 331 331 329 327 327 325 327 328 327 326 329 330 332 331 331 330 329 327 323 325 325 324 323 322 322 321 321 321 321 321 321 319 319 319 319
335 336 338 337 334 334 334 333 331 329 327 326 326 326 329 327 330 327 325 329 330 330 329 330 328 322 322 325 324 323 321 321 320 320 320 320 320 320 321 319 319 319 319
334 334 334 337 335 335 333 332 330 327 326 325 325 328 331 328 328 328 329 331 330 328 329 329 323 320 322 323 322 320 320 319 318 319 319 320 321 321 320 320 319 319 318
333 333 333 336 334 334 334 331 328 327 326 325 326 325 328 328 327 329 330 330 329 328 327 326 322 320 321 322 321 320 318 317 318 319 320 320 320 320 320 319 319 318 318
333 334 333 335 335 334 335 334 329 327 326 326 327 326 326 327 327 330 330 330 327 327 326 325 320 320 321 321 320 319 316 317 318 319 319 319 319 320 320 319 319 318 317
334 334 333 335 334 334 333 332 332 329 329 325 327 326 326 329 330 330 328 328 326 326 325 323 320 319 320 320 320 319 318 317 317 318 319 319 319 319 320 319 319 318 317
334 334 334 334 334 333 330 330 332 331 328 325 326 327 330 330 330 328 328 326 324 325 324 320 319 318 320 320 319 319 319 318 318 318 318 318 318 319 319 319 319 318 317
334 334 334 334 332 331 330 331 330 330 328 327 327 327 329 329 329 327 327 325 322 324 323 320 318 318 320 320 320 320 319 318 318 317 318 318 318 318 318 318 317 317 317
333 333 333 332 329 328 327 326 329 329 329 327 329 328 327 329 328 326 326 324 320 317 318 319 317 318 319 320 320 319 318 318 318 317 317 317 317 317 317 317 317 316 316
332 331 331 330 328 326 324 323 325 325 326 327 327 328 328 328 328 325 324 322 319 316 317 318 316 317 319 320 319 319 318 318 317 316 316 317 316 317 317 316 316 316 316
330 330 330 328 327 326 324 323 323 325 326 326 326 327 328 327 327 325 324 318 316 314 314 314 317 317 318 320 319 317 317 318 317 316 316 316 316 316 316 316 316 315 314
330 328 329 327 327 326 323 322 322 323 324 325 326 326 327 326 325 323 323 314 315 312 314 316 316 316 318 319 318 316 314 316 317 317 317 316 315 315 316 316 315 315 315
328 327 327 327 326 325 324 324 324 322 322 324 325 325 326 326 325 323 322 315 314 311 317 318 317 317 318 318 318 317 314 316 315 317 317 317 316 315 315 315 315 315 315
328 327 327 326 325 324 324 323 323 322 323 323 323 324 324 326 326 324 321 316 314 312 318 319 319 319 318 318 317 318 318 316 315 314 315 317 317 317 317 317 316 316 316
327 325 325 326 325 327 325 323 323 323 322 322 323 323 324 324 326 325 323 318 317 312 317 318 320 318 318 318 318 317 316 316 315 315 315 315 316 318 318 318 318 318 318
325 324 324 324 324 325 325 324 323 323 322 321 321 322 322 323 323 323 322 320 318 320 315 317 319 319 318 318 318 317 317 318 318 317 315 315 315 315 316 316 317 317 317

GFSSE_925_thetae_093.txt.gz
Theta_e
342 340 338 339 345 340 338 337 337 338 340 341 341 339 337 338 339 340 340 341 341 341 342 341 340 340 340 340 337 338 339 339 339 339 339 339 338 338 337 336 337 337 335
335 338 337 336 343 339 338 337 337 337 339 341 341 339 338 338 339 340 339 340 341 341 342 341 338 339 340 338 338 338 338 338 338 338 337 338 338 338 335 335 336 336 334
332 336 337 337 342 341 337 336 337 338 342 343 341 339 338 338 339 339 336 339 340 340 340 340 339 340 339 338 337 337 336 337 336 337 337 337 338 337 334 334 333 333 332
332 335 337 339 341 340 338 337 337 339 346 344 341 339 339 339 339 337 337 339 339 339 339 340 340 341 339 337 336 336 336 335 335 334 335 336 336 335 334 333 333 332 331
336 336 337 340 341 341 338 337 337 338 342 343 340 339 338 337 336 335 335 337 337 338 338 340 340 339 337 336 335 335 334 334 333 333 334 334 334 334 333 333 332 330 331
336 336 337 341 340 340 339 337 337 335 339 341 340 339 338 336 335 334 334 334 334 337 338 338 339 338 336 334 334 334 333 333 332 334 334 334 334 333 330 329 328 327 327
336 337 338 341 340 340 339 338 335 336 336 339 341 339 337 337 335 334 333 334 334 335 338 338 337 337 334 333 333 333 333 332 333 333 333 332 331 329 328 326 324 325 324
337 339 339 340 340 339 340 339 338 334 334 335 340 339 337 337 335 333 333 333 332 331 332 337 335 336 333 333 333 332 331 331 331 331 330 329 327 326 325 324 322 323 322
340 339 341 345 339 340 340 339 338 337 334 336 337 337 336 334 333 332 331 327 329 330 330 335 335 335 334 333 332 331 330 330 329 329 328 327 325 326 324 323 322 321 321
340 339 340 341 338 340 339 339 337 337 335 334 336 334 333 333 330 328 326 327 326 329 331 335 333 333 333 332 331 330 330 328 328 327 327 326 324 324 324 322 321 320 320
340 340 340 338 338 338 339 339 338 337 336 335 333 332 329 327 327 328 329 328 327 327 329 334 332 332 332 331 330 329 327 326 326 325 325 324 323 325 323 321 320 320 320
338 339 342 341 339 337 338 337 337 338 335 332 330 327 327 328 329 329 330 327 325 327 327 330 331 332 331 329 327 327 325 324 324 324 324 322 323 323 322 321 320 319 319
337 338 341 341 336 336 336 336 337 334 334 331 328 328 331 331 330 329 330 326 327 327 327 330 330 330 328 327 325 324 324 324 323 323 323 322 321 321 320 319 319 320 319
335 338 337 339 336 334 333 333 333 334 333 332 330 330 331 329 330 329 329 328 327 327 328 330 329 328 327 325 324 323 323 322 322 321 321 321 321 321 321 321 321 319 319
335 335 335 337 337 334 333 332 332 333 332 332 331 330 328 327 332 329 328 329 329 326 327 327 327 326 325 324 323 323 322 322 321 321 320 320 321 320 321 321 321 320 318
334 333 332 334 334 335 333 335 332 332 332 331 330 328 327 328 329 328 328 329 327 326 327 326 325 325 324 323 322 322 321 321 320 321 320 320 320 320 320 322 321 320 318
333 332 332 332 333 335 334 334 331 331 330 329 328 326 326 328 327 329 328 327 326 326 326 326 323 323 323 322 322 321 320 320 320 320 321 321 320 319 320 321 319 318 318
333 332 332 331 332 334 334 334 332 332 328 329 327 326 325 326 327 328 328 326 326 326 326 323 322 322 322 322 321 321 319 319 320 320 321 321 320 319 318 318 318 318 317
332 332 332 331 332 332 334 333 330 332 328 327 328 326 326 327 326 327 327 327 327 326 324 320 320 321 321 321 321 320 319 319 320 320 320 320 320 319 318 318 317 317 317
330 332 332 330 333 331 332 331 328 330 328 328 329 328 326 327 326 326 326 326 327 325 320 319 320 320 321 321 319 319 319 319 319 320 320 320 320 319 319 319 318 318 316
329 331 332 329 330 331 331 327 325 327 328 329 329 328 327 326 325 324 323 326 325 322 320 319 319 320 320 320 319 319 319 319 319 319 320 319 319 319 319 319 318 317 317
328 331 330 328 328 329 327 325 324 324 324 326 327 328 327 326 327 326 325 325 322 320 319 318 319 320 319 319 320 320 320 318 318 318 318 318 319 318 318 319 318 318 317
328 330 329 327 327 327 325 323 323 323 322 323 326 325 326 326 327 327 326 326 322 322 320 318 318 319 319 319 319 321 322 323 319 318 318 318 318 318 317 318 317 317 316
329 330 329 326 325 325 325 322 324 323 323 325 324 325 325 326 325 327 326 326 324 320 319 318 318 318 319 319 318 317 320 320 322 321 316 317 317 317 316 316 315 315 315
329 330 328 326 324 323 323 322 322 323 323 324 324 323 325 324 324 325 326 325 322 318 319 318 317 317 318 320 319 317 317 317 318 320 321 317 317 317 316 316 316 315 315
329 329 327 326 325 322 322 321 322 321 321 324 323 324 324 324 324 324 324 324 320 317 315 316 317 317 317 319 319 318 317 318 318 318 319 319 319 318 318 318 317 317 317

GFSSE_925_thetae_096.txt.gz
Theta_e
341 344 334 335 335 338 339 339 341 343 341 339 338 336 338 338 339 341 341 342 342 343 342 341 342 342 342 340 336 338 338 339 339 339 339 340 340 339 337 337 338 339 337
338 345 334 336 337 340 339 338 339 342 341 340 339 338 338 339 340 340 341 342 343 342 342 341 339 340 341 338 338 338 339 339 339 338 338 339 340 338 337 337 337 337 335
341 344 338 338 341 340 338 338 337 338 341 341 340 340 338 340 340 341 341 341 341 341 341 340 340 341 339 338 338 338 338 338 338 336 337 338 338 337 336 336 334 334 334
339 342 344 339 342 341 338 337 337 338 340 341 341 340 339 340 341 340 340 340 340 340 340 341 341 340 339 338 338 338 338 337 336 336 338 337 337 337 335 334 333 333 333
341 342 344 339 341 340 338 337 337 337 342 341 343 341 339 340 339 339 339 340 340 339 339 341 341 339 338 337 337 337 336 336 336 337 337 337 336 335 334 333 331 331 332
341 342 342 338 340 340 340 337 336 339 346 344 341 340 339 338 337 336 335 338 338 339 338 339 339 339 337 336 336 336 335 334 335 334 334 335 335 334 333 333 332 330 328
342 343 342 336 340 340 339 337 337 336 339 343 341 340 338 337 336 334 334 335 335 336 336 337 339 338 336 335 335 335 334 333 333 334 334 334 334 332 331 328 327 327 326
343 344 343 338 340 339 339 337 337 335 335 335 339 339 338 337 336 334 334 335 333 334 335 334 336 337 335 335 334 334 333 333 332 333 333 333 330 330 329 326 326 325 323
345 344 342 342 340 339 339 339 337 335 335 335 337 338 338 337 335 334 333 333 332 332 329 330 332 336 334 334 333 333 332 332 332 332 331 329 326 328 327 324 323 323 322
345 345 342 341 341 342 342 339 339 337 334 334 334 336 336 336 335 334 332 329 329 329 328 329 330 331 333 333 332 332 331 331 331 330 329 329 326 326 325 323 322 321 320
343 343 342 342 342 343 343 340 339 338 336 335 335 336 334 336 335 333 332 329 327 329 328 327 328 329 331 333 332 331 330 331 330 329 328 326 324 325 324 324 321 320 320
342 342 342 342 341 341 342 341 340 339 337 338 337 335 335 335 335 332 331 328 328 327 327 329 330 327 330 331 330 330 330 330 329 327 327 324 324 325 323 321 321 321 319
341 341 340 341 342 342 340 339 339 338 337 336 336 335 335 334 333 332 332 333 333 329 328 328 328 327 330 331 329 329 328 328 325 325 325 323 324 324 323 320 321 321 319
340 340 339 339 342 340 339 338 337 337 337 335 333 334 334 335 334 333 333 333 332 330 330 329 324 328 330 330 329 328 327 326 325 324 323 323 322 324 322 321 322 321 319
338 339 339 338 339 338 338 337 337 335 335 334 331 331 331 332 332 333 333 332 332 330 329 328 324 329 330 329 328 327 326 325 323 322 322 322 321 322 322 322 321 322 318
336 339 339 338 338 338 337 335 334 335 334 333 333 331 329 332 333 332 332 331 330 329 328 328 328 328 328 328 327 326 325 324 322 321 321 321 321 321 322 322 322 321 320
334 337 339 337 337 336 336 334 334 333 334 332 332 332 331 332 332 330 330 330 329 327 326 327 327 328 327 327 326 326 324 321 321 321 320 321 322 320 320 321 321 321 320
332 335 337 337 336 335 335 333 333 334 332 331 330 330 330 330 330 330 329 330 328 326 326 326 327 326 327 326 326 325 322 321 321 320 321 321 321 321 321 319 319 319 318
330 334 337 337 335 335 334 332 332 331 331 332 331 329 330 329 328 329 329 329 328 326 325 325 326 326 327 325 325 324 322 322 322 322 321 321 321 320 321 320 319 318 317
327 332 336 337 335 333 333 331 331 332 330 331 331 330 330 327 326 327 327 327 327 325 323 324 325 325 326 325 324 323 322 323 323 322 321 321 320 320 320 320 319 318 317
323 329 334 337 335 332 331 330 330 330 329 329 330 328 330 328 327 327 327 327 325 323 324 324 325 326 325 325 323 323 322 322 322 322 321 321 320 319 319 319 319 318 317
323 328 332 336 333 333 332 332 331 329 329 330 329 328 329 327 326 326 326 326 324 323 323 323 325 325 324 324 323 323 323 322 321 322 321 320 319 319 319 319 319 319 319
326 328 331 335 331 332 333 331 330 329 327 328 328 327 327 327 324 324 324 324 323 322 322 323 324 324 324 324 323 323 324 325 322 322 321 321 319 318 318 318 319 319 319
326 328 331 334 328 331 331 331 330 328 327 326 326 327 327 325 325 323 323 323 323 323 323 322 324 324 324 324 324 323 322 322 324 324 321 321 321 320 318 318 318 319 319
325 330 331 331 328 329 330 331 329 329 326 326 327 328 326 325 325 324 325 324 323 322 321 323 323 324 324 324 323 323 323 323 323 322 324 322 321 320 319 319 318 318 319
325 330 332 328 327 328 329 330 329 328 325 326 326 327 325 325 325 325 325 325 323 321 321 321 321 321 321 322 322 322 322 322 323 321 319 321 321 321 320 320 319 318 318

GFSSE_925_thetae_099.txt.gz
Theta_e
337 337 332 332 334 336 341 341 344 343 341 340 337 336 337 338 340 341 342 342 343 342 345 344 342 341 339 337 336 337 338 338 338 339 340 340 340 338 337 338 339 339 337
337 343 332 332 333 336 338 340 342 344 342 340 338 336 338 338 340 341 342 342 343 342 344 342 342 344 340 337 337 339 339 339 339 339 340 340 339 338 337 337 338 337 337
340 345 336 334 335 338 338 339 340 344 343 340 339 337 338 338 339 341 342 342 343 343 344 342 342 342 340 338 338 339 339 338 338 338 338 339 339 338 337 336 336 336 335
339 344 345 336 337 339 338 338 338 341 343 341 340 339 339 338 338 339 342 343 343 343 342 342 341 341 339 339 338 339 338 337 336 337 338 338 339 337 335 335 334 334 333
339 342 345 336 338 339 338 338 338 339 340 342 341 341 339 338 338 338 340 341 341 341 340 342 342 340 339 338 338 338 337 335 337 338 337 337 337 336 335 334 332 332 332
340 340 343 336 337 339 339 337 338 339 341 340 342 342 339 338 338 337 338 339 339 338 338 337 340 339 338 338 337 337 336 336 337 337 336 336 336 335 334 334 333 330 328
339 341 343 333 336 340 339 338 337 338 342 343 342 341 339 338 337 336 336 336 336 336 335 334 336 338 337 336 336 336 335 335 335 335 336 336 335 335 333 331 329 328 326
342 344 344 337 338 340 339 338 337 337 338 337 339 341 339 338 337 336 336 337 335 334 332 333 336 336 333 334 334 335 334 334 334 334 335 334 332 332 331 328 327 327 325
345 345 345 342 340 339 339 339 336 337 336 339 340 340 340 338 337 335 335 335 335 333 334 332 328 332 331 332 333 334 332 333 333 334 333 332 330 330 329 326 325 324 323
348 346 345 344 343 342 342 339 338 336 336 336 337 338 338 338 336 335 334 334 333 333 330 326 325 328 329 329 332 333 332 332 332 332 331 330 328 329 328 326 323 323 322
346 346 345 344 343 343 342 342 339 338 336 336 335 337 337 338 336 335 334 332 331 332 329 329 329 328 329 328 330 331 331 332 332 330 330 326 326 327 325 323 322 321 321
344 345 344 343 343 343 342 343 342 340 340 339 338 337 335 335 337 336 334 331 331 330 328 328 329 328 327 327 329 330 331 331 330 329 329 326 325 326 325 321 321 321 320
342 343 343 343 343 342 341 343 342 341 341 340 339 339 337 336 336 335 334 330 331 330 331 329 328 327 326 328 331 332 332 330 329 328 327 324 324 326 324 321 320 321 320
339 341 343 342 343 342 341 340 341 341 341 340 340 338 336 335 336 334 334 334 335 333 332 331 330 328 326 329 331 331 329 329 324 327 324 323 324 325 323 322 322 322 320
335 340 343 341 342 342 341 339 340 340 339 338 337 338 337 337 335 334 334 333 335 334 332 332 329 326 327 328 330 329 328 326 325 327 325 323 323 322 322 323 322 323 319
331 337 343 342 341 341 340 340 338 339 337 337 336 335 335 336 335 334 334 334 335 333 333 330 328 325 327 328 329 328 326 325 324 324 324 322 322 322 321 323 323 323 322
327 333 343 342 339 341 340 339 337 336 336 336 337 336 333 333 332 333 334 333 333 332 331 330 326 324 328 328 328 327 326 324 323 322 323 322 322 321 321 321 322 323 322
327 330 339 342 338 339 339 338 337 336 335 335 336 336 334 333 332 330 331 331 332 331 330 329 325 327 328 328 327 325 325 322 321 322 322 322 322 321 320 321 321 320 319
325 329 336 342 341 338 338 338 336 336 335 334 334 334 334 333 333 332 331 332 331 329 329 327 326 328 327 327 326 325 323 320 321 320 322 321 322 321 322 321 320 319 318
324 327 333 339 341 339 337 337 334 334 333 334 334 332 331 332 331 332 330 331 330 328 327 327 328 327 326 326 325 324 322 322 321 322 322 321 321 322 322 322 321 320 318
322 326 332 337 340 339 336 335 334 335 332 334 333 332 331 331 330 330 328 329 328 327 326 326 326 326 326 326 324 324 323 324 323 323 321 322 322 321 321 320 321 319 318
321 322 327 334 339 339 335 335 334 334 333 333 332 331 331 330 331 329 328 327 326 326 325 325 326 326 326 325 325 324 325 323 323 322 322 321 321 320 320 320 320 319 319
322 324 324 330 336 338 336 335 335 334 332 332 332 332 330 331 329 328 326 327 325 325 324 324 325 326 327 325 324 324 325 324 323 322 322 322 321 320 319 320 320 320 320
322 323 326 328 333 337 336 335 335 333 332 331 331 329 330 327 326 326 325 326 324 324 324 324 325 325 325 325 324 323 322 321 325 325 323 322 322 320 319 319 319 319 320
322 322 327 329 333 335 336 336 335 334 332 330 328 328 328 327 326 324 324 325 324 323 324 324 326 325 325 325 325 324 324 323 323 325 325 323 322 322 320 319 319 319 319
323 322 328 331 336 334 334 336 335 334 332 329 327 329 329 325 324 324 323 323 323 323 324 324 325 325 326 325 325 325 324 324 324 323 324 324 323 322 322 321 320 319 320

GFSSE_925_thetae_102.txt.gz
Theta_e
337 326 328 331 334 340 342 343 343 342 341 339 338 337 336 335 336 338 340 341 341 341 342 342 341 341 342 341 339 339 339 340 339 339 340 340 339 337 338 339 338 338 337
331 325 328 330 332 334 340 342 343 343 341 340 339 337 337 337 337 339 341 341 342 344 345 343 342 340 339 336 337 338 338 338 339 339 339 339 338 339 338 338 337 337 337
336 325 327 329 331 333 337 340 342 344 342 342 340 337 337 337 338 339 341 342 342 343 344 343 341 340 336 336 337 338 338 338 338 337 338 338 338 338 337 337 337 336 336
344 330 328 327 331 334 337 339 340 343 343 342 340 338 337 337 337 339 341 342 342 342 343 341 342 340 337 337 338 338 337 337 336 337 338 338 338 338 336 336 335 335 334
344 343 330 327 329 334 337 338 339 340 343 342 340 339 338 338 338 339 340 341 341 340 340 339 341 339 338 338 338 338 336 335 337 338 337 337 337 337 336 334 333 333 332
341 345 342 327 327 331 337 338 338 339 340 342 341 340 339 338 338 337 338 339 338 337 337 337 337 337 338 338 338 337 335 336 336 336 336 335 335 336 334 333 332 330 329
341 344 338 327 328 333 338 337 337 339 341 342 341 341 340 339 338 337 339 337 335 332 334 333 334 334 334 336 337 336 336 335 336 336 335 335 334 335 333 331 328 327 325
343 345 335 331 332 334 338 337 336 337 338 340 341 341 341 339 339 336 336 336 336 334 328 327 329 328 331 332 333 334 334 334 334 335 335 333 333 334 332 328 327 325 325
344 345 339 334 336 337 338 337 336 337 338 339 340 341 341 339 338 336 337 337 335 333 328 332 331 327 326 331 331 331 333 333 334 334 333 332 332 332 331 327 326 324 323
346 346 345 342 339 338 338 339 337 336 336 337 338 340 340 339 338 337 337 336 335 333 332 331 328 328 327 329 330 330 332 332 333 333 332 331 330 330 329 328 324 323 321
348 347 346 345 343 343 343 339 338 337 335 335 336 339 340 338 338 336 336 335 334 333 333 329 326 326 326 326 328 329 330 331 332 332 331 329 328 329 327 326 323 321 321
349 348 346 345 344 344 343 341 339 339 337 334 335 336 339 336 337 336 335 334 332 332 330 327 327 328 328 326 326 327 328 331 331 331 329 326 326 327 325 324 323 322 321
346 348 345 344 344 345 343 343 342 342 341 339 338 337 338 335 337 335 334 332 330 331 328 329 329 329 328 325 325 326 329 329 330 329 327 326 325 326 324 323 322 321 320
344 346 345 344 345 343 345 343 342 341 340 339 340 339 338 336 336 335 334 332 331 330 330 328 329 329 328 327 325 327 329 330 329 329 326 325 325 324 324 321 321 322 320
341 343 344 343 343 344 343 340 340 340 341 339 339 338 337 336 337 335 334 332 332 331 332 331 329 328 327 326 327 328 329 328 328 327 324 325 324 322 322 322 322 321 320
336 342 344 343 342 343 344 341 339 339 338 339 338 339 338 336 336 335 333 333 332 332 332 331 331 329 326 327 328 327 329 328 327 325 323 324 323 321 321 322 324 323 321
327 342 344 343 342 342 343 342 340 337 338 338 337 337 337 337 336 334 333 332 333 332 333 332 330 330 324 327 327 327 327 326 326 325 323 323 322 320 320 323 322 323 321
325 333 345 344 342 340 343 342 340 337 338 338 335 336 334 335 335 335 334 332 332 332 332 331 329 328 326 327 328 327 326 324 323 324 323 321 322 321 320 320 320 322 320
322 327 344 344 342 340 342 341 340 337 336 336 335 335 335 334 334 333 333 332 331 331 331 331 329 326 326 327 327 327 326 323 322 323 322 321 321 321 320 321 321 320 319
321 323 342 344 342 338 338 341 339 339 336 335 335 334 333 333 333 333 333 332 330 331 330 331 329 327 327 327 326 327 322 322 321 322 321 322 320 321 320 320 321 320 318
321 324 341 345 344 340 338 338 337 337 335 333 334 335 334 332 332 332 332 330 330 331 330 329 328 328 328 327 326 324 324 322 321 322 323 324 323 321 322 322 320 319 319
322 323 326 342 344 341 338 337 335 334 333 332 333 334 332 332 332 331 330 329 329 330 329 329 328 327 327 326 325 324 323 323 322 322 321 322 323 322 323 321 320 320 320
326 326 323 331 343 342 338 336 335 334 334 332 334 333 334 331 330 331 330 329 328 329 327 327 327 326 326 325 325 323 323 323 323 322 321 320 321 322 320 321 319 320 320
324 324 325 324 332 342 338 335 336 335 335 333 333 332 333 332 331 330 328 327 327 327 326 326 326 326 325 325 325 323 322 323 322 322 322 321 321 322 321 320 320 319 320
326 326 325 325 325 340 337 336 336 336 335 333 332 332 331 330 329 327 326 326 326 325 326 325 326 326 326 325 324 323 322 323 322 322 322 322 321 321 321 320 320 320 320
325 326 329 328 328 339 338 337 337 337 335 333 332 331 329 328 326 327 326 323 324 325 325 325 324 325 326 325 324 324 323 323 323 322 322 322 321 320 321 320 319 319 319

GFSSE_925_thetae_105.txt.gz
Theta_e
333 331 331 331 333 338 341 341 342 341 340 339 338 337 335 334 336 339 342 342 342 343 342 340 341 340 341 339 339 339 339 339 338 338 339 338 339 339 338 338 337 337 337
327 329 329 329 330 335 340 342 341 341 341 340 338 337 335 336 337 338 340 341 342 342 341 340 340 340 340 339 338 338 339 338 338 338 339 339 339 339 338 337 337 337 337
325 327 329 327 328 333 338 340 341 341 341 341 339 337 336 336 337 339 340 340 341 341 342 341 340 339 337 337 337 338 338 338 338 337 337 338 339 338 337 337 337 336 336
324 327 327 327 326 331 334 337 339 341 342 341 340 337 336 337 337 338 340 341 342 342 341 340 341 336 335 336 337 338 338 337 337 336 337 338 339 340 337 336 336 336 336
326 327 326 326 326 328 333 336 338 341 343 342 340 338 337 338 337 338 340 340 338 338 337 337 338 335 336 337 337 337 336 337 338 337 337 337 338 338 338 336 335 334 333
337 327 324 324 325 329 333 335 337 339 342 342 341 339 338 338 337 337 338 338 337 336 335 335 335 335 335 336 337 336 335 337 336 336 336 336 336 337 334 333 333 332 332
343 342 328 324 325 328 333 336 337 338 339 341 341 340 339 339 337 337 338 337 336 332 331 333 333 333 333 335 336 334 336 335 336 335 335 335 335 335 333 331 329 329 329
343 342 330 327 326 327 334 336 337 337 339 340 341 341 340 339 338 337 338 338 335 330 327 332 330 327 328 332 333 334 334 334 335 334 334 334 334 334 331 328 326 325 325
342 340 331 330 329 329 334 336 336 336 337 339 340 340 341 340 338 337 337 336 335 331 330 328 327 328 326 330 333 333 333 334 334 334 333 333 333 333 331 327 325 324 323
343 342 331 332 332 332 335 335 335 335 336 337 338 340 341 340 339 337 336 335 335 334 331 327 328 327 326 330 331 332 332 333 334 333 333 333 331 331 330 328 324 323 322
346 345 339 335 334 333 335 336 335 335 335 335 336 339 340 339 338 336 336 336 335 333 330 331 329 327 326 329 329 330 331 332 331 332 332 331 330 329 329 327 324 322 320
346 346 345 342 339 341 339 337 336 335 334 334 334 338 339 339 338 337 336 336 334 333 331 330 328 327 326 327 328 329 329 331 331 332 330 329 328 328 327 325 324 321 321
347 346 346 345 343 343 342 339 337 337 336 334 333 335 338 338 337 336 336 335 334 333 332 328 327 326 326 326 326 327 328 330 331 331 329 328 327 329 325 323 323 322 320
348 347 346 344 344 345 343 340 340 339 339 338 336 335 337 335 337 335 335 334 331 332 330 327 327 328 328 328 326 326 327 330 330 330 327 326 326 327 325 324 322 322 320
346 348 346 343 343 344 343 342 340 340 339 339 339 338 336 334 336 335 334 333 331 330 329 328 328 329 328 326 325 324 326 329 329 329 326 325 326 325 324 323 322 322 320
344 346 346 344 341 342 345 342 341 341 340 338 338 339 337 336 336 335 334 333 332 330 328 328 328 328 328 327 327 325 326 328 328 328 326 325 324 324 322 321 321 324 322
340 345 345 344 340 343 342 342 341 340 340 338 339 339 337 336 336 335 334 333 331 331 331 331 330 329 328 327 327 325 327 327 328 326 325 325 323 321 321 322 323 322 322
324 343 344 343 342 343 341 342 340 338 338 337 338 336 338 337 336 334 334 333 332 332 332 331 330 330 329 327 326 327 326 327 327 325 324 324 322 321 320 320 321 320 320
319 341 343 343 342 341 343 342 341 339 336 338 337 335 335 338 336 334 334 332 331 332 331 331 330 329 328 325 328 326 326 325 326 324 323 323 321 320 319 322 321 321 320
318 338 342 343 342 341 341 343 342 340 337 338 338 334 334 334 335 336 334 333 333 331 331 331 330 329 328 326 328 327 327 324 324 323 322 321 320 320 319 320 319 320 319
319 341 343 343 341 340 340 342 339 337 336 336 336 336 335 333 333 333 333 333 333 331 330 330 329 328 327 326 328 327 325 324 323 322 322 320 319 319 319 320 320 320 319
320 335 343 342 341 340 338 340 340 338 336 335 335 335 335 333 332 332 332 332 332 331 330 330 329 328 326 327 327 324 323 322 322 322 322 321 320 320 320 319 319 320 319
324 328 343 342 341 340 338 338 338 336 335 334 333 333 334 333 332 331 331 332 331 330 329 330 329 328 326 326 326 323 322 323 321 323 322 323 322 321 321 321 320 319 319
322 324 326 343 341 339 338 336 335 334 334 333 331 331 332 333 331 332 331 330 329 329 329 329 329 327 326 326 325 323 322 322 321 321 322 321 322 322 322 322 321 319 319
318 320 322 324 336 341 338 337 335 333 333 333 332 332 332 333 332 331 331 329 327 329 328 328 328 327 326 326 325 324 323 322 322 321 321 321 320 320 322 321 321 319 318
312 314 316 318 322 332 339 337 335 334 333 333 332 332 332 332 331 330 329 326 326 326 326 327 327 326 326 325 325 323 322 321 321 321 320 320 320 320 320 322 321 320 319

GFSSE_925_thetae_111.txt.gz
Theta_e
338 341 341 340 341 340 340 339 339 338 337 335 334 336 343 344 344 342 339 339 339 340 340 341 342 341 340 340 339 339 340 340 339 339 341 341 340 340 339 338 338 338 338
334 340 340 340 340 341 340 340 339 338 337 336 334 334 339 342 342 341 340 340 340 340 340 341 341 340 339 339 340 340 339 338 338 339 340 341 343 341 338 337 337 337 337
334 339 340 339 340 340 341 340 340 339 338 337 334 334 336 339 341 341 341 341 340 339 339 339 339 339 338 338 338 338 338 337 338 339 340 340 340 343 337 337 337 337 336
330 336 337 337 338 339 339 340 340 339 338 337 335 335 336 338 340 341 341 340 338 338 338 338 337 337 338 338 337 337 337 337 339 339 339 338 337 339 337 336 336 336 335
333 332 332 333 335 337 337 338 339 340 339 338 336 336 336 338 340 341 341 339 338 337 338 337 336 335 336 337 338 337 337 337 338 338 338 338 336 339 336 336 336 335 335
331 329 328 327 332 334 336 336 338 339 339 338 336 336 336 337 339 341 340 337 337 336 336 335 333 333 335 337 338 337 337 337 337 337 336 336 336 337 336 334 333 333 333
330 328 328 330 332 335 334 335 337 338 340 339 337 336 337 338 340 340 338 336 336 335 335 333 333 335 337 337 337 337 336 336 336 336 335 335 336 336 335 334 333 333 332
326 327 328 330 332 334 333 334 337 339 340 340 338 337 337 338 339 338 337 336 335 334 333 332 332 335 336 337 336 336 336 336 336 336 335 334 336 335 334 333 332 332 331
326 328 330 331 333 334 332 334 337 339 340 340 338 337 338 337 337 338 337 335 334 333 332 330 333 334 335 335 335 335 335 335 335 335 334 334 334 334 334 331 331 330 329
328 329 330 333 335 335 334 334 336 338 340 340 339 338 338 337 337 337 336 335 333 331 330 330 331 332 332 333 334 335 334 335 334 333 333 334 333 332 332 328 326 327 327
332 330 331 331 332 334 334 336 336 337 337 339 340 339 339 338 338 337 337 335 332 331 330 328 328 327 328 333 334 333 333 334 333 333 332 333 333 333 331 328 324 323 323
336 333 332 331 331 333 334 336 337 337 338 338 338 339 339 339 338 337 337 337 335 334 330 329 328 327 327 332 333 332 331 332 333 332 331 331 332 333 331 328 324 324 323
338 335 332 330 330 331 334 335 336 337 337 337 337 338 339 339 339 337 337 337 334 332 332 330 327 327 327 330 332 332 330 330 329 331 331 331 330 333 331 327 325 325 322
338 336 332 330 329 331 332 334 335 336 337 336 337 338 339 339 339 337 336 335 334 333 332 328 328 328 326 329 330 330 330 331 329 329 331 330 329 331 330 328 326 324 322
339 337 333 330 329 330 331 333 334 335 335 335 336 337 338 339 338 337 336 335 335 334 332 330 329 327 326 328 329 329 329 330 330 328 329 330 328 329 329 328 325 323 322
341 341 339 336 332 331 333 333 333 333 334 334 334 337 338 338 337 336 336 336 335 334 332 331 330 327 327 326 326 327 327 328 329 328 328 329 328 328 328 326 325 323 322
342 342 342 341 338 335 337 337 334 334 334 333 333 336 338 337 337 336 336 335 335 334 332 331 331 328 327 326 327 327 326 326 329 328 326 328 328 326 326 325 323 322 322
342 342 342 343 341 339 338 339 338 336 335 335 334 334 336 336 336 336 335 335 334 333 332 331 331 328 327 327 327 327 325 326 327 328 326 326 327 326 325 324 323 322 321
342 342 343 343 343 341 340 340 341 338 337 336 336 335 335 336 335 334 335 334 334 333 332 331 330 329 327 329 327 328 326 326 326 327 327 327 326 326 324 323 321 321 320
340 342 343 343 343 342 341 341 341 340 338 337 337 337 337 336 335 334 334 334 333 332 331 330 330 328 327 328 327 327 327 327 326 327 327 326 326 326 323 322 320 320 321
318 339 341 342 342 341 340 339 339 340 339 339 338 337 337 336 335 335 334 334 333 332 331 331 329 329 329 327 327 326 326 327 326 326 327 327 326 325 323 321 321 320 320
318 313 334 340 341 341 340 339 338 339 337 338 337 337 337 336 335 335 335 334 334 332 331 330 329 328 327 326 326 326 325 322 324 325 326 326 325 325 322 321 320 321 319
310 315 332 338 339 339 339 338 338 337 336 335 337 337 337 337 335 336 335 334 334 332 331 330 330 327 327 326 327 326 325 325 323 322 324 325 324 324 322 320 319 319 320
306 310 317 336 338 339 339 338 337 336 336 335 334 334 334 336 335 334 336 335 333 332 331 330 329 329 328 327 326 326 325 323 324 321 321 323 323 323 322 320 319 320 320
304 305 308 315 324 332 338 339 337 336 336 336 335 334 335 336 336 334 333 334 334 333 331 331 329 329 328 327 326 326 324 322 323 322 323 321 321 322 321 321 319 319 319
301 302 304 307 311 316 324 334 336 335 335 335 334 333 333 334 335 335 333 333 332 331 330 331 329 328 328 327 326 326 326 323 322 322 322 321 321 321 320 320 320 319 318

GFSSE_925_thetae_114.txt.gz
Theta_e
335 340 342 340 340 338 338 337 336 335 335 335 337 341 342 340 338 338 337 338 340 340 340 339 340 341 339 339 337 341 340 340 340 339 340 340 341 340 339 339 338 338 338
333 340 341 340 340 339 338 338 337 336 334 334 336 340 343 341 340 339 338 339 340 340 339 340 341 340 339 338 338 340 340 339 339 339 340 340 342 340 339 337 337 337 337
335 341 340 340 340 339 339 338 337 337 335 334 335 341 343 343 341 339 339 339 339 339 340 340 340 339 338 339 339 340 339 338 339 340 340 340 339 340 339 337 337 336 336
336 340 340 339 340 340 339 339 338 337 336 334 334 337 342 342 340 340 339 340 339 339 339 339 339 338 337 338 338 338 337 338 339 340 339 337 338 339 337 336 336 336 336
335 338 338 339 339 340 340 339 338 338 337 335 334 335 338 340 340 340 340 339 338 338 338 337 337 337 337 337 337 337 337 338 339 339 337 337 337 338 337 336 336 335 334
333 336 336 337 338 338 339 340 339 338 337 335 334 335 337 339 339 340 338 337 337 337 336 336 335 336 337 337 337 337 337 338 339 337 336 336 336 338 336 336 334 333 333
334 335 336 336 335 335 337 339 339 339 338 336 335 336 337 339 340 339 337 336 336 336 336 335 334 335 336 337 337 337 337 338 337 337 335 335 337 339 335 333 332 332 331
330 334 335 334 332 332 335 337 338 339 338 337 336 336 337 338 339 338 337 336 336 336 335 333 333 335 336 337 337 337 337 337 336 336 334 335 336 336 333 333 333 332 330
332 334 335 334 333 333 333 335 337 339 339 338 336 337 337 337 338 337 337 335 335 335 333 333 334 336 336 336 336 336 336 336 336 335 334 335 335 335 334 333 332 331 330
335 334 334 334 333 335 336 336 337 339 339 338 337 337 337 337 337 337 336 335 335 334 332 333 334 335 335 336 336 336 335 336 335 335 334 334 334 334 333 332 330 330 329
335 334 332 331 333 333 337 336 337 339 340 339 338 337 337 337 337 337 336 335 334 333 331 332 333 333 334 335 335 335 334 335 335 334 333 333 334 333 332 329 328 328 327
335 334 332 330 333 334 336 337 337 339 340 340 339 338 338 337 336 336 336 335 333 330 331 331 331 329 333 334 334 334 333 333 334 333 332 332 333 332 331 328 324 324 323
333 333 333 332 333 335 335 336 337 337 339 340 339 339 338 338 337 337 336 335 332 331 332 330 328 327 327 332 333 333 332 332 331 332 331 331 332 332 330 328 324 325 322
332 332 332 332 333 334 335 336 337 337 337 338 339 339 339 338 338 337 337 336 335 334 330 329 329 327 327 330 332 332 331 330 330 330 329 330 330 332 330 329 327 326 323
336 333 331 331 333 333 333 334 336 336 336 337 338 338 339 339 338 337 337 336 336 333 331 331 329 328 327 329 330 331 331 330 330 328 326 329 330 331 331 329 327 325 323
338 336 333 331 332 333 333 331 332 334 335 336 336 337 338 339 338 337 337 335 335 334 333 332 328 329 327 327 329 329 329 329 330 329 328 328 328 328 329 328 327 325 323
339 338 335 332 333 332 332 331 331 332 334 335 335 336 337 338 338 337 337 336 335 334 333 332 330 330 327 326 326 326 327 328 328 329 328 327 328 327 327 327 325 324 323
339 340 337 333 332 331 331 331 331 331 332 333 334 335 336 337 338 337 336 336 337 336 334 332 331 330 328 327 326 326 326 326 326 327 329 327 327 328 327 327 325 323 321
339 340 340 338 335 333 332 332 333 332 332 332 333 333 335 337 337 337 336 335 337 336 333 332 331 330 328 326 326 327 327 326 326 326 327 327 325 327 326 326 324 322 320
338 339 340 340 339 337 336 336 336 335 334 333 333 333 333 336 337 336 336 335 334 334 333 332 331 328 328 326 326 326 327 327 325 325 326 327 325 325 326 325 324 322 321
331 339 340 340 341 339 338 337 336 337 337 336 335 334 333 334 335 335 335 334 334 333 333 332 332 328 326 327 326 326 327 326 326 326 326 326 326 326 326 325 323 321 321
313 317 337 341 340 339 339 339 337 337 337 336 336 336 335 335 334 335 334 333 333 332 332 332 330 328 328 327 326 326 325 323 325 326 326 326 326 326 326 324 322 320 319
306 311 320 335 341 340 339 338 337 337 336 336 336 336 336 336 336 335 334 333 333 332 330 329 329 329 328 327 326 326 326 326 322 323 325 326 326 326 326 325 323 320 320
302 307 316 332 338 338 339 338 337 337 336 336 336 335 335 336 336 335 334 335 333 333 331 330 330 330 328 326 326 325 326 323 325 322 322 324 325 325 325 324 323 321 320
300 302 308 315 326 331 337 338 337 336 336 336 335 334 335 336 335 336 335 333 333 332 331 331 330 329 328 328 327 326 326 325 323 321 323 321 322 324 324 324 322 320 319
299 301 302 307 311 319 326 333 336 336 336 334 334 334 334 334 334 334 334 335 333 332 331 330 330 330 329 328 328 327 326 325 322 321 322 323 322 321 323 323 323 321 319

GFSSE_925_thetae_117.txt.gz
Theta_e
341 341 341 340 339 338 337 336 336 336 335 339 343 343 340 337 337 338 338 340 342 341 341 340 340 341 340 337 337 340 341 341 340 339 340 341 341 339 339 339 339 341 338
339 341 340 340 339 338 337 336 336 336 336 336 340 342 341 338 339 338 338 339 338 340 339 339 340 340 339 337 340 340 340 340 339 340 340 341 342 340 339 338 339 339 338
337 341 340 340 339 338 337 337 336 335 336 338 340 342 340 338 338 337 338 339 340 340 339 339 340 339 338 337 339 339 339 339 339 340 341 342 341 341 337 337 337 337 337
335 340 341 340 339 338 338 337 336 335 335 337 340 342 341 339 339 338 339 339 340 339 339 340 340 338 338 338 339 339 338 339 340 340 341 339 341 338 338 337 336 336 336
341 340 341 339 339 339 338 337 337 335 334 337 341 342 342 341 339 338 339 339 339 338 339 339 339 337 337 338 338 338 337 339 340 341 338 339 341 339 338 336 336 336 336
341 340 340 339 339 339 339 338 337 336 335 335 340 342 342 340 339 339 339 339 338 338 338 339 338 337 337 337 337 337 338 339 340 340 338 338 338 338 337 336 335 335 334
341 340 339 338 338 339 339 339 338 337 336 334 336 338 339 339 339 340 339 338 338 337 338 337 337 337 337 336 337 337 338 339 340 338 337 337 336 337 336 334 333 333 332
341 340 338 337 338 339 339 339 338 338 336 335 335 335 336 337 338 339 338 337 337 337 337 336 335 336 336 336 337 337 337 338 338 337 336 335 337 336 334 332 332 331 330
339 338 337 337 338 339 338 338 339 338 337 336 335 335 336 337 338 337 337 337 337 337 336 334 333 334 335 337 337 337 337 337 338 338 335 337 336 335 333 333 332 331 330
337 337 337 339 339 339 337 337 338 339 338 336 336 336 336 337 338 337 337 336 336 336 334 333 334 335 336 337 337 337 336 336 337 337 335 337 334 334 334 333 331 330 329
336 337 339 340 339 337 336 337 338 339 339 337 336 336 337 339 338 338 337 336 336 335 333 333 335 335 336 336 336 335 334 336 335 335 334 334 334 334 333 332 331 330 329
336 337 339 339 338 337 336 337 340 340 340 340 339 338 340 339 339 339 337 335 334 333 332 333 334 335 336 336 335 335 334 334 335 334 333 332 332 333 333 331 329 329 328
335 336 336 337 337 335 336 338 346 344 342 340 339 339 339 338 337 337 337 336 334 333 333 333 334 334 334 334 335 335 334 332 332 332 332 331 331 333 332 331 326 325 323
333 334 334 336 337 335 335 339 344 341 343 340 339 338 338 338 337 337 337 337 335 331 332 332 331 327 328 332 334 334 333 332 331 331 330 329 329 331 331 329 328 326 323
335 333 334 335 336 337 335 338 342 343 343 343 339 339 338 338 337 337 336 336 334 330 333 331 330 328 327 328 332 333 333 332 331 330 330 329 328 329 330 329 328 327 324
337 335 333 332 336 336 336 337 338 341 340 340 340 339 339 338 339 336 336 335 334 334 334 331 331 329 328 329 331 331 332 332 331 330 328 327 328 328 330 330 328 327 325
334 338 332 331 332 333 336 335 337 337 336 336 338 339 339 338 338 340 336 336 335 335 333 331 330 329 328 327 330 329 330 330 330 330 329 328 328 327 327 330 327 325 324
323 337 337 332 332 333 333 334 333 334 334 336 336 337 338 338 338 338 338 337 335 334 335 331 331 329 330 329 329 329 328 329 329 330 328 328 328 327 327 327 326 325 323
317 332 338 336 333 333 334 333 332 332 334 335 335 335 336 336 338 337 338 337 335 334 334 332 331 330 329 329 328 327 328 328 328 329 327 328 328 327 327 327 326 325 323
314 329 337 337 335 334 334 334 334 333 333 334 334 334 334 335 336 337 337 337 335 333 331 333 330 330 330 331 328 327 326 327 327 326 326 327 328 327 327 327 326 324 323
315 329 338 339 337 335 334 334 334 333 333 333 334 334 333 334 335 337 336 336 335 333 331 334 330 329 329 330 328 326 327 327 327 327 326 325 328 326 325 326 325 324 323
311 317 338 340 339 336 335 335 335 334 334 333 333 334 333 332 333 335 336 335 335 332 331 329 330 328 328 328 327 327 327 326 325 326 326 326 326 326 326 326 325 324 323
307 310 318 339 340 338 338 337 336 335 335 335 334 334 334 332 332 333 335 334 334 334 330 329 329 329 328 327 328 327 327 328 325 323 325 326 326 326 326 326 325 324 322
304 306 312 327 338 339 338 338 337 337 336 336 335 334 335 334 333 333 333 334 333 333 332 331 328 329 329 328 327 327 326 325 327 326 323 325 326 325 325 325 325 324 322
302 304 307 313 323 333 338 338 337 337 337 336 336 335 334 335 333 334 334 334 333 332 331 331 330 330 330 330 327 327 327 326 325 323 326 323 324 325 324 325 326 324 322
300 302 304 308 309 319 327 332 336 337 337 336 336 335 335 334 335 334 334 334 333 332 332 331 330 330 330 329 328 327 326 326 324 323 324 324 324 323 324 324 325 324 323

GFSSE_925_thetae_120.txt.gz
Theta_e
341 349 342 344 342 338 337 339 341 343 344 343 341 337 336 335 337 337 340 340 340 343 343 341 340 340 338 337 336 337 338 340 341 341 341 341 340 338 338 339 342 341 338
342 349 341 341 339 338 337 337 339 340 343 343 342 339 337 336 337 339 340 341 343 343 341 340 340 339 339 337 338 341 341 340 340 341 341 340 336 338 338 340 341 339 338
344 348 342 340 339 337 336 336 336 336 337 342 343 342 338 337 338 339 340 341 340 340 340 340 340 341 338 337 340 340 340 340 340 340 341 342 342 340 338 339 339 338 337
344 348 347 340 339 337 337 336 335 336 336 339 343 342 339 338 339 339 340 339 340 340 339 340 340 339 338 337 340 339 340 339 339 340 342 343 342 340 338 337 337 337 337
345 347 348 340 339 338 337 336 336 335 336 338 342 342 340 339 338 338 338 340 340 339 339 340 339 338 337 338 339 339 339 339 339 342 342 342 341 340 337 336 337 336 337
344 347 348 340 339 338 337 337 336 335 336 338 341 341 340 339 339 339 339 340 340 339 339 340 339 338 338 338 339 339 338 339 340 342 341 341 340 339 338 337 337 337 335
345 347 348 340 339 338 338 337 337 336 336 339 341 342 340 341 339 339 339 339 339 339 339 340 338 337 338 337 338 338 338 339 340 340 340 340 340 337 337 336 335 335 334
345 347 348 341 340 339 338 338 337 336 336 339 342 342 342 340 339 339 339 339 339 339 339 338 337 337 337 337 337 337 338 339 340 339 339 339 340 337 336 334 333 333 331
346 347 347 346 342 339 339 338 338 337 336 336 339 341 341 340 340 340 339 338 338 338 338 337 336 337 336 336 337 337 337 337 338 339 338 338 338 336 334 332 332 330 329
346 347 347 347 346 345 343 339 338 338 337 336 336 337 338 338 339 339 338 337 338 338 337 336 335 335 335 336 337 337 336 335 338 338 338 338 336 334 332 332 331 330 329
344 344 346 346 345 345 345 343 340 338 338 337 337 337 338 341 341 340 339 338 337 337 336 334 333 335 336 337 337 336 335 337 337 337 337 335 335 333 335 332 330 330 329
340 342 342 343 344 344 344 344 343 343 341 341 342 342 342 342 342 341 340 338 337 336 334 333 334 335 336 337 337 336 336 338 337 337 333 333 333 334 334 332 331 330 329
332 339 339 340 341 341 342 344 342 342 340 342 342 343 342 342 342 341 341 338 338 335 336 335 336 336 336 336 337 336 337 336 337 337 332 332 333 332 332 332 330 330 328
326 335 338 338 339 339 340 340 340 343 342 343 343 343 342 343 343 341 340 339 338 337 336 336 336 336 336 336 336 336 336 336 335 335 333 331 331 328 327 331 329 328 327
316 326 336 337 337 338 340 338 339 341 342 342 342 343 343 342 342 341 340 339 338 337 337 336 336 335 335 335 335 335 336 336 335 335 334 331 330 329 329 329 329 328 325
314 320 333 337 337 337 337 338 339 340 340 342 342 341 344 342 341 341 340 339 338 337 337 337 336 334 333 333 334 335 334 334 334 334 334 331 329 327 328 328 328 328 326
312 314 326 337 337 336 336 338 337 338 338 339 339 340 340 340 341 340 340 339 338 337 338 337 336 335 334 333 333 334 334 334 334 334 333 332 329 328 328 327 329 327 326
309 312 315 334 337 336 336 336 336 336 336 340 340 339 338 339 340 339 340 338 338 337 336 337 336 335 334 333 332 332 332 333 333 333 333 332 332 330 328 327 328 327 325
309 311 314 324 338 337 336 335 335 335 336 337 337 338 339 340 338 337 337 339 338 336 334 336 336 335 334 334 333 332 332 332 331 331 331 332 332 331 331 327 327 326 325
308 311 313 317 337 337 336 336 335 335 335 335 337 337 339 338 337 336 337 337 336 335 333 334 334 335 335 334 333 332 332 331 331 331 331 330 331 331 331 328 327 326 324
308 314 315 316 329 338 337 336 334 335 334 335 336 336 337 337 336 336 335 334 335 334 333 334 334 335 335 334 333 332 331 330 329 330 330 331 330 330 329 330 328 326 325
314 314 318 320 324 337 338 336 334 335 334 334 335 335 337 335 336 338 336 334 333 333 333 332 332 332 333 333 333 331 333 332 329 330 329 330 329 329 330 330 327 326 325
313 314 316 326 326 335 337 338 336 335 335 335 334 335 336 336 336 337 335 334 333 333 333 332 332 332 332 331 332 332 334 332 328 329 329 329 330 330 329 328 326 326 325
307 308 314 323 332 337 338 338 337 337 337 337 336 335 335 335 336 334 336 334 335 334 333 332 331 331 332 330 330 332 331 329 330 331 326 328 328 329 329 327 326 326 325
301 303 309 314 322 334 339 338 338 339 339 339 338 337 336 334 336 336 336 336 335 334 334 333 331 331 332 332 331 331 331 331 329 330 330 327 326 327 329 328 326 326 325
299 300 304 309 310 318 325 335 338 338 340 340 339 338 336 335 334 335 336 336 335 335 334 332 331 331 331 332 332 331 331 331 330 330 330 327 327 326 326 327 327 326 325

GFSSE_925_thetae_123.txt.gz
Theta_e
339 350 343 344 341 340 338 339 340 341 343 344 342 337 335 334 335 335 337 337 335 339 345 342 339 338 338 336 336 336 338 340 340 340 338 339 339 338 337 338 341 342 339
341 350 343 344 343 339 338 338 340 342 344 344 343 338 336 335 335 336 339 339 341 345 345 344 340 339 338 338 336 337 338 341 341 340 341 341 338 335 335 338 339 340 338
342 353 344 344 343 339 338 338 340 342 343 343 342 339 336 336 336 337 340 339 341 343 343 340 340 339 339 338 338 341 340 340 340 340 340 340 340 336 340 340 337 338 338
343 350 348 343 341 338 337 338 338 339 342 343 343 341 338 337 337 339 340 341 342 342 340 340 340 341 339 337 340 340 340 340 339 340 342 340 341 338 340 338 337 338 337
344 349 349 341 339 338 337 336 336 336 336 341 343 342 340 338 338 339 340 341 340 339 339 340 340 340 339 338 340 340 340 339 339 341 341 341 342 340 339 337 338 336 338
345 348 349 343 339 338 337 336 336 336 336 337 342 343 341 338 339 339 341 340 340 339 339 340 340 339 338 338 339 339 339 339 339 343 342 341 341 339 337 336 337 337 337
344 347 350 346 340 338 337 337 336 336 336 338 341 342 341 339 340 339 340 340 340 339 339 339 339 338 338 339 339 339 338 338 341 341 341 340 341 337 336 337 336 336 334
343 347 352 347 340 338 337 337 336 336 336 338 340 342 341 340 339 339 340 341 340 339 339 340 338 338 338 338 338 338 338 338 340 340 340 340 340 336 338 335 335 334 334
347 348 350 348 344 339 338 338 337 336 336 339 341 341 341 340 340 340 340 340 340 339 339 339 338 337 337 337 337 337 337 337 339 338 340 339 339 335 336 334 333 333 332
347 350 350 350 347 346 343 338 338 337 337 339 341 342 342 341 340 340 340 340 339 339 338 337 336 337 336 336 336 336 336 336 339 339 339 339 338 334 333 332 332 330 329
341 347 349 349 348 347 347 345 339 338 337 337 340 341 342 342 343 342 341 341 339 339 338 337 336 336 336 336 337 336 336 337 337 339 336 337 334 334 332 332 331 329 328
320 340 347 347 347 347 345 346 344 343 341 342 342 343 342 342 343 342 341 341 338 338 338 336 334 335 335 338 338 336 337 336 338 338 338 334 333 334 332 332 330 329 328
317 320 342 345 346 344 344 343 344 342 342 342 343 343 342 342 342 341 341 341 340 338 338 335 335 337 337 337 337 336 336 337 337 337 336 332 332 333 330 331 330 329 329
315 316 329 343 343 341 344 342 342 340 340 340 342 343 343 343 342 341 341 340 340 339 338 337 337 336 336 337 336 336 337 336 335 338 337 331 332 333 331 327 330 330 328
312 314 317 334 342 341 343 341 340 341 341 340 341 342 344 343 343 342 341 340 339 339 339 337 337 337 336 336 336 336 336 336 335 336 337 332 332 329 326 325 326 327 327
310 312 315 319 339 341 340 342 340 340 341 342 343 343 344 344 343 342 341 341 339 339 338 337 337 337 337 336 336 336 335 335 335 335 336 332 330 329 328 329 327 326 326
310 310 312 316 330 340 340 340 340 340 341 341 341 342 343 343 343 342 340 341 339 340 337 337 336 336 336 335 335 335 334 334 334 334 334 335 331 329 327 328 328 327 326
309 309 310 312 316 339 340 338 340 339 340 340 341 340 341 343 342 342 340 340 339 338 338 337 338 337 335 335 335 334 334 334 334 333 333 333 333 332 329 328 328 328 327
309 309 310 311 314 326 340 339 339 338 339 338 339 340 340 341 340 341 340 340 342 339 339 338 338 337 336 336 334 334 333 333 333 332 332 332 333 333 332 330 328 327 326
309 309 309 311 314 317 339 339 338 338 338 337 337 339 340 339 339 339 340 339 339 339 337 338 338 338 337 335 334 334 333 332 332 331 331 331 332 332 332 331 328 328 326
308 308 309 310 314 318 333 339 339 339 337 337 336 337 341 339 339 339 338 338 338 339 337 336 337 338 337 336 336 333 334 334 333 333 333 332 332 331 331 331 329 329 326
314 314 314 315 316 318 320 338 338 338 336 336 335 337 340 339 338 338 338 337 337 337 337 336 336 336 337 336 336 334 336 333 332 332 332 332 332 331 330 330 330 328 328
308 309 313 314 314 317 321 337 338 338 336 336 335 337 339 340 337 337 337 337 336 336 336 336 335 335 336 336 335 333 334 334 330 333 331 331 330 330 331 330 329 329 329
302 303 305 308 313 317 322 330 338 338 337 336 335 336 338 339 338 336 337 337 335 335 335 335 335 335 335 333 333 334 334 331 331 331 330 330 330 330 330 330 329 328 329
299 299 300 304 312 314 318 326 338 337 338 336 336 336 337 339 338 337 336 336 335 334 334 335 334 335 334 334 332 333 334 334 332 332 332 331 329 329 329 329 329 329 328
297 298 298 303 308 309 315 331 338 337 339 337 338 339 339 338 337 338 336 335 335 334 334 334 333 333 334 334 333 333 334 334 332 333 333 332 331 329 328 328 329 329 328

GFSSE_925_thetae_126.txt.gz
Theta_e
351 342 342 342 339 339 339 338 338 339 341 342 343 338 334 333 333 332 335 336 337 334 339 341 339 336 337 336 334 336 341 341 339 339 338 338 338 338 338 339 341 340 339
351 343 343 342 340 340 338 337 338 339 341 343 343 340 335 334 334 333 335 334 334 340 343 340 338 338 338 337 336 336 337 338 339 338 338 338 338 338 341 340 339 338 338
351 348 343 343 341 340 338 337 339 341 343 343 343 340 336 335 335 335 337 335 340 345 344 342 340 339 339 338 336 339 339 339 340 340 338 340 336 338 338 337 337 338 338
344 352 345 343 343 340 338 338 340 341 343 343 343 340 336 336 335 335 338 338 340 343 341 339 339 340 339 338 338 340 340 340 340 340 340 336 337 337 339 339 337 337 338
344 352 350 345 344 339 338 338 339 340 342 343 342 341 337 337 336 336 339 339 341 341 340 339 340 340 339 337 340 339 340 339 338 340 340 330 340 338 338 336 336 337 338
346 350 349 347 342 339 338 338 338 337 339 341 342 342 340 338 337 337 339 341 340 339 339 339 340 339 339 337 339 339 339 338 338 340 338 337 341 339 338 336 336 337 337
347 349 349 348 340 339 338 337 336 336 336 337 340 342 342 339 338 338 339 340 339 339 338 339 339 339 337 337 338 338 339 338 338 338 331 332 339 337 336 336 336 336 335
346 353 351 349 342 339 338 337 337 336 336 337 338 341 342 339 338 339 339 339 340 339 339 339 339 339 338 338 338 338 338 337 339 339 338 338 339 336 336 336 336 334 334
345 348 353 351 345 339 338 338 337 337 337 337 338 341 342 341 339 339 339 340 340 340 339 339 338 338 338 337 337 336 336 337 338 337 334 338 338 336 335 335 334 332 334
340 348 350 351 346 341 339 338 337 337 337 338 339 341 341 340 340 339 340 340 339 339 339 339 338 337 337 336 336 336 336 336 337 337 338 338 338 335 334 334 333 331 331
319 328 346 349 348 346 345 342 338 338 338 339 341 342 342 341 341 340 340 340 339 339 339 338 337 336 336 336 336 336 336 335 335 338 337 336 337 334 333 333 332 330 329
316 318 339 344 348 348 347 347 343 339 338 338 340 342 343 344 343 343 342 342 339 338 338 338 336 336 335 335 335 336 335 337 337 336 336 335 333 334 333 332 331 329 328
312 315 316 343 344 345 348 347 346 343 342 341 342 343 342 343 343 342 342 341 340 338 338 337 335 335 333 339 337 334 334 336 337 335 335 333 333 333 332 329 331 329 328
311 311 313 318 344 344 345 346 347 345 344 343 342 343 342 343 343 340 341 341 340 338 339 337 335 334 336 337 338 337 336 336 336 334 334 332 331 332 328 330 329 330 329
310 311 310 312 336 344 343 341 344 344 344 343 343 342 343 342 343 342 341 341 341 340 339 337 338 335 337 337 336 336 334 337 335 336 335 332 331 332 330 328 326 330 329
311 310 310 310 312 343 342 339 343 342 343 342 342 344 341 344 344 342 340 341 339 341 339 338 338 338 338 336 336 336 335 335 335 335 334 333 331 331 327 328 329 327 326
310 310 310 310 310 313 342 341 338 343 343 340 344 343 340 344 344 342 341 341 340 338 339 338 338 337 336 336 336 335 334 334 334 334 334 333 331 330 328 328 328 327 327
313 311 310 310 309 310 320 341 340 338 342 342 342 344 342 342 345 343 341 342 341 339 338 338 337 336 336 336 335 335 334 334 334 334 333 333 333 330 329 329 328 328 327
312 314 314 311 311 309 312 331 338 338 341 342 340 340 343 344 343 342 342 341 341 339 339 337 337 336 337 335 335 335 335 335 334 333 333 333 333 332 331 328 328 328 327
308 311 313 314 312 311 311 317 337 338 337 341 340 340 341 341 343 340 342 342 340 340 337 337 337 337 337 336 336 334 334 333 333 333 332 332 332 331 331 332 329 328 327
304 306 309 310 313 315 311 320 335 338 336 339 340 341 341 340 340 339 340 342 341 341 340 338 338 338 338 337 335 334 333 333 332 333 331 331 332 332 331 330 331 329 327
301 302 304 305 307 309 314 317 322 333 336 337 340 339 342 340 340 339 339 338 339 339 339 337 337 339 338 337 335 335 332 334 334 333 333 333 333 332 331 330 330 330 327
298 299 300 301 302 305 308 314 316 318 333 335 338 338 342 341 341 340 338 337 337 337 337 335 335 336 338 336 336 334 332 331 332 333 332 332 332 330 331 331 330 329 329
296 297 298 299 300 302 306 310 316 318 321 334 337 337 341 342 340 340 337 337 336 336 335 336 334 335 335 337 336 335 332 335 332 332 333 332 330 331 329 330 330 329 329
294 295 295 297 298 301 304 310 312 314 318 323 336 337 339 342 340 339 336 337 336 335 335 335 334 335 334 336 336 334 334 334 335 333 330 330 332 331 330 329 330 330 329
292 292 293 294 298 300 304 307 312 316 319 321 335 336 339 342 339 338 335 337 336 334 334 334 334 334 333 335 335 333 332 332 333 333 330 328 329 330 329 328 329 329 329

GFSSE_925_thetae_129.txt.gz
Theta_e
345 341 341 339 338 339 339 339 339 339 340 342 341 336 333 332 332 334 336 339 340 339 336 332 333 338 341 339 336 339 342 341 340 338 337 337 337 337 339 341 340 340 339
347 341 341 339 338 339 338 337 337 338 340 341 342 338 334 333 332 332 334 336 334 334 336 337 335 336 337 336 335 335 338 339 338 337 337 337 337 338 341 341 338 339 339
347 343 342 340 339 339 338 338 337 338 341 341 342 338 335 334 332 332 333 333 333 339 340 338 338 337 337 336 335 336 338 339 338 337 337 336 337 341 341 339 337 338 338
350 345 343 341 340 340 338 338 339 340 342 342 342 339 336 334 333 332 334 333 340 343 342 340 339 338 337 337 338 339 339 338 338 338 337 336 338 337 337 337 337 337 337
350 349 345 342 341 340 338 338 339 340 342 342 342 340 337 336 334 333 336 336 338 341 340 338 339 339 338 337 338 339 339 338 338 338 333 335 335 337 339 336 336 336 337
351 350 349 344 343 340 338 338 339 341 342 341 342 341 338 337 335 334 336 336 339 339 339 339 339 339 339 337 339 338 338 338 338 337 334 332 335 336 336 336 336 336 337
348 349 348 347 342 342 338 338 338 338 338 340 342 342 340 338 336 336 337 338 338 338 339 339 338 338 338 337 338 338 338 337 338 336 329 328 335 336 335 335 335 336 336
341 350 348 348 344 339 338 337 337 336 336 336 339 341 341 340 338 337 337 339 338 338 338 338 338 338 337 337 337 337 337 337 339 336 331 332 335 335 334 335 335 334 335
337 343 352 351 349 343 338 337 337 336 336 336 337 340 341 341 339 338 338 339 339 338 338 338 337 338 337 337 336 336 337 337 338 336 336 335 337 335 334 335 335 333 333
318 324 343 349 348 345 339 337 337 337 336 337 337 339 341 341 340 339 339 339 339 339 338 338 337 337 337 336 336 335 335 336 337 337 337 337 337 335 334 334 333 331 331
311 311 335 346 348 347 340 338 338 337 337 337 339 340 341 341 340 340 339 340 340 339 338 338 337 336 336 335 335 334 335 334 336 337 335 336 336 334 334 334 332 331 331
311 311 313 341 348 349 345 342 339 338 337 338 339 341 341 341 340 340 339 340 339 339 339 338 337 336 336 334 333 334 333 336 338 337 334 334 336 334 333 333 332 330 330
310 310 310 310 326 347 346 347 346 343 338 337 339 342 341 341 341 341 340 341 341 339 339 338 337 335 335 333 333 332 331 336 336 335 334 334 334 333 333 332 331 330 329
310 310 310 310 310 326 345 343 344 346 343 338 337 340 342 342 344 342 342 341 341 339 338 337 336 334 332 337 338 334 334 336 336 335 333 333 332 332 332 331 331 328 328
310 310 310 309 309 310 317 341 342 341 345 343 340 339 342 341 342 344 342 342 340 339 337 337 336 333 332 337 338 337 336 334 336 334 333 332 332 331 327 327 327 330 330
308 309 311 312 311 310 310 322 339 342 343 345 343 341 341 341 340 342 341 341 340 339 337 337 336 333 335 337 337 336 335 334 334 335 333 332 331 331 331 326 328 330 330
305 305 308 310 312 311 310 314 326 340 339 343 343 343 341 342 340 344 341 341 340 340 338 339 337 336 336 337 336 336 335 334 334 334 332 333 331 331 329 329 327 329 330
302 302 304 305 308 311 313 312 309 322 336 337 341 342 342 341 341 344 341 340 340 340 339 339 337 338 337 336 336 335 335 334 333 333 333 330 331 330 328 327 327 328 328
299 299 300 302 304 306 310 314 315 311 333 334 337 341 343 342 341 344 341 340 341 340 338 338 338 337 336 335 336 336 335 334 333 334 333 330 330 331 329 328 328 329 328
298 297 298 299 300 303 305 308 314 319 318 334 335 338 342 343 341 343 342 340 341 341 338 338 337 336 335 335 335 335 334 334 334 334 333 333 331 331 331 330 328 328 328
297 296 296 296 298 299 301 304 307 312 317 334 331 335 340 342 341 341 343 342 341 341 339 337 337 336 336 336 335 334 334 334 334 333 333 333 332 331 331 330 331 330 328
294 294 294 295 296 297 299 301 303 307 314 316 324 334 335 339 339 342 342 342 342 340 339 338 336 336 336 336 335 332 329 331 333 333 332 332 331 331 331 330 330 330 330
292 292 293 293 294 295 297 299 302 305 310 317 317 324 334 337 338 341 342 341 342 340 339 338 337 337 337 337 336 333 329 329 329 333 333 333 332 331 331 331 330 329 329
291 291 291 291 292 293 295 298 301 305 310 312 316 318 323 334 338 339 340 339 340 341 340 338 338 338 337 337 336 334 331 330 326 330 332 332 332 332 332 331 331 330 330
290 290 290 290 291 293 295 298 302 305 308 310 311 315 316 327 337 339 339 338 337 337 337 338 336 333 335 335 336 335 334 332 334 330 327 329 332 331 331 330 330 329 330
290 290 289 290 291 292 295 298 301 303 306 309 312 315 316 319 332 339 339 337 336 336 335 335 334 332 333 334 334 335 335 334 331 329 327 325 329 330 329 329 329 329 329